[[{"header":{"parameterUnit":"m.s-1","parameterCategory":1,"la1":31.0,"la2":29.5877,"lo1":-88.7671,"lo2":-86.6584,"dy":0.0162,"dx":0.0185,"nx":115,"ny":88,"refTime":"2023-08-23T18:00:00:Z","depth":0,"parameterNumber":2,"parameterNumberName":"U-component_of_WINDS"},"data":[0.0,0.0,0.0,0.0,0.0,0.0,0.0,0.0,0.0,0.0,0.0,0.0,0.0,0.0,0.0,0.0,0.0,0.0,0.0,0.0,0.0,0.0,0.0,0.0,0.0,0.0,0.0,0.0,0.0,0.0,0.0,0.0,0.0,0.0,0.0,0.0,0.0,0.0,0.0,0.0,0.0,0.0,0.0,0.0,0.0,0.0,0.0,0.0,0.0,0.0,0.0,0.0,0.0,0.0,0.0,0.0,0.0,0.0,0.0,0.0,0.0,0.0,0.0,0.0,0.0,0.0,0.0,0.0,0.0,0.0,0.0,0.0,0.0,0.0,0.0,0.0,0.0,0.0,0.0,0.0,0.0,0.0,0.0,0.0,0.0,0.0,0.0,0.0,0.0,0.0,0.0,0.0,0.0,0.0,0.0,0.0,0.0,0.0,0.0,0.0,0.0,0.0,0.0,0.0,0.0,0.0,0.0,0.0,0.0,0.0,0.0,0.0,0.0,0.0,0.0,0.0,0.0,0.0,0.0,0.0,0.0,0.0,0.0,0.0,0.0,0.0,0.0,0.0,0.0,0.0,0.0,0.0,0.0,0.0,0.0,0.0,0.0,0.0,0.0,0.0,0.0,0.0,0.0,0.0,0.0,0.0,0.0,0.0,0.0,0.0,0.0,0.0,0.0,0.0,0.0,0.0,0.0,0.0,0.0,0.0,0.0,0.0,0.0,0.0,0.0,0.0,0.0,0.0,0.0,0.0,0.0,0.0,0.0,0.0,0.0,0.0,0.0,0.0,0.0,0.0,0.0,0.0,0.0,0.0,0.0,0.0,0.0,0.0,0.0,0.0,0.0,0.0,0.0,0.0,0.0,0.0,0.0,0.0,0.0,0.0,0.0,0.0,0.0,0.0,0.0,0.0,0.0,0.0,0.0,0.0,0.0,0.0,0.0,0.0,0.0,0.0,0.0,0.0,0.0,0.0,0.0,0.0,0.0,0.0,0.0,0.0,0.0,0.0,0.0,0.0,0.0,0.0,0.0,0.0,0.0,0.0,0.0,0.0,0.0,0.0,0.0,0.0,0.0,0.0,0.0,0.0,0.0,0.0,0.0,0.0,0.0,0.0,0.0,0.0,0.0,0.0,0.0,0.0,0.0,0.0,0.0,0.0,0.0,0.0,0.0,0.0,0.0,0.0,0.0,0.0,0.0,0.0,0.0,0.0,0.0,0.0,0.0,0.0,0.0,0.0,0.0,0.0,0.0,0.0,0.0,0.0,0.0,0.0,0.0,0.0,0.0,0.0,0.0,0.0,0.0,0.0,0.0,0.0,0.0,0.0,0.0,0.0,0.0,0.0,0.0,0.0,0.0,0.0,0.0,0.0,0.0,0.0,0.0,0.0,0.0,0.0,0.0,0.0,0.0,0.0,0.0,0.0,0.0,0.0,0.0,0.0,0.0,0.0,0.0,0.0,0.0,0.0,0.0,0.0,0.0,0.0,0.0,0.0,0.0,0.0,0.0,0.0,0.0,0.0,0.0,0.0,0.0,0.0,0.0,0.0,0.0,0.0,0.0,0.0,0.0,0.0,0.0,0.0,0.0,0.0,0.0,0.0,0.0,0.0,0.0,0.0,0.0,0.0,0.0,0.0,0.0,0.0,0.0,0.0,0.0,0.0,0.0,0.0,0.0,0.0,0.0,0.0,0.0,0.0,0.0,0.0,0.0,0.0,0.0,0.0,0.0,0.0,0.0,0.0,0.0,0.0,0.0,0.0,0.0,0.0,0.0,0.0,0.0,0.0,0.0,0.0,0.0,0.0,0.0,0.0,0.0,0.0,0.0,0.0,0.0,0.0,0.0,0.0,0.0,0.0,0.0,0.0,0.0,0.0,0.0,0.0,0.0,0.0,0.0,0.0,0.0,0.0,0.0,0.0,0.0,0.0,0.0,0.0,0.0,0.0,0.0,0.0,0.0,0.0,0.0,0.0,0.0,0.0,0.0,0.0,0.0,0.0,0.0,0.0,0.0,0.0,0.0,0.0,0.0,0.0,0.0,0.0,0.0,0.0,0.0,0.0,0.0,0.0,0.0,0.0,0.0,0.0,0.0,0.0,0.0,0.0,0.0,0.0,0.0,0.0,0.0,0.0,0.0,0.0,0.0,0.0,0.0,0.0,0.0,0.0,0.0,0.0,0.0,0.0,0.0,0.0,0.0,0.0,0.0,0.0,0.0,0.0,0.0,0.0,0.0,0.0,0.0,0.0,0.0,0.0,0.0,0.0,0.0,0.0,0.0,0.0,0.0,0.0,0.0,0.0,0.0,0.0,0.0,0.0,0.0,0.0,0.0,0.0,0.0,0.0,0.0,0.0,0.0,0.0,0.0,0.0,0.0,0.0,0.0,0.0,0.0,0.0,0.0,0.0,0.0,0.0,0.0,0.0,0.0,0.0,0.0,0.0,0.0,0.0,0.0,0.0,0.0,0.0,0.0,0.0,0.0,0.0,0.0,0.0,0.0,0.0,0.0,0.0,0.0,0.0,0.0,0.0,0.0,0.0,0.0,0.0,0.0,0.0,0.0,0.0,0.0,0.0,0.0,0.0,0.0,0.0,0.0,0.0,0.0,0.0,0.0,0.0,0.0,0.0,0.0,0.0,0.0,0.0,0.0,0.0,0.0,0.0,0.0,0.0,0.0,0.0,0.0,0.0,0.0,0.0,0.0,0.0,0.0,0.0,0.0,0.0,0.0,0.0,0.0,0.0,0.0,0.0,0.0,0.0,0.0,0.0,0.0,0.0,0.0,0.0,0.0,0.0,0.0,0.0,0.0,0.0,0.0,0.0,0.0,0.0,0.0,0.0,0.0,0.0,0.0,0.0,0.0,0.0,0.0,0.0,0.0,0.0,0.0,0.0,0.0,0.0,0.0,0.0,0.0,0.0,0.0,0.0,0.0,0.0,0.0,0.0,0.0,0.0,0.0,0.0,0.0,0.0,0.0,0.0,0.0,0.0,0.0,0.0,0.0,0.0,0.0,0.0,0.0,0.0,0.0,0.0,0.0,0.0,0.0,0.0,0.0,0.0,0.0,0.0,0.0,0.0,0.0,0.0,0.0,0.0,0.0,0.0,0.0,0.0,0.0,0.0,0.0,0.0,0.0,0.0,0.0,0.0,0.0,0.0,0.0,0.0,0.0,0.0,0.0,0.0,0.0,0.0,0.0,0.0,0.0,0.0,0.0,0.0,0.0,0.0,0.0,0.0,0.0,0.0,0.0,0.0,0.0,0.0,0.0,0.0,0.0,0.0,0.0,0.0,0.0,0.0,0.0,0.0,0.0,0.0,0.0,0.0,0.0,0.0,0.0,0.0,0.0,0.0,0.0,0.0,0.0,0.0,0.0,0.0,0.0,0.0,0.0,0.0,0.0,0.0,0.0,0.0,0.0,0.0,0.0,0.0,0.0,0.0,0.0,0.0,0.0,0.0,0.0,0.0,0.0,0.0,0.0,0.0,0.0,0.0,0.0,0.0,0.0,0.0,0.0,0.0,0.0,0.0,0.0,0.0,0.0,0.0,0.0,0.0,0.0,0.0,0.0,0.0,0.0,0.0,0.0,0.0,0.0,0.0,0.0,0.0,0.0,0.0,0.0,0.0,0.0,0.0,0.0,0.0,0.0,0.0,0.0,0.0,0.0,0.0,0.0,0.0,0.0,0.0,0.0,0.0,0.0,0.0,0.0,0.0,0.0,0.0,0.0,0.0,0.0,0.0,0.0,0.0,0.0,0.0,0.0,0.0,0.0,0.0,0.0,0.0,0.0,0.0,0.0,0.0,0.0,0.0,0.0,0.0,0.0,0.0,0.0,0.0,0.0,0.0,0.0,0.0,0.0,0.0,0.0,0.0,0.0,0.0,0.0,0.0,0.0,0.0,0.0,0.0,0.0,0.0,0.0,0.0,0.0,0.0,0.0,0.0,0.0,0.0,0.0,0.0,0.0,0.0,0.0,0.0,0.0,0.0,0.0,0.0,0.0,0.0,0.0,0.0,0.0,0.0,0.0,0.0,0.0,0.0,0.0,0.0,0.0,0.0,0.0,0.0,0.0,0.0,0.0,0.0,0.0,0.0,0.0,0.0,0.0,0.0,0.0,0.0,0.0,0.0,0.0,0.0,0.0,0.0,0.0,0.0,0.0,0.0,0.0,0.0,0.0,0.0,0.0,0.0,0.0,0.0,0.0,0.0,0.0,0.0,0.0,0.0,0.0,0.0,0.0,0.0,0.0,0.0,0.0,0.0,0.0,0.0,1.2896,0.0,0.0,0.0,0.0,0.0,0.0,0.0,0.0,0.0,0.0,0.0,0.0,0.0,0.0,0.0,0.0,0.0,0.0,0.0,0.0,0.0,0.0,0.0,0.0,0.0,0.0,0.0,0.0,0.0,0.0,0.0,0.0,0.0,0.0,0.0,0.0,0.0,0.0,0.0,0.0,0.0,0.0,0.0,0.0,0.0,0.0,0.0,0.0,0.0,0.0,0.0,0.0,0.0,0.0,0.0,0.0,0.0,0.0,0.0,0.0,0.0,0.0,0.0,0.0,0.0,0.0,0.0,0.0,0.0,0.0,0.0,0.0,0.0,0.0,0.0,0.0,0.0,0.0,0.0,0.0,0.0,0.0,0.0,0.0,0.0,0.0,0.0,0.0,0.0,0.0,0.0,0.0,0.0,0.0,0.0,0.0,0.0,0.0,0.0,0.0,0.0,0.0,0.0,0.0,0.0,0.0,0.0,0.0,0.0,0.0,1.2943,1.3025,1.306,1.3082,1.3185,0.0,0.0,0.0,0.0,0.0,0.0,0.0,0.0,0.0,0.0,0.0,0.0,0.0,0.0,0.0,0.0,0.0,0.0,0.0,0.0,0.0,0.0,0.0,0.0,0.0,0.0,0.0,0.0,0.0,0.0,0.0,0.0,0.0,0.0,0.0,0.0,0.0,0.0,0.0,0.0,0.0,0.0,0.0,0.0,0.0,0.0,0.0,0.0,0.0,0.0,0.0,0.0,0.0,0.0,0.0,0.0,0.0,0.0,0.0,0.0,0.0,0.0,0.0,0.0,0.0,0.0,0.0,0.0,0.0,0.0,0.0,0.0,0.0,0.0,0.0,0.0,0.0,0.0,0.0,0.0,0.0,0.0,0.0,0.0,0.0,0.0,0.0,0.0,0.0,0.0,0.0,0.0,0.0,0.0,0.0,0.0,0.0,0.0,0.0,0.0,0.0,0.0,0.0,0.0,0.0,0.0,0.0,0.0,0.0,0.0,0.0,0.0,1.3232,1.3335,1.3446,0.0,0.0,0.0,0.0,0.0,0.0,0.0,0.0,0.0,0.0,0.0,0.0,0.0,0.0,0.0,0.0,0.0,0.0,0.0,0.0,0.0,0.0,0.0,0.0,0.0,0.0,0.0,0.0,0.0,0.0,0.0,0.0,0.0,0.0,0.0,0.0,0.0,0.0,0.0,0.0,0.0,0.0,0.0,0.0,0.0,0.0,0.0,0.0,0.0,0.0,0.0,0.0,0.0,0.0,0.0,0.0,0.0,0.0,0.0,0.0,0.0,0.0,0.0,0.0,0.0,0.0,0.0,0.0,0.0,0.0,0.0,0.0,0.0,0.0,0.0,0.0,0.0,0.0,0.0,0.0,0.0,0.0,0.0,0.0,0.0,0.0,0.0,0.0,0.0,0.0,0.0,0.0,0.0,0.0,0.0,0.0,0.0,0.0,0.0,0.0,0.0,0.0,0.0,0.0,0.0,0.0,0.0,0.0,0.0,0.0,1.3357,1.3357,1.3459,0.0,1.3581,0.0,0.0,0.0,0.0,0.0,0.0,0.0,0.0,0.0,0.0,0.0,0.0,0.0,0.0,0.0,0.0,0.0,0.0,0.0,0.0,0.0,0.0,0.0,0.0,0.0,0.0,0.0,0.0,0.0,0.0,0.0,0.0,0.0,0.0,0.0,0.0,0.0,0.0,0.0,0.0,0.0,0.0,0.0,0.0,0.0,0.0,0.0,0.0,0.0,0.0,0.0,0.0,0.0,0.0,0.0,0.0,0.0,0.0,0.0,0.0,0.0,0.0,0.0,0.0,0.0,0.0,0.0,0.0,0.0,0.0,0.0,0.0,0.0,0.0,0.0,0.0,0.0,0.0,0.0,0.0,0.0,0.0,0.0,0.0,0.0,0.0,0.0,0.0,0.0,0.0,0.0,0.0,0.0,0.0,0.0,0.0,0.0,0.0,0.0,0.0,0.0,0.0,0.0,0.0,0.0,0.0,0.0,0.0,0.0,0.0,1.3459,1.3446,1.3594,1.3728,0.0,0.0,0.0,0.0,0.0,0.0,0.0,0.0,0.0,0.0,0.0,0.0,0.0,0.0,0.0,0.0,0.0,0.0,0.0,0.0,0.0,0.0,0.0,0.0,0.0,0.0,0.0,0.0,0.0,0.0,0.0,0.0,0.0,0.0,0.0,0.0,0.0,0.0,0.0,0.0,0.0,0.0,0.0,0.0,0.0,0.0,0.0,0.0,0.0,0.0,0.0,0.0,0.0,0.0,0.0,0.0,0.0,0.0,0.0,0.0,0.0,0.0,0.0,0.0,0.0,0.0,0.0,0.0,0.0,0.0,0.0,0.0,0.0,0.0,0.0,0.0,0.0,0.0,0.0,0.0,0.0,0.0,0.0,0.0,0.0,0.0,0.0,0.0,0.0,0.0,0.0,0.0,0.0,0.0,0.0,0.0,0.0,0.0,0.0,0.0,0.0,0.0,0.0,0.0,0.0,0.0,0.0,0.0,0.0,0.0,1.356,1.3594,1.3661,1.3841,1.3974,1.4065,0.0,0.0,0.0,0.0,0.0,0.0,0.0,0.0,0.0,0.0,0.0,0.0,0.0,0.0,0.0,0.0,0.0,0.0,0.0,0.0,0.0,0.0,0.0,0.0,0.0,0.0,0.0,0.0,0.0,0.0,0.0,0.0,0.0,0.0,0.0,0.0,0.0,0.0,0.0,0.0,0.0,0.0,0.0,0.0,0.0,0.0,0.0,0.0,0.0,0.0,0.0,0.0,0.0,0.0,0.0,0.0,0.0,0.0,0.0,0.0,0.0,0.0,0.0,0.0,0.0,0.0,0.0,0.0,0.0,0.0,0.0,0.0,0.0,0.0,0.0,0.0,0.0,0.0,0.0,0.0,0.0,0.0,0.0,0.0,0.0,0.0,0.0,0.0,0.0,0.0,0.0,0.0,0.0,0.0,0.0,0.0,0.0,0.0,0.0,0.0,0.0,0.0,0.0,0.0,0.0,0.0,0.0,0.0,1.3615,1.3728,1.3874,1.3967,1.4111,1.4235,0.0,0.0,0.0,0.0,0.0,0.0,0.0,0.0,0.0,0.0,0.0,0.0,0.0,0.0,0.0,0.0,0.0,0.0,0.0,0.0,0.0,0.0,0.0,0.0,0.0,0.0,0.0,0.0,0.0,0.0,0.0,0.0,0.0,0.0,0.0,0.0,0.0,0.0,0.0,0.0,0.0,0.0,0.0,0.0,0.0,0.0,0.0,0.0,0.0,0.0,0.0,0.0,0.0,0.0,0.0,0.0,0.0,0.0,0.0,0.0,0.0,0.0,0.0,0.0,0.0,0.0,0.0,0.0,0.0,0.0,0.0,0.0,0.0,0.0,0.0,0.0,0.0,0.0,0.0,0.0,0.0,0.0,0.0,0.0,0.0,0.0,0.0,0.0,0.0,0.0,0.0,0.0,0.0,0.0,0.0,0.0,0.0,0.0,0.0,0.0,0.0,0.0,0.0,0.0,0.0,0.0,0.0,0.0,0.0,1.3868,1.3993,1.4105,1.4254,1.43,1.4397,0.0,0.0,0.0,0.0,0.0,0.0,0.0,0.0,0.0,0.0,0.0,0.0,0.0,0.0,0.0,0.0,0.0,0.0,0.0,0.0,0.0,0.0,0.0,0.0,0.0,0.0,0.0,0.0,0.0,0.0,0.0,0.0,0.0,0.0,0.0,0.0,0.0,0.0,0.0,0.0,0.0,0.0,0.0,0.0,0.0,0.0,0.0,0.0,0.0,0.0,0.0,0.0,0.0,0.0,0.0,0.0,0.0,0.0,0.0,0.0,0.0,0.0,0.0,0.0,0.0,0.0,0.0,0.0,0.0,0.0,0.0,0.0,0.0,0.0,0.0,0.0,0.0,0.0,0.0,0.0,0.0,0.0,0.0,0.0,0.0,0.0,0.0,0.0,0.0,0.0,0.0,0.0,0.0,0.0,0.0,0.0,0.0,0.0,0.0,0.0,0.0,0.0,0.0,0.0,0.0,0.0,0.0,0.0,0.0,1.4163,0.0,1.4429,1.4525,1.4556,1.4606,0.0,0.0,0.0,0.0,0.0,0.0,0.0,0.0,0.0,0.0,0.0,0.0,0.0,0.0,0.0,0.0,0.0,0.0,0.0,0.0,0.0,0.0,0.0,0.0,0.0,0.0,0.0,0.0,0.0,0.0,0.0,0.0,0.0,0.0,0.0,0.0,0.0,0.0,0.0,0.0,0.0,0.0,0.0,0.0,0.0,0.0,0.0,0.0,0.0,0.0,0.0,0.0,0.0,0.0,0.0,0.0,0.0,0.0,0.0,0.0,0.0,0.0,0.0,0.0,0.0,0.0,0.0,0.0,0.0,0.0,0.0,0.0,0.0,0.0,0.0,0.0,0.0,0.0,0.0,0.0,0.0,0.0,0.0,0.0,0.0,0.0,0.0,0.0,0.0,0.0,0.0,0.0,0.0,0.0,0.0,0.0,0.0,0.0,0.0,0.0,0.0,0.0,0.0,0.0,0.0,0.0,0.0,0.0,1.4332,1.4515,1.4651,1.4788,1.4822,1.4899,1.4916,0.0,0.0,0.0,0.0,0.0,0.0,0.0,0.0,0.0,0.0,0.0,0.0,0.0,0.0,0.0,0.0,0.0,0.0,0.0,0.0,0.0,0.0,0.0,0.0,0.0,0.0,0.0,0.0,0.0,0.0,0.0,0.0,0.0,0.0,0.0,0.0,0.0,0.0,0.0,0.0,0.0,0.0,0.0,0.0,0.0,0.0,0.0,0.0,0.0,0.0,0.0,0.0,0.0,0.0,0.0,0.0,0.0,0.0,0.0,0.0,0.0,0.0,0.0,0.0,0.0,0.0,0.0,0.0,0.0,0.0,0.0,0.0,0.0,0.0,0.0,0.0,0.0,0.0,0.0,0.0,0.0,0.0,0.0,0.0,0.0,0.0,0.0,0.0,0.0,0.0,0.0,0.0,0.0,0.0,0.0,0.0,0.0,0.0,0.0,0.0,0.0,0.0,0.0,0.0,0.0,0.0,0.0,0.0,0.0,1.5513,1.5574,1.5666,1.584,1.5857,1.5686,0.0,0.0,0.0,0.0,0.0,0.0,0.0,0.0,0.0,0.0,0.0,0.0,0.0,0.0,0.0,0.0,0.0,0.0,0.0,0.0,0.0,0.0,0.0,0.0,0.0,0.0,0.0,0.0,0.0,0.0,0.0,0.0,0.0,0.0,0.0,0.0,0.0,0.0,0.0,0.0,0.0,0.0,0.0,0.0,0.0,0.0,0.0,0.0,0.0,0.0,0.0,0.0,0.0,0.0,0.0,0.0,0.0,0.0,0.0,0.0,0.0,0.0,0.0,0.0,0.0,0.0,0.0,0.0,0.0,0.0,0.0,0.0,0.0,0.0,0.0,0.0,0.0,0.0,0.0,0.0,0.0,0.0,0.0,0.0,0.0,0.0,0.0,0.0,0.0,0.0,0.0,0.0,0.0,0.0,0.0,0.0,0.0,0.0,0.0,0.0,0.0,0.0,0.0,0.0,0.0,0.0,0.0,0.0,0.0,1.6928,1.6688,1.6586,1.6749,1.6515,1.621,1.583,0.0,0.0,0.0,0.0,0.0,0.0,0.0,0.0,0.0,0.0,0.0,0.0,0.0,0.0,0.0,0.0,0.0,0.0,0.0,0.0,0.0,0.0,0.0,0.0,0.0,0.0,0.0,0.0,0.0,0.0,0.0,0.0,0.0,0.0,0.0,0.0,0.0,0.0,0.0,0.0,0.0,0.0,0.0,0.0,0.0,0.0,0.0,0.0,0.0,0.0,0.0,0.0,0.0,0.0,0.0,0.0,0.0,0.0,0.0,0.0,0.0,0.0,0.0,0.0,0.0,0.0,0.0,0.0,0.0,0.0,0.0,0.0,0.0,0.0,0.0,0.0,0.0,0.0,0.0,0.0,0.0,0.0,0.0,0.0,0.0,0.0,0.0,0.0,0.0,0.0,0.0,0.0,0.0,0.0,0.0,0.0,0.0,0.0,0.0,0.0,0.0,0.0,0.0,0.0,0.0,0.0,0.0,0.0,1.8584,1.7914,1.7552,1.7574,1.6969,1.6616,0.0,0.0,0.0,0.0,0.0,0.0,0.0,0.0,0.0,0.0,0.0,0.0,0.0,0.0,0.0,0.0,0.0,0.0,0.0,0.0,0.0,0.0,0.0,0.0,0.0,0.0,0.0,0.0,0.0,0.0,0.0,0.0,0.0,0.0,0.0,0.0,0.0,0.0,0.0,0.0,0.0,0.0,0.0,0.0,0.0,0.0,0.0,0.0,0.0,0.0,0.0,0.0,0.0,0.0,0.0,0.0,0.0,0.0,0.0,0.0,0.0,0.0,0.0,0.0,0.0,0.0,0.0,0.0,0.0,0.0,0.0,0.0,0.0,0.0,0.0,0.0,0.0,0.0,0.0,0.0,0.0,0.0,0.0,0.0,0.0,0.0,0.0,0.0,0.0,0.0,0.0,0.0,0.0,0.0,0.0,0.0,0.0,0.0,0.0,0.0,0.0,0.0,0.0,0.0,0.0,0.0,0.0,0.0,0.0,1.8638,1.8982,1.8957,1.856,1.835,1.7842,0.0,0.0,0.0,0.0,0.0,0.0,0.0,0.0,0.0,0.0,0.0,0.0,0.0,0.0,0.0,0.0,0.0,0.0,0.0,0.0,0.0,0.0,0.0,0.0,0.0,0.0,0.0,0.0,0.0,0.0,0.0,0.0,0.0,0.0,0.0,0.0,0.0,0.0,0.0,0.0,0.0,0.0,0.0,0.0,0.0,0.0,0.0,0.0,0.0,0.0,0.0,0.0,0.0,0.0,0.0,0.0,0.0,0.0,0.0,0.0,0.0,0.0,0.0,0.0,0.0,0.0,0.0,0.0,0.0,0.0,0.0,0.0,0.0,0.0,0.0,0.0,0.0,0.0,0.0,0.0,0.0,0.0,0.0,0.0,0.0,0.0,0.0,0.0,0.0,0.0,0.0,0.0,0.0,0.0,0.0,0.0,0.0,0.0,0.0,0.0,0.0,0.0,0.0,0.0,0.0,0.0,0.0,0.0,1.8463,1.9226,1.9652,1.9738,1.9413,1.9106,1.8591,0.0,0.0,0.0,0.0,0.0,0.0,0.0,0.0,0.0,0.0,0.0,0.0,0.0,0.0,0.0,0.0,0.0,0.0,0.0,0.0,0.0,0.0,0.0,0.0,0.0,0.0,0.0,0.0,0.0,0.0,0.0,0.0,0.0,0.0,0.0,0.0,0.0,0.0,0.0,0.0,0.0,0.0,0.0,0.0,0.0,0.0,0.0,0.0,0.0,0.0,0.0,0.0,0.0,0.0,0.0,0.0,0.0,0.0,0.0,0.0,0.0,0.0,0.0,0.0,0.0,0.0,0.0,0.0,0.0,0.0,0.0,0.0,0.0,0.0,0.0,0.0,0.0,0.0,0.0,0.0,0.0,0.0,0.0,0.0,0.0,0.0,0.0,0.0,0.0,0.0,0.0,0.0,0.0,0.0,0.0,0.0,0.0,0.0,0.0,0.0,0.0,0.0,0.0,0.0,0.0,0.0,0.0,0.0,1.9135,1.999,2.0041,2.0061,2.01,1.9482,1.9079,0.0,0.0,0.0,0.0,0.0,0.0,0.0,0.0,0.0,0.0,0.0,0.0,0.0,0.0,0.0,0.0,0.0,0.0,0.0,0.0,0.0,0.0,0.0,0.0,0.0,0.0,0.0,0.0,0.0,0.0,0.0,0.0,0.0,0.0,0.0,0.0,0.0,0.0,0.0,0.0,0.0,0.0,0.0,0.0,0.0,0.0,0.0,0.0,0.0,0.0,0.0,0.0,0.0,0.0,0.0,0.0,0.0,0.0,0.0,0.0,0.0,0.0,0.0,0.0,0.0,0.0,0.0,0.0,0.0,0.0,0.0,0.0,0.0,0.0,0.0,0.0,0.0,0.0,0.0,0.0,0.0,0.0,0.0,0.0,0.0,0.0,0.0,0.0,0.0,0.0,0.0,0.0,0.0,0.0,0.0,0.0,0.0,0.0,0.0,0.0,0.0,0.0,0.0,0.0,0.0,0.0,0.0,0.0,1.9322,2.005,2.008,2.015,2.027,2.0012,1.9657,0.0,0.0,0.0,0.0,0.0,0.0,0.0,0.0,0.0,0.0,0.0,0.0,0.0,0.0,0.0,0.0,0.0,0.0,0.0,0.0,0.0,0.0,0.0,0.0,0.0,0.0,0.0,0.0,0.0,0.0,0.0,0.0,0.0,0.0,0.0,0.0,0.0,0.0,0.0,0.0,0.0,0.0,0.0,0.0,0.0,0.0,0.0,0.0,1.9693,0.0,0.0,0.0,0.0,0.0,0.0,0.0,0.0,0.0,0.0,0.0,0.0,0.0,0.0,0.0,0.0,0.0,0.0,0.0,0.0,0.0,0.0,0.0,0.0,0.0,0.0,0.0,0.0,0.0,0.0,0.0,0.0,0.0,0.0,0.0,0.0,0.0,0.0,0.0,0.0,0.0,0.0,0.0,0.0,0.0,0.0,0.0,0.0,0.0,0.0,0.0,0.0,0.0,0.0,0.0,0.0,0.0,0.0,0.0,1.973,2.017,2.0185,2.0235,2.0304,2.0235,2.0066,0.0,0.0,0.0,0.0,0.0,0.0,0.0,0.0,0.0,0.0,0.0,0.0,0.0,0.0,0.0,0.0,0.0,0.0,0.0,0.0,0.0,0.0,0.0,0.0,0.0,0.0,0.0,0.0,0.0,0.0,0.0,0.0,0.0,0.0,0.0,0.0,0.0,0.0,0.0,0.0,0.0,0.0,0.0,0.0,0.0,0.0,0.0,0.0,0.0,0.0,0.0,0.0,0.0,0.0,0.0,0.0,0.0,0.0,0.0,0.0,0.0,0.0,0.0,0.0,0.0,0.0,0.0,0.0,0.0,0.0,0.0,0.0,0.0,0.0,0.0,0.0,0.0,0.0,0.0,0.0,0.0,0.0,0.0,0.0,0.0,0.0,0.0,0.0,0.0,0.0,0.0,0.0,0.0,0.0,0.0,0.0,0.0,0.0,0.0,0.0,0.0,0.0,0.0,0.0,0.0,0.0,0.0,1.9798,2.0185,2.0304,2.0304,2.0304,2.0304,2.0304,2.0304,2.0289,0.0,0.0,0.0,0.0,0.0,0.0,0.0,0.0,0.0,0.0,0.0,0.0,0.0,0.0,0.0,0.0,0.0,0.0,0.0,0.0,0.0,0.0,0.0,0.0,0.0,0.0,0.0,0.0,0.0,0.0,0.0,0.0,0.0,0.0,0.0,0.0,0.0,0.0,1.6792,1.8022,0.0,0.0,0.0,0.0,0.0,0.0,0.0,0.0,2.1668,0.0,0.0,0.0,0.0,0.0,0.0,0.0,0.0,0.0,0.0,0.0,0.0,0.0,0.0,0.0,0.0,0.0,0.0,0.0,0.0,0.0,0.0,0.0,0.0,0.0,0.0,0.0,0.0,0.0,0.0,0.0,0.0,0.0,0.0,0.0,0.0,0.0,0.0,0.0,0.0,0.0,0.0,0.0,0.0,0.0,0.0,0.0,0.0,0.0,0.0,0.0,0.0,0.0,0.0,0.0,0.0,1.9254,1.9916,2.0254,2.0304,2.0304,2.0304,2.0304,2.0304,2.0304,2.0326,0.0,0.0,0.0,0.0,0.0,0.0,0.0,0.0,0.0,0.0,0.0,0.0,0.0,0.0,0.0,0.0,0.0,0.0,0.0,0.0,0.0,0.0,0.0,0.0,0.0,0.0,0.0,0.0,0.0,0.0,0.0,0.0,0.0,0.0,0.0,0.0,0.0,0.0,0.0,1.9151,1.9854,0.0,0.0,0.0,0.0,0.0,0.0,0.0,0.0,2.1987,0.0,0.0,0.0,0.0,0.0,0.0,0.0,0.0,0.0,0.0,0.0,0.0,0.0,0.0,0.0,0.0,0.0,0.0,0.0,0.0,0.0,0.0,0.0,0.0,0.0,0.0,0.0,0.0,0.0,0.0,0.0,0.0,0.0,0.0,0.0,0.0,0.0,0.0,0.0,0.0,0.0,0.0,0.0,0.0,0.0,0.0,0.0,0.0,0.0,0.0,0.0,0.0,0.0,0.0,0.0,1.978,2.0135,2.0304,2.0304,2.0304,2.0304,2.0304,2.0304,2.0373,0.0,0.0,0.0,0.0,0.0,0.0,0.0,0.0,0.0,0.0,0.0,0.0,0.0,0.0,0.0,0.0,0.0,0.0,0.0,0.0,0.0,0.0,0.0,0.0,0.0,0.0,0.0,0.0,0.0,0.0,0.0,0.0,0.0,0.0,0.0,0.0,0.0,0.0,0.0,0.0,1.9743,2.0045,2.01,0.0,0.0,0.0,0.0,0.0,0.0,2.3117,2.2994,0.0,0.0,0.0,0.0,0.0,0.0,0.0,0.0,0.0,0.0,0.0,0.0,0.0,0.0,0.0,0.0,0.0,0.0,0.0,0.0,0.0,0.0,0.0,0.0,0.0,0.0,0.0,0.0,0.0,0.0,0.0,0.0,0.0,0.0,0.0,0.0,0.0,0.0,0.0,0.0,0.0,0.0,0.0,0.0,0.0,0.0,0.0,0.0,0.0,0.0,0.0,0.0,0.0,0.0,0.0,2.0308,2.0339,2.0304,2.0304,2.0304,2.0304,2.0304,2.0373,2.0441,0.0,0.0,0.0,0.0,0.0,0.0,0.0,0.0,0.0,0.0,0.0,0.0,0.0,0.0,0.0,0.0,0.0,0.0,0.0,0.0,0.0,0.0,0.0,0.0,0.0,0.0,0.0,0.0,0.0,0.0,0.0,0.0,0.0,0.0,0.0,0.0,0.0,0.0,0.0,0.0,0.0,2.0349,2.0349,2.1003,0.0,0.0,0.0,0.0,2.3486,2.3948,0.0,0.0,0.0,0.0,0.0,0.0,0.0,0.0,0.0,0.0,0.0,0.0,0.0,0.0,0.0,0.0,0.0,0.0,0.0,0.0,0.0,0.0,0.0,0.0,0.0,0.0,0.0,0.0,0.0,0.0,0.0,0.0,0.0,0.0,0.0,0.0,0.0,0.0,0.0,0.0,0.0,0.0,0.0,0.0,0.0,0.0,0.0,0.0,0.0,0.0,0.0,0.0,0.0,0.0,0.0,0.0,2.0429,2.0407,2.0388,2.0388,2.0388,2.0388,2.0388,2.0426,2.0543,0.0,0.0,0.0,0.0,0.0,0.0,0.0,0.0,0.0,0.0,0.0,0.0,0.0,0.0,0.0,0.0,0.0,0.0,0.0,0.0,0.0,0.0,0.0,0.0,0.0,0.0,0.0,0.0,0.0,0.0,0.0,0.0,0.0,0.0,0.0,0.0,0.0,0.0,0.0,0.0,0.0,2.1162,2.1162,2.1732,2.2394,0.0,0.0,2.3502,2.4102,2.4256,0.0,0.0,0.0,0.0,0.0,0.0,0.0,0.0,0.0,0.0,0.0,0.0,0.0,0.0,0.0,0.0,0.0,0.0,0.0,0.0,0.0,0.0,0.0,0.0,0.0,0.0,0.0,0.0,0.0,0.0,0.0,0.0,0.0,0.0,0.0,0.0,0.0,0.0,0.0,0.0,0.0,0.0,0.0,0.0,0.0,0.0,0.0,0.0,0.0,0.0,0.0,0.0,0.0,0.0,0.0,2.028,2.0478,2.0475,2.0441,2.0475,2.0441,2.046,2.0441,2.0543,2.0644,0.0,0.0,0.0,0.0,0.0,0.0,0.0,0.0,0.0,0.0,0.0,0.0,0.0,0.0,0.0,0.0,0.0,0.0,0.0,0.0,0.0,0.0,0.0,0.0,0.0,0.0,0.0,0.0,0.0,0.0,0.0,0.0,0.0,0.0,0.0,0.0,0.0,0.0,0.0,0.0,0.0,0.0,2.1793,2.2424,0.0,0.0,0.0,2.3963,2.4271,0.0,0.0,0.0,0.0,0.0,0.0,0.0,0.0,0.0,0.0,0.0,0.0,0.0,0.0,0.0,0.0,0.0,0.0,0.0,0.0,0.0,0.0,0.0,0.0,0.0,0.0,0.0,0.0,0.0,0.0,0.0,0.0,0.0,0.0,0.0,0.0,0.0,0.0,0.0,0.0,0.0,0.0,0.0,0.0,0.0,0.0,0.0,0.0,0.0,0.0,0.0,0.0,0.0,0.0,0.0,0.0,0.0,2.0595,2.0561,2.0527,2.0561,2.0577,2.0561,2.0577,2.0677,0.0,0.0,0.0,0.0,0.0,0.0,0.0,0.0,0.0,0.0,0.0,0.0,0.0,0.0,0.0,0.0,0.0,0.0,0.0,0.0,0.0,0.0,0.0,0.0,0.0,0.0,0.0,1.7361,0.0,0.0,0.0,0.0,0.0,0.0,0.0,0.0,0.0,0.0,0.0,0.0,0.0,0.0,2.1978,2.2471,2.3117,2.3548,0.0,0.0,2.4302,2.4302,2.4302,2.4148,0.0,0.0,0.0,0.0,0.0,0.0,0.0,0.0,0.0,0.0,0.0,0.0,0.0,0.0,0.0,0.0,0.0,0.0,0.0,0.0,0.0,0.0,0.0,0.0,0.0,0.0,0.0,0.0,0.0,0.0,0.0,0.0,0.0,0.0,0.0,0.0,0.0,0.0,0.0,0.0,0.0,0.0,0.0,0.0,0.0,0.0,0.0,0.0,0.0,0.0,0.0,0.0,0.0,0.0,2.0844,2.0794,2.0711,2.0677,2.0693,2.0677,2.0693,2.0677,2.0761,2.0827,0.0,0.0,0.0,0.0,0.0,0.0,0.0,0.0,0.0,0.0,0.0,0.0,0.0,0.0,0.0,0.0,0.0,0.0,0.0,0.0,0.0,0.0,0.0,0.0,0.0,0.0,0.0,0.0,0.0,0.0,0.0,0.0,0.0,0.0,0.0,0.0,0.0,0.0,0.0,0.0,0.0,2.3179,2.3225,2.381,2.4241,0.0,2.4271,2.4302,2.4302,2.4302,2.4287,2.4241,0.0,0.0,0.0,0.0,0.0,0.0,0.0,0.0,0.0,0.0,0.0,0.0,0.0,0.0,0.0,0.0,0.0,0.0,0.0,0.0,0.0,0.0,0.0,0.0,0.0,0.0,0.0,0.0,0.0,0.0,0.0,0.0,0.0,0.0,0.0,0.0,0.0,0.0,0.0,0.0,0.0,0.0,0.0,0.0,0.0,0.0,0.0,0.0,0.0,0.0,0.0,0.0,0.0,2.0974,2.0861,2.0844,2.0794,2.0761,2.0777,2.0794,2.0827,2.0844,2.0925,0.0,0.0,0.0,0.0,0.0,0.0,0.0,0.0,0.0,0.0,0.0,0.0,0.0,0.0,0.0,0.0,0.0,0.0,0.0,0.0,0.0,0.0,0.0,0.0,0.0,0.0,0.0,0.0,1.9705,2.0011,2.0323,0.0,0.0,0.0,0.0,0.0,0.0,0.0,0.0,0.0,0.0,2.3456,2.3856,2.4148,0.0,0.0,2.4302,2.4302,2.4302,2.4302,2.4302,2.4302,2.4225,0.0,0.0,0.0,0.0,0.0,0.0,0.0,0.0,0.0,0.0,0.0,0.0,0.0,0.0,0.0,0.0,0.0,0.0,0.0,0.0,0.0,0.0,0.0,0.0,0.0,0.0,0.0,0.0,0.0,0.0,0.0,0.0,0.0,0.0,0.0,0.0,0.0,0.0,0.0,0.0,0.0,0.0,0.0,0.0,0.0,0.0,0.0,0.0,0.0,0.0,0.0,0.0,2.1071,2.0958,2.0958,2.0925,2.0892,2.0876,2.0909,2.0958,2.0942,2.1006,0.0,0.0,0.0,0.0,0.0,0.0,0.0,0.0,0.0,0.0,0.0,0.0,0.0,0.0,0.0,0.0,0.0,0.0,0.0,0.0,0.0,0.0,0.0,0.0,0.0,0.0,0.0,0.0,2.0079,2.0373,2.0506,0.0,0.0,0.0,0.0,0.0,0.0,0.0,0.0,0.0,0.0,2.3763,2.4241,2.4471,2.461,2.461,2.4779,2.4918,2.4918,2.4933,2.4933,2.4918,0.0,0.0,0.0,0.0,0.0,0.0,0.0,0.0,0.0,0.0,0.0,0.0,0.0,0.0,0.0,0.0,0.0,0.0,0.0,0.0,0.0,0.0,0.0,0.0,0.0,0.0,0.0,2.0343,0.0,0.0,2.0295,0.0,0.0,0.0,0.0,0.0,0.0,0.0,0.0,0.0,0.0,0.0,0.0,0.0,0.0,0.0,0.0,0.0,0.0,0.0,0.0,0.0,0.0,2.123,2.1103,2.1103,2.1119,2.107,2.107,2.107,2.107,2.1103,2.1135,2.1183,0.0,0.0,0.0,0.0,0.0,0.0,0.0,0.0,0.0,0.0,0.0,0.0,0.0,0.0,0.0,0.0,0.0,0.0,0.0,0.0,0.0,0.0,0.0,0.0,0.0,0.0,2.0385,2.0441,2.0491,0.0,0.0,0.0,0.0,0.0,0.0,0.0,0.0,0.0,2.3305,2.3896,2.4287,2.4302,2.4856,2.5256,2.5272,2.5841,2.6272,2.6303,2.6318,2.6349,0.0,0.0,0.0,0.0,0.0,0.0,0.0,0.0,0.0,0.0,0.0,0.0,0.0,0.0,0.0,0.0,0.0,0.0,0.0,0.0,0.0,0.0,0.0,0.0,0.0,0.0,0.0,2.0377,2.0377,0.0,0.0,0.0,0.0,0.0,0.0,0.0,0.0,0.0,0.0,0.0,2.2031,2.1976,0.0,0.0,0.0,0.0,0.0,0.0,0.0,0.0,0.0,0.0,0.0,0.0,2.1419,2.123,2.1247,2.1199,2.1103,2.107,2.1103,2.1167,2.1167,2.1215,2.1324,0.0,0.0,0.0,0.0,0.0,0.0,0.0,0.0,0.0,0.0,0.0,0.0,0.0,0.0,0.0,0.0,0.0,0.0,0.0,0.0,0.0,0.0,0.0,0.0,0.0,2.0377,0.0,0.0,0.0,0.0,0.0,0.0,0.0,0.0,0.0,0.0,2.2608,2.3312,2.3398,2.3912,2.4302,2.4302,2.4887,2.5318,0.0,0.0,0.0,0.0,0.0,0.0,0.0,0.0,0.0,0.0,0.0,0.0,0.0,0.0,2.4813,2.3499,2.3273,2.325,2.3273,0.0,0.0,0.0,0.0,0.0,0.0,0.0,0.0,0.0,0.0,0.0,0.0,0.0,0.0,2.1187,2.1187,2.1204,0.0,0.0,0.0,0.0,0.0,0.0,0.0,0.0,2.3395,2.3339,2.3272,2.3244,2.3187,2.3083,2.3083,2.3009,0.0,0.0,0.0,0.0,0.0,0.0,0.0,0.0,2.1573,2.1419,2.1419,2.1356,2.1294,2.1263,2.1278,2.1357,2.1341,2.1388,2.1448,2.1617,2.1464,0.0,0.0,0.0,0.0,0.0,0.0,0.0,0.0,0.0,0.0,0.0,0.0,0.0,0.0,0.0,0.0,0.0,0.0,0.0,0.0,0.0,0.0,0.0,2.0693,0.0,0.0,0.0,0.0,0.0,0.0,0.0,0.0,0.0,2.2363,2.3054,2.3561,2.3714,2.4066,2.4394,2.4625,0.0,0.0,0.0,0.0,0.0,0.0,0.0,2.7088,2.7088,2.7088,2.7134,2.7164,2.7025,2.6915,2.6854,0.0,0.0,2.4761,2.4513,2.4529,2.4472,2.523,2.5805,2.5821,2.6145,2.6409,0.0,0.0,0.0,0.0,2.3719,0.0,0.0,0.0,2.2781,2.2781,0.0,2.2781,0.0,0.0,0.0,0.0,2.3805,2.3805,0.0,0.0,2.4913,2.4888,2.4871,2.4795,2.4722,2.4628,2.4564,2.4533,2.4404,2.3013,0.0,0.0,0.0,0.0,0.0,0.0,2.1804,2.1718,2.1735,2.1702,2.1638,2.1638,2.1622,2.1589,2.1589,2.1603,2.162,2.1664,2.1708,2.1708,2.1751,0.0,0.0,0.0,0.0,0.0,0.0,0.0,0.0,0.0,0.0,0.0,0.0,0.0,0.0,0.0,0.0,0.0,0.0,0.0,0.0,2.089,0.0,0.0,0.0,0.0,0.0,0.0,0.0,0.0,0.0,2.3732,2.3616,2.3514,2.3628,2.421,0.0,0.0,0.0,0.0,2.6595,2.7272,2.795,2.8381,2.8381,2.8381,2.8381,2.8381,0.0,0.0,2.8396,2.7857,2.7426,2.7426,2.6826,2.6275,2.6335,2.6182,2.6077,2.6092,2.6047,2.6046,2.6062,2.6184,2.6183,2.6251,0.0,0.0,0.0,0.0,2.4436,2.435,2.435,2.435,2.4333,2.4333,2.435,0.0,0.0,0.0,0.0,0.0,0.0,2.4781,2.5005,2.4976,2.4947,2.4888,2.4859,2.4829,2.4752,2.4739,2.4739,2.4675,2.4283,2.3943,2.3728,0.0,0.0,0.0,0.0,2.3498,2.3307,2.3307,2.2996,2.2375,2.2359,2.213,2.1606,2.1634,2.1664,2.1664,2.1738,2.1797,2.184,2.1869,0.0,0.0,0.0,0.0,0.0,0.0,0.0,0.0,0.0,0.0,0.0,0.0,0.0,0.0,0.0,0.0,0.0,0.0,0.0,2.0909,2.1252,2.1503,0.0,0.0,0.0,0.0,0.0,0.0,0.0,0.0,0.0,2.4166,2.4228,2.4225,0.0,0.0,2.5087,2.5287,2.6318,2.7165,2.7365,2.798,0.0,2.8411,2.8411,2.8411,2.8411,2.8411,2.8411,2.8411,2.8258,2.8104,2.8134,2.7869,2.7653,2.7607,2.6764,2.6123,2.6077,2.6396,2.6714,2.6745,2.7094,2.7428,2.8031,2.6713,2.5828,2.5449,2.5402,2.5126,2.5005,2.5005,2.5005,2.5005,2.5005,2.5005,2.5005,2.5005,2.5005,0.0,0.0,0.0,2.5609,2.5902,2.5919,2.5889,2.5859,2.5859,2.5811,2.5702,2.572,2.572,2.5658,2.5658,2.5595,2.5402,0.0,2.4461,2.4368,2.4337,2.4273,2.413,2.413,2.3866,2.3323,2.3323,2.2975,2.228,2.2292,2.2142,2.1827,2.1869,2.1899,2.194,2.194,2.2032,0.0,0.0,0.0,0.0,0.0,0.0,0.0,0.0,0.0,0.0,0.0,2.1375,2.1631,0.0,0.0,0.0,2.1424,2.1437,2.1254,2.1853,0.0,0.0,0.0,0.0,0.0,0.0,0.0,2.3935,2.3887,2.4002,2.4354,2.4647,2.476,2.4718,2.5056,2.5518,2.6057,0.0,2.7488,2.775,2.815,2.8411,2.8411,2.8411,2.8488,2.8765,2.9042,2.9196,2.9212,2.9212,2.9212,2.9162,2.9046,2.8895,2.8931,2.8076,2.7252,2.6831,2.698,2.7236,2.7252,2.7569,2.784,2.966,2.942,2.733,2.645,2.6299,2.5643,2.5367,2.5367,2.5367,2.5367,2.535,2.535,2.535,2.5367,2.5367,0.0,2.6368,2.6385,2.6782,2.7471,2.7471,2.7454,2.7471,2.7471,2.7422,2.7274,2.7306,2.7259,2.7178,2.7195,2.7195,2.7161,2.5715,2.4904,2.4709,2.4647,2.4585,2.4506,2.4523,2.4473,2.4374,2.4339,2.3972,2.3318,2.3234,2.2865,2.2132,2.2032,2.201,2.201,2.201,2.2089,2.2197,0.0,0.0,0.0,0.0,0.0,0.0,0.0,0.0,0.0,0.0,0.0,0.0,0.0,0.0,2.1499,2.1907,0.0,2.1998,2.26,0.0,0.0,0.0,2.398,2.388,2.439,2.4701,2.4498,0.0,0.0,2.4317,2.4902,2.5333,2.5395,2.5441,2.5949,2.7226,2.7426,2.7703,2.8288,2.8396,2.8411,2.855,2.8627,2.8873,2.9412,3.0012,3.032,3.0335,3.0299,3.0345,3.0335,3.0136,2.9963,2.9978,2.9644,2.9259,2.8152,2.7855,2.7805,2.7835,2.788,2.791,3.0939,3.0368,2.985,2.9265,2.8696,2.8506,2.8437,2.8437,2.8437,2.842,2.8437,2.8437,2.8437,2.8437,2.8437,2.8523,2.8696,2.8696,2.8799,2.8972,2.8972,2.8972,2.8989,2.8989,2.8972,2.8921,2.8921,2.8938,2.8921,2.8904,2.8904,2.8887,2.8476,2.7638,2.6447,2.6332,2.6266,2.6151,2.6068,2.5749,2.5162,2.4575,2.4206,2.4039,2.3502,2.3134,2.2932,2.2316,2.2044,2.2152,2.2152,2.218,2.2299,2.2282,0.0,0.0,0.0,0.0,0.0,0.0,0.0,0.0,0.0,2.1911,2.1708,0.0,2.2423,0.0,2.2733,2.2946,2.277,2.3385,0.0,0.0,2.4302,2.4634,2.4436,2.4536,2.4549,2.4343,2.4343,2.4359,2.4317,2.4887,2.5518,2.5966,2.6549,2.7011,2.738,2.7857,2.8211,2.8365,2.8427,2.8596,2.9089,2.9627,2.9981,3.0166,3.0335,3.036,3.0376,3.0376,3.0376,3.0376,3.0151,2.9993,3.0038,2.978,2.9559,2.9229,2.9154,2.9101,2.9101,2.9086,2.9086,3.2587,3.2214,3.2242,3.1949,3.1438,3.0093,2.9506,2.9506,2.9506,2.9506,2.9506,2.9506,2.9506,2.9506,2.9506,2.9506,2.9506,2.9506,2.9506,2.9506,2.9506,2.9506,2.9506,2.9506,2.9506,2.9506,2.9506,2.9506,2.9506,2.9506,2.9506,2.9506,2.9472,2.8991,2.8133,2.8015,2.7743,2.7352,2.6962,2.6539,2.6133,2.5695,2.5274,2.4936,2.4517,2.3964,2.3325,2.2853,2.25,2.2259,2.2242,2.2406,2.2784,2.2784,2.2936,0.0,0.0,0.0,0.0,0.0,0.0,0.0,0.0,0.0,0.0,0.0,2.3211,2.2964,2.3442,2.3738,2.3526,2.4143,2.4496,2.4458,2.4768,2.4926,2.4726,2.463,2.4549,2.44,2.4359,2.4425,2.4733,2.5364,2.6057,2.6718,2.7411,2.7842,2.7873,2.8196,2.8411,2.8411,2.8658,2.9089,2.975,3.0428,3.0859,3.0874,3.1105,3.1305,3.1305,3.1305,3.1289,3.1305,3.109,3.0928,3.0888,3.0739,3.0573,3.0462,3.0447,3.0238,2.9714,2.9594,2.9594,3.4088,3.4076,3.4088,3.4088,3.3869,3.1231,3.0093,3.0093,3.0093,3.0093,3.0093,3.0093,3.0093,3.0093,3.0075,3.0093,3.0093,3.0093,3.0041,2.9955,2.9937,2.9886,2.9782,2.9799,2.9799,2.9799,2.9817,2.9782,2.9799,2.9799,2.9782,2.9799,2.9799,2.9799,2.9799,2.9694,2.9161,2.8271,2.7537,2.7111,2.7144,2.701,2.657,2.5924,2.5724,2.5031,2.3778,2.3608,2.3241,2.2632,2.2598,2.2868,2.3494,2.3545,2.3816,0.0,2.4523,0.0,0.0,0.0,0.0,0.0,0.0,0.0,0.0,2.4034,2.3949,2.3807,2.4285,2.4514,2.4372,2.4802,2.5107,2.5091,2.5029,2.4942,2.4822,2.4686,2.4564,2.4498,2.4477,2.4656,2.5226,2.601,2.6765,2.7288,2.7919,2.8319,2.8396,2.8396,2.8442,2.8504,2.9181,2.995,3.0474,3.1089,3.152,3.1582,3.1921,3.2382,3.2321,3.2336,3.2367,3.2367,3.2195,3.2089,3.2038,3.1853,3.1697,3.1507,3.142,3.1106,3.0223,2.9953,2.9834,3.4103,3.4093,3.4086,3.4093,3.4042,3.3473,3.3214,3.3214,3.3214,3.3214,3.3231,3.3214,3.3231,3.3214,3.3231,3.3214,3.3214,3.3231,3.2869,3.2265,3.2248,3.1938,3.1386,3.1369,3.1369,3.1369,3.1369,3.1369,3.1369,3.1369,3.1369,3.1369,3.1369,3.1369,3.1351,0.0,0.0,0.0,2.8305,2.7896,2.7878,2.7299,2.6923,2.6753,2.6156,0.0,2.528,2.4669,2.4265,2.41,2.41,0.0,0.0,0.0,0.0,0.0,0.0,0.0,0.0,0.0,0.0,0.0,2.6101,2.548,2.4149,2.443,2.4903,2.5386,2.5456,2.5394,2.5185,2.5237,2.5201,2.5107,2.5029,2.4926,2.4822,2.4686,2.4605,2.4513,2.4879,2.5164,2.541,2.6411,2.7242,2.7426,2.798,2.8381,2.8411,2.8411,2.8596,2.9166,3.0151,3.0982,3.1182,3.1751,3.2136,3.2228,3.2275,3.2398,3.2398,3.2398,3.2398,3.2398,3.2287,3.2191,3.2135,3.194,3.1799,3.1727,3.1597,3.1407,3.1225,3.115,3.1165,3.5348,3.5296,3.5297,3.5246,0.0,3.518,3.518,3.5128,3.4404,3.4076,3.4076,3.4076,3.4076,3.4076,3.4076,3.4076,3.4076,3.4076,3.3869,3.349,3.3507,3.3283,3.2921,3.2921,3.2921,3.2921,3.2938,3.2921,3.2921,3.2921,3.2714,3.2352,3.2352,3.2162,3.1817,3.18,3.1212,2.9969,2.9197,2.863,2.827,2.7859,2.7449,2.7055,2.6664,0.0,0.0,0.0,0.0,0.0,0.0,0.0,0.0,2.5033,0.0,2.5541,2.5575,2.5744,2.6116,2.6133,2.6286,2.6572,2.6452,2.6047,2.5143,2.5304,2.5579,2.5905,2.5775,2.5663,2.5551,2.5432,2.5317,2.5201,2.5123,2.5005,2.4902,2.4766,2.4786,2.5046,2.5261,2.5592,2.6272,2.6903,2.7519,2.7857,2.8165,2.8411,2.8411,2.8411,2.8735,2.9735,3.0397,3.1151,3.1767,3.2136,3.2382,3.2398,3.2398,3.2398,3.2398,3.2398,3.2398,3.2398,3.2342,3.2287,3.2191,3.2094,3.1996,3.1898,3.1784,3.1655,3.1655,3.1597,3.1467,3.6641,3.652,3.653,3.6471,3.636,3.6343,3.6301,3.6215,3.5007,0.0,0.0,3.4473,3.4473,3.4473,3.4473,3.4473,3.4473,3.4473,3.4404,3.4283,3.4283,3.4214,3.4093,3.4076,3.4076,3.4076,3.4076,3.4076,3.4076,3.4076,3.3749,3.3162,3.3128,3.28,3.2248,3.2214,3.1834,3.1093,3.0196,2.942,2.8834,2.8612,2.8114,2.7358,2.7293,2.6886,2.6133,2.5987,2.5666,2.504,2.4944,2.5184,2.5744,2.5795,2.6048,2.664,2.6708,2.6708,2.6708,2.6708,2.6674,2.6623,2.6452,2.6312,2.6222,2.6115,2.601,2.6026,2.5864,2.5738,2.5701,2.5567,2.5394,2.5333,2.5201,2.5116,2.5179,2.5091,2.5268,2.5753,2.5932,2.6236,2.7211,2.7535,2.775,2.8258,2.8381,2.8411,2.8427,2.855,2.8981,2.992,3.032,3.0828,3.169,3.1951,3.2044,3.1951,3.1982,3.2074,3.2182,3.2213,3.2259,3.2398,3.2398,3.2342,3.2231,3.2191,3.215,3.2053,3.194,3.1841,3.1841,3.1712,3.1597,3.6678,3.6661,3.6661,3.6678,3.6643,3.6502,3.6402,3.6284,3.6077,3.599,3.599,3.599,3.599,3.599,3.599,3.599,3.5973,3.5973,3.5645,3.5042,3.5025,3.4697,3.4093,3.4076,3.4076,3.4076,3.4076,3.4076,3.4076,3.4111,3.4024,3.3938,3.3921,3.3852,3.3766,3.3766,3.3386,3.2576,3.1231,3.0472,3.0368,2.9713,2.8972,2.8282,2.8197,2.7803,2.6982,2.6899,2.68,2.6602,2.657,2.6571,2.6522,2.6522,2.659,2.6674,2.6708,2.6708,2.6708,2.6708,2.6674,2.6623,2.6572,2.6503,2.6312,2.6222,2.6132,2.6026,2.6023,2.5901,2.5738,2.5686,2.5621,2.5426,2.5256,2.5346,2.5909,2.5841,2.6,2.6632,2.7065,2.7302,2.7581,2.7983,2.8242,2.8381,2.8411,2.8411,2.8488,2.8904,2.9289,2.9581,3.0058,3.0458,3.0797,3.072,3.0812,3.0705,3.0782,3.1012,3.1459,3.152,3.172,3.2275,3.2321,3.2351,3.2327,3.2302,3.2191,3.215,3.2038,3.1996,3.194,3.194,3.1811,3.7865,3.7417,3.7416,3.7108,3.6719,3.7061,3.7436,3.7758,3.769,3.7102,3.6318,3.6284,3.6284,3.6284,3.6284,3.6284,3.6284,3.6284,3.6128,3.5818,3.5783,3.5628,3.5301,3.5283,3.5283,3.5283,3.5301,3.5283,3.5283,3.5283,3.5076,3.468,3.43,3.4076,3.4076,3.4076,3.3921,3.3542,3.2455,3.1507,3.0713,3.0351,2.9782,2.9023,2.8627,2.823,2.7803,2.7358,2.707,2.7023,2.6975,2.6909,2.6825,2.6792,2.6792,2.6708,2.6708,2.6708,2.6708,2.708,2.7282,2.7265,2.7582,2.7765,2.7676,2.7128,2.6819,2.673,2.6986,2.718,2.7049,2.6928,2.6772,2.6654,2.6535,2.6558,2.6665,2.6661,2.6819,2.735,2.7637,2.7828,2.8124,2.834,2.8493,2.846,2.8411,2.8411,2.8411,2.8658,2.8996,2.935,2.9689,2.9976,3.0268,3.0376,3.0376,3.0376,3.0376,3.0551,3.0828,3.0859,3.1136,3.169,3.1859,3.1997,3.2275,3.2342,3.2287,3.2302,3.2191,3.2135,3.2094,3.2053,3.1925,3.8924,3.831,3.8257,3.7877,3.73,3.784,3.845,3.8947,3.8877,3.8114,3.7007,3.6861,3.6818,3.6818,3.6801,3.6818,3.6818,3.6818,3.6818,3.6801,3.6646,3.6577,3.6542,3.6404,3.6284,3.6284,3.6284,3.6284,3.6284,3.6284,3.6025,3.5439,3.4869,3.4576,3.4576,3.4594,3.4507,3.4318,3.3731,3.2679,3.1248,3.1024,3.0575,2.9799,2.9213,2.8851,2.8627,2.782,2.7392,2.7343,2.7141,2.6975,2.6909,2.6926,2.6876,2.6775,2.6742,2.6826,2.6979,2.7655,2.8078,2.8095,2.8547,2.8827,2.874,2.8293,2.7864,2.7686,2.7976,2.8196,2.8102,2.8017,2.7891,2.7786,2.768,2.7547,2.754,2.7487,2.7628,2.8099,2.8151,2.8294,2.856,2.8605,2.8541,2.846,2.8411,2.8411,2.8411,2.8411,2.8658,2.8996,2.9196,2.935,2.9889,2.992,2.9904,2.9981,2.992,2.9966,3.0089,3.0197,3.0458,3.1012,3.1336,3.1582,3.2044,3.2305,3.2382,3.2398,3.2287,3.2247,3.2247,3.2206,3.2094,3.928,3.9175,3.9151,3.9073,3.8891,3.8961,3.9041,3.906,3.8981,3.8912,3.8712,3.852,3.837,3.8387,3.8336,3.8284,3.8301,3.837,3.8336,3.8232,3.768,3.7387,3.7301,3.6663,3.6284,3.6318,3.6335,3.6335,3.6284,3.6284,3.6266,3.6197,3.6111,3.6025,3.6059,3.6059,3.5766,3.5111,3.5025,3.4249,3.2783,3.2041,3.1351,3.061,3.0506,3.0127,2.942,2.8696,2.8266,2.8148,2.7514,2.7072,2.7041,2.6992,2.6992,2.7026,2.6943,2.7131,2.7689,2.8433,2.8873,2.8873,2.8975,2.9022,2.8928,2.9383,2.9286,2.8682,2.8472,2.8495,2.8223,2.825,2.8237,2.8103,2.7891,2.7881,2.8351,2.8323,2.8462,2.9085,2.8886,2.8857,2.8795,2.87,2.8589,2.846,2.846,2.846,2.846,2.8411,2.8411,2.8519,2.8519,2.8565,2.8719,2.8611,2.8765,2.8719,2.8642,2.8935,2.9335,2.9535,2.972,3.0366,3.0889,3.1228,3.1597,3.1936,3.2351,3.2398,3.2398,3.2398,3.2382,3.2342,3.2287,4.0385,4.0007,3.9989,4.0007,3.9929,3.9947,4.0149,4.0526,4.0438,4.0393,4.0411,4.0197,3.9621,3.8701,3.8701,3.8684,3.8594,3.8594,3.8594,3.856,3.8267,3.8129,3.8094,3.7836,3.7439,3.7025,3.7008,3.6749,3.6353,3.6284,3.6284,3.6284,3.6284,3.6284,3.6284,3.6284,3.6146,3.5852,3.5404,3.4887,3.4214,3.3059,3.2093,3.1403,3.092,3.0558,3.0162,2.9472,2.9024,2.9007,2.868,2.8475,2.8425,2.8425,2.8408,2.8357,2.8322,2.8424,2.8679,2.9321,2.9712,2.9692,3.0078,3.0277,3.0256,3.0487,3.0448,3.0074,2.9888,2.9769,2.9639,2.9575,2.9486,2.9346,2.9179,2.9124,2.9253,2.9187,2.9214,2.9319,2.9198,2.9059,2.892,2.8811,2.8684,2.8636,2.8589,2.8493,2.8541,2.8444,2.8411,2.8411,2.8411,2.8411,2.8411,2.8411,2.8411,2.8411,2.8411,2.8581,2.8719,2.8827,2.9042,2.9704,3.0089,3.0643,3.132,3.1536,3.1859,3.2151,3.2398,3.2398,3.2398,3.2398,3.2342,4.1288,4.0814,4.0805,4.0805,4.0779,4.0797,4.1095,4.1569,4.1515,4.1471,4.1471,4.1363,4.0662,3.9606,3.9458,3.9396,3.9351,3.9289,3.9306,3.9271,3.9126,3.8995,3.8977,3.8797,3.8451,3.7984,3.7915,3.7638,3.7076,3.6982,3.6982,3.6964,3.6732,3.6628,3.6611,3.6439,3.6284,3.6249,3.5749,3.5387,3.5059,3.4111,3.3076,3.2162,3.1593,3.1214,3.0989,3.0231,2.9834,2.9834,2.9627,2.9472,2.9438,2.9438,2.9385,2.9367,2.9555,2.9622,2.9622,3.0179,3.0568,3.0619,3.1036,3.1269,3.1213,3.1213,3.1173,3.1021,3.0895,3.074,3.0733,3.0568,3.0485,3.0401,3.0231,3.0044,2.9853,2.9798,2.9605,2.9441,2.935,2.9213,2.8967,2.8842,2.8826,2.8794,2.87,2.8636,2.8621,2.8589,2.8508,2.8444,2.8444,2.8444,2.8411,2.8411,2.8411,2.8411,2.8411,2.8411,2.8411,2.8411,2.8442,2.9104,2.9243,2.9627,3.0428,3.0859,3.1597,3.2136,3.2398,3.2398,3.2398,3.2398,3.2398,4.1587,4.1569,4.1569,4.1604,4.1569,4.1587,4.1604,4.1762,4.1692,4.1639,4.1727,4.1648,4.1498,4.1276,4.1168,4.1087,4.1024,4.0937,4.0902,4.085,4.0277,4.0043,3.9991,3.9312,3.8981,3.8912,3.8868,3.8842,3.8773,3.8677,3.8703,3.8633,3.7854,3.7482,3.7379,3.6732,3.6335,3.637,3.6249,3.5904,3.5318,3.5128,3.4352,3.3059,3.28,3.2386,3.1765,3.1024,3.0644,3.0644,2.9989,2.9575,2.9558,2.9575,2.9575,2.954,3.0089,3.0431,3.046,3.0987,3.1359,3.1393,3.1411,3.1423,3.1312,3.1312,3.1274,3.119,3.1055,3.0975,3.0912,3.0773,3.0609,3.051,3.0443,3.0215,3.0017,2.987,2.9782,2.9665,2.9441,2.9259,2.8951,2.8904,2.8889,2.8826,2.8794,2.8779,2.8779,2.8747,2.87,2.8636,2.8589,2.8541,2.846,2.8411,2.8411,2.8411,2.8411,2.8411,2.8411,2.8411,2.8458,2.8565,2.895,2.9319,2.9673,3.0397,3.1413,3.2028,3.2321,3.2382,3.2398,3.2398,3.2398,4.3079,4.3079,4.3061,4.3061,4.3061,4.3079,4.3061,4.3079,4.3079,4.3061,4.3061,4.3061,4.3033,4.3033,4.2969,4.2271,4.1261,4.1209,4.1209,4.1174,4.0913,4.0791,4.0774,4.0495,4.013,3.973,3.9722,3.9434,3.9042,3.8921,3.8938,3.8903,3.8617,3.8434,3.8209,3.7586,3.7162,3.6991,3.6577,3.6163,3.5921,3.5904,3.5387,3.4404,3.3386,3.2783,3.2524,3.18,3.1386,3.1403,3.111,3.0972,3.0972,3.0972,3.0972,3.0953,3.1212,3.1313,3.131,3.1442,3.1559,3.1559,3.1538,3.1462,3.1445,3.1406,3.1368,3.1291,3.1235,3.1157,3.1072,3.0935,3.079,3.0651,3.0526,3.0401,3.0231,3.006,2.987,2.9754,2.9576,2.9366,2.9293,2.9152,2.9106,2.8998,2.8905,2.8905,2.8842,2.8811,2.8794,2.8747,2.8732,2.8747,2.8684,2.8508,2.8411,2.8411,2.8411,2.8411,2.8411,2.8411,2.8442,2.8442,2.8781,2.9073,2.9412,3.0258,3.1243,3.169,3.1982,3.2244,3.2398,3.2398,3.2398,4.3997,4.3997,4.395,4.395,4.3886,4.3886,4.3886,4.3886,4.3886,4.3886,4.3886,4.3886,4.3886,4.3886,4.3886,4.3285,4.2149,4.2096,4.2096,4.2061,4.1806,4.173,4.1677,4.144,4.1101,4.0647,4.0595,4.0315,3.9896,3.9783,3.98,3.98,3.9512,3.9286,3.9138,3.8495,3.7983,3.7551,3.7041,3.6636,3.6412,3.6301,3.6077,3.5456,3.4318,3.3507,3.33,3.2541,3.2162,3.2127,3.1938,3.18,3.18,3.18,3.18,3.18,3.1783,3.18,3.18,3.1726,3.1671,3.1671,3.1596,3.1576,3.1538,3.1538,3.1483,3.1406,3.1351,3.1312,3.1252,3.1095,3.0975,3.0814,3.0651,3.051,3.0459,3.0231,3.019,3.0198,3.0354,3.0236,3.0066,3.0098,2.9909,2.9672,2.9453,2.9343,2.9092,2.8951,2.8873,2.8826,2.8811,2.8826,2.8779,2.8652,2.8541,2.8493,2.846,2.846,2.846,2.846,2.8411,2.8411,2.855,2.8812,2.9366,3.0181,3.0751,3.1213,3.1628,3.1936,3.2151,3.2398,3.2398,4.4297,4.4276,4.4107,4.4202,4.4161,4.4179,4.3974,4.4079,4.4044,4.415,4.422,4.4044,4.4167,4.4027,4.4185,4.3974,4.3875,4.3857,4.3752,4.3576,4.3033,4.277,4.2717,4.2103,4.1735,4.1577,4.1604,4.1587,4.1367,4.1226,4.1216,4.1136,4.048,4.014,4.0078,3.9364,3.8659,3.8051,3.7723,3.7265,3.6624,3.6419,3.6308,3.6146,3.5473,3.4818,3.418,3.3352,3.2921,3.2835,3.23,3.1869,3.1903,3.1903,3.1834,3.1817,3.18,3.18,3.18,3.18,3.18,3.18,3.1783,3.1726,3.1634,3.1617,3.1559,3.15,3.1585,3.153,3.1453,3.1499,3.1399,3.1032,3.0948,3.0825,3.0734,3.0525,3.0543,3.092,3.138,3.1835,3.1646,3.1406,3.1102,3.0655,3.0417,3.0132,2.9577,2.9357,2.9154,2.8967,2.8967,2.8936,2.8873,2.8794,2.8732,2.8621,2.8541,2.8508,2.8493,2.8493,2.8493,2.8444,2.8411,2.8658,2.8919,2.9689,3.0181,3.0643,3.1105,3.1597,3.1905,3.2151,3.2367,4.5846,4.5817,4.5817,4.5835,4.577,4.577,4.5723,4.561,4.561,4.558,4.5501,4.5501,4.5501,4.5501,4.5501,4.5484,4.5501,4.5466,4.494,4.4027,4.3658,4.357,4.3518,4.3289,4.2921,4.2517,4.2429,4.2131,4.171,4.1577,4.1515,4.1445,4.127,4.1059,4.0944,4.028,3.9661,3.9295,3.832,3.7617,3.7339,3.6745,3.6444,3.6409,3.6118,3.5818,3.5559,3.4404,3.3749,3.3714,3.3507,3.3128,3.2679,3.2559,3.2317,3.1869,3.18,3.18,3.18,3.1817,3.1817,3.18,3.18,3.18,3.1746,3.1763,3.1706,3.1699,3.2021,3.2363,3.2298,3.2724,3.2604,3.1847,3.1715,3.185,3.2076,3.2071,3.2001,3.1929,3.2145,3.2166,3.1996,3.1917,3.1838,3.147,3.1262,3.0959,3.0384,3.0145,2.9828,2.934,2.9277,2.9153,2.9045,2.8967,2.8889,2.8795,2.8684,2.8604,2.8589,2.8589,2.8541,2.8541,2.8444,2.8504,2.8765,2.9119,2.9612,3.0135,3.0643,3.112,3.1597,3.1905,3.2121,4.6749,4.6684,4.6702,4.6637,4.659,4.659,4.6542,4.6477,4.6495,4.6429,4.635,4.635,4.6368,4.635,4.635,4.6368,4.6368,4.635,4.5839,4.4941,4.4478,4.4343,4.4273,4.4009,4.3676,4.3307,4.3202,4.2816,4.2078,4.2043,4.192,4.1657,4.1604,4.1542,4.1436,4.1016,4.0648,4.0106,3.8946,3.8161,3.7735,3.7026,3.6585,3.6544,3.6485,3.6402,3.6316,3.5428,3.4823,3.4507,3.4249,3.3835,3.3386,3.3317,3.3128,3.2783,3.2628,3.2559,3.2283,3.2248,3.2059,3.1886,3.18,3.1955,3.211,3.2214,3.2228,3.2603,3.2999,3.3252,3.3203,3.3511,3.356,3.3253,3.279,3.2791,3.3041,3.3184,3.3094,3.2994,3.3116,3.3104,3.2996,3.2948,3.2723,3.2417,3.2224,3.1871,3.134,3.1021,3.0526,3.005,2.9892,2.9687,2.9323,2.9167,2.9044,2.8967,2.8858,2.8794,2.8747,2.87,2.87,2.8636,2.8589,2.8541,2.8709,2.8799,2.9119,2.9643,3.0151,3.0628,3.1105,3.1597,3.189,4.6934,4.6842,4.6795,4.6749,4.6637,4.6637,4.6637,4.6607,4.6637,4.659,4.6572,4.6542,4.659,4.659,4.6542,4.6542,4.659,4.6542,4.6489,4.6141,4.561,4.5198,4.511,4.4665,4.4296,4.4038,4.4021,4.3617,4.2868,4.2756,4.2429,4.1832,4.1692,4.1604,4.1542,4.1587,4.1218,4.056,3.9651,3.8881,3.8139,3.7271,3.6737,3.6719,3.6684,3.6585,3.6509,3.6347,3.5994,3.5307,3.4697,3.4352,3.418,3.4145,3.4128,3.3921,3.4024,3.3611,3.3128,3.2972,3.2731,3.2231,3.2196,3.2196,3.2852,3.299,3.3197,3.3749,3.4042,3.4105,3.4008,3.4174,3.4408,3.4753,3.4151,3.3651,3.3352,3.3807,3.3989,3.4018,3.4341,3.4642,3.4332,3.4349,3.4022,3.3582,3.3242,3.2821,3.2271,3.1853,3.1389,3.1005,3.0667,3.0238,2.9826,2.9353,2.9275,2.9213,2.9091,2.9014,2.8889,2.8826,2.8794,2.8732,2.8684,2.8636,2.862,2.8726,2.8799,2.92,2.9693,3.012,3.0658,3.1213,3.1767,4.7133,4.7088,4.6998,4.6934,4.6888,4.6888,4.6842,4.6749,4.6731,4.6684,4.6637,4.659,4.6637,4.659,4.659,4.659,4.6637,4.6637,4.659,4.6572,4.6365,4.6212,4.6194,4.5982,4.5558,4.5152,4.5,4.4629,4.3744,4.3286,4.2836,4.2482,4.1903,4.1622,4.1604,4.1604,4.1534,4.1236,4.0533,3.9736,3.894,3.8093,3.7365,3.6823,3.6725,3.6684,3.6643,3.6643,3.6492,3.6101,3.5852,3.5456,3.4973,3.4904,3.4714,3.43,3.4145,3.4042,3.3852,3.3783,3.3662,3.3524,3.3317,3.3576,3.3714,3.3783,3.3886,3.418,3.4525,3.4904,3.4932,3.5294,3.5683,3.5745,3.5335,3.4972,3.4863,3.4992,3.5052,3.4994,3.5035,3.4961,3.4835,3.4771,3.4657,3.4331,3.4087,3.3843,3.3255,3.2899,3.2545,3.1754,3.1239,3.0808,3.0284,2.979,2.946,2.9428,2.9382,2.9229,2.9091,2.8936,2.8858,2.8779,2.8779,2.8716,2.8732,2.8777,2.89,2.8943,2.9299,2.9809,3.0418,3.0982,3.1651,4.6298,4.6316,4.6551,4.665,4.6731,4.6972,4.7116,4.7007,4.698,4.6934,4.6824,4.6795,4.6795,4.6795,4.6778,4.6795,4.6778,4.6778,4.6778,4.6795,4.676,4.6666,4.6619,4.6572,4.6342,4.6023,4.5953,4.5464,4.4763,4.4251,4.3711,4.2978,4.2458,4.2071,4.1692,4.1692,4.1648,4.1464,4.0867,4.0235,3.9779,3.8649,3.7907,3.7306,3.7056,3.6806,3.6766,3.6742,3.662,3.6502,3.6385,3.6195,3.5814,3.5704,3.5456,3.5025,3.5007,3.4904,3.4594,3.4542,3.4404,3.4145,3.4076,3.4266,3.4456,3.4559,3.4594,3.5076,3.5439,3.5611,3.5714,3.6059,3.6241,3.6174,3.6036,3.5878,3.5656,3.5515,3.552,3.5383,3.5337,3.5245,3.5088,3.5088,3.4994,3.4883,3.4673,3.4427,3.41,3.3954,3.3612,3.2751,3.215,3.1765,3.1137,3.0545,2.9971,2.9846,2.9563,2.9473,2.9305,2.9106,2.9029,2.8951,2.8905,2.8858,2.8873,2.8826,2.8809,2.8933,2.9166,2.949,3.0072,3.0763,3.1411,4.5024,4.5072,4.5773,4.6079,4.6169,4.6762,4.6952,4.7132,4.7008,4.7071,4.716,4.707,4.7025,4.7043,4.7025,4.7043,4.7007,4.7007,4.7025,4.7025,4.7007,4.6916,4.6778,4.6684,4.6649,4.6578,4.6602,4.6247,4.5698,4.5521,4.4731,4.3713,4.3253,4.2687,4.2141,4.1929,4.1754,4.1587,4.1086,4.0647,4.019,3.9076,3.8246,3.7877,3.7246,3.6926,3.6829,3.6766,3.6725,3.6742,3.6585,3.6527,3.6451,3.6367,3.6291,3.6205,3.6143,3.5935,3.5497,3.5341,3.5134,3.4628,3.4473,3.4576,3.5145,3.5318,3.5525,3.5973,3.6249,3.618,3.6197,3.6284,3.6259,3.6208,3.6208,3.6096,3.5905,3.5728,3.5639,3.5537,3.5446,3.5383,3.5337,3.5291,3.5291,3.5088,3.5041,3.4911,3.4731,3.457,3.4244,3.3724,3.3217,3.281,3.2079,3.132,3.0742,3.034,2.9855,2.9637,2.9486,2.9335,2.9259,2.9167,2.9091,2.9029,2.8982,2.8936,2.8873,2.8857,2.8997,2.9309,2.9713,3.0472,3.1187,4.517,4.5088,4.5204,4.5252,4.5288,4.5432,4.5863,4.6421,4.6457,4.6798,4.7168,4.7214,4.7232,4.7214,4.7232,4.7232,4.7232,4.7232,4.7232,4.7214,4.7214,4.7214,4.7098,4.7025,4.6934,4.6934,4.6934,4.6735,4.6458,4.596,4.5443,4.4918,4.3749,4.3032,4.2758,4.2175,4.1945,4.1866,4.1586,4.1155,4.0591,3.9645,3.8743,3.8146,3.7391,3.7005,3.6987,3.6948,3.6948,3.6869,3.6766,3.6643,3.6643,3.6602,3.6602,3.6602,3.6602,3.6457,3.6295,3.6132,3.6074,3.5773,3.5669,3.5887,3.599,3.6008,3.6094,3.6284,3.6284,3.6284,3.6284,3.6284,3.6301,3.6259,3.6276,3.6233,3.6122,3.5993,3.5861,3.5773,3.5684,3.5639,3.5475,3.5492,3.5446,3.5337,3.5291,3.5245,3.5198,3.5088,3.4795,3.4372,3.4044,3.3614,3.2961,3.2151,3.152,3.1071,3.0595,3.0101,2.9935,2.9749,2.9707,2.9523,2.9321,2.9259,2.9167,2.9106,2.9045,2.8982,2.8905,2.9249,2.964,3.0295,3.0869,4.4284,4.4243,4.4603,4.4726,4.478,4.5124,4.554,4.5956,4.6277,4.6597,4.6927,4.7209,4.7363,4.7302,4.732,4.732,4.732,4.7363,4.7407,4.7468,4.7511,4.7511,4.745,4.7338,4.7205,4.716,4.716,4.7098,4.6927,4.6597,4.6239,4.5677,4.4458,4.365,4.3137,4.2463,4.2048,4.2005,4.1945,4.1672,4.117,4.0405,3.9341,3.828,3.7488,3.7048,3.7027,3.697,3.697,3.6987,3.6908,3.6806,3.6766,3.6725,3.6702,3.6719,3.6719,3.6702,3.6602,3.6602,3.6544,3.6485,3.6444,3.6402,3.6343,3.6343,3.6284,3.6284,3.6284,3.6284,3.6284,3.6284,3.6284,3.6284,3.6284,3.6301,3.6233,3.6165,3.6036,3.5932,3.5888,3.5861,3.579,3.5656,3.5656,3.5594,3.5429,3.54,3.5337,3.5291,3.5198,3.4905,3.4722,3.4326,3.3736,3.302,3.229,3.1921,3.1606,3.112,3.0766,3.0486,3.0206,2.9878,2.9502,2.9428,2.9366,2.9275,2.9213,2.9167,2.9138,2.9281,2.9643,3.035,3.0835,4.3232,4.3251,4.3944,4.4236,4.4345,4.4891,4.5237,4.551,4.5997,4.6132,4.649,4.7114,4.7229,4.7252,4.7414,4.7432,4.7432,4.7536,4.7681,4.7741,4.7723,4.7723,4.7681,4.7639,4.7536,4.7389,4.7302,4.7258,4.7276,4.7284,4.6811,4.6183,4.5405,4.4568,4.3636,4.2828,4.2341,4.2168,4.2072,4.2012,4.1775,4.1085,3.9911,3.851,3.757,3.7143,3.7105,3.7066,3.7048,3.7009,3.7027,3.6948,3.6869,3.6806,3.6742,3.6742,3.6783,3.6766,3.6725,3.6684,3.6684,3.6684,3.6602,3.6544,3.6502,3.6444,3.6385,3.6402,3.636,3.6343,3.6284,3.6284,3.6284,3.6284,3.6284,3.6284,3.6284,3.6233,3.6165,3.6079,3.6036,3.5993,3.5949,3.5861,3.5861,3.5817,3.5656,3.5537,3.5492,3.5492,3.5429,3.5354,3.5107,3.4977,3.4451,3.3839,3.3077,3.2805,3.2554,3.2065,3.1593,3.1377,3.0953,3.0012,2.9637,2.9608,2.9563,2.9457,2.9396,2.935,2.9337,2.9356,2.9801,3.037,3.0826,4.3356,4.3286,4.3378,4.3397,4.3433,4.3579,4.4071,4.4545,4.4819,4.5164,4.5818,4.6564,4.687,4.7015,4.7616,4.7834,4.7816,4.7911,4.7951,4.7951,4.7951,4.797,4.797,4.7951,4.7911,4.777,4.756,4.7389,4.7363,4.7284,4.7237,4.6942,4.6295,4.5462,4.4612,4.3912,4.3005,4.2435,4.2323,4.2222,4.1943,4.1221,4.017,3.8677,3.7789,3.7365,3.7259,3.722,3.7203,3.7108,3.7069,3.7048,3.6987,3.6948,3.6948,3.6908,3.6908,3.6869,3.6788,3.6788,3.6766,3.6684,3.6684,3.6661,3.6643,3.6643,3.6602,3.6544,3.6502,3.6444,3.6284,3.6326,3.6301,3.6301,3.6284,3.6284,3.6301,3.6259,3.6251,3.6148,3.6165,3.6122,3.6079,3.6036,3.5993,3.5949,3.5861,3.579,3.5745,3.5701,3.5656,3.5566,3.5429,3.5333,3.514,3.4538,3.3913,3.3706,3.3433,3.29,3.2541,3.2311,3.1782,3.1001,3.0222,2.9895,2.9774,2.9653,2.9531,2.9531,2.9502,2.9473,2.9987,3.0577,3.1148,4.36,4.3566,4.3532,4.3516,4.3516,4.3516,4.3718,4.4121,4.4544,4.4875,4.5352,4.5974,4.6377,4.6559,4.7181,4.7769,4.8137,4.8247,4.8267,4.8288,4.8288,4.8306,4.8306,4.8267,4.819,4.8111,4.787,4.7705,4.7705,4.7687,4.756,4.7313,4.6717,4.59,4.5024,4.4173,4.3378,4.2745,4.2508,4.2432,4.2279,4.152,4.0388,3.9327,3.8365,3.7777,3.7332,3.7297,3.7241,3.7203,3.7203,3.7164,3.7182,3.7143,3.7105,3.7027,3.7009,3.697,3.6891,3.6908,3.6908,3.6869,3.6806,3.6766,3.6725,3.6725,3.6702,3.6702,3.6661,3.6602,3.652,3.6444,3.6402,3.6402,3.636,3.6301,3.6284,3.6284,3.6259,3.6216,3.6216,3.6233,3.6191,3.6148,3.6122,3.6079,3.6019,3.5975,3.5905,3.5905,3.5878,3.5773,3.5656,3.5566,3.5458,3.5093,3.469,3.4516,3.4292,3.3801,3.3539,3.3354,3.2873,3.216,3.1424,3.0724,3.0114,2.9978,2.9814,2.9726,2.9714,2.9858,3.0252,3.0735,3.1454,4.3356,4.3356,4.3305,4.3305,4.3342,4.3509,4.3527,4.3712,4.4361,4.4641,4.4736,4.5401,4.5789,4.5938,4.6563,4.7371,4.8237,4.82,4.8292,4.855,4.855,4.8587,4.855,4.8532,4.8438,4.8344,4.8267,4.8169,4.7951,4.7951,4.787,4.757,4.6948,4.6087,4.5188,4.4411,4.3538,4.294,4.2688,4.2631,4.2411,4.174,4.0853,3.9911,3.9088,3.8305,3.7536,3.741,3.7372,3.7317,3.7317,3.7297,3.7297,3.7297,3.722,3.7105,3.7066,3.7066,3.7009,3.7009,3.7009,3.6987,3.6908,3.6869,3.6829,3.6806,3.6766,3.6742,3.6725,3.6702,3.6661,3.6602,3.6561,3.6544,3.6444,3.6385,3.6343,3.6343,3.6343,3.6301,3.6284,3.6301,3.6276,3.6259,3.6191,3.6191,3.6148,3.6122,3.6079,3.6036,3.5993,3.5932,3.5844,3.5773,3.5684,3.5611,3.5296,3.5183,3.5043,3.4751,3.4521,3.4404,3.3818,3.3222,3.2746,3.2062,3.1215,3.0412,3.0288,3.0173,3.0092,3.0259,3.0671,3.1323,3.2128,4.1846,4.1865,4.1675,4.1575,4.1773,4.24,4.2678,4.2788,4.3597,4.3952,4.397,4.4746,4.5152,4.5376,4.5967,4.676,4.7331,4.7607,4.7847,4.8253,4.8382,4.8364,4.8512,4.8569,4.8328,4.8218,4.8292,4.8344,4.8004,4.7907,4.7995,4.7755,4.7095,4.6273,4.5306,4.4592,4.3849,4.3027,4.2844,4.2786,4.2523,4.1854,4.1079,4.0179,3.9479,3.8635,3.781,3.7613,3.7559,3.7429,3.7392,3.7354,3.7334,3.7297,3.7297,3.7276,3.7259,3.722,3.7108,3.7108,3.7069,3.7066,3.7027,3.697,3.6948,3.6948,3.6869,3.6788,3.6788,3.6788,3.6742,3.6702,3.6661,3.6643,3.6643,3.6544,3.6502,3.6502,3.6444,3.6402,3.6385,3.6385,3.636,3.6301,3.6301,3.6301,3.6276,3.6233,3.6208,3.6165,3.6122,3.6062,3.6019,3.5932,3.5861,3.5773,3.5728,3.5701,3.5577,3.547,3.5239,3.5004,3.4779,3.4203,3.3812,3.3206,3.2254,3.15,3.098,3.0828,3.0915,3.1013,3.1176,3.1908,3.2741,4.0933,4.1706,4.1601,4.1582,4.1638,4.1962,4.2121,4.2289,4.2995,4.3348,4.3515,4.424,4.4835,4.5231,4.5709,4.6248,4.6861,4.6977,4.7159,4.7478,4.7571,4.7553,4.7445,4.7429,4.7448,4.7437,4.7291,4.7093,4.7224,4.7848,4.8179,4.7551,4.7128,4.621,4.5223,4.4618,4.3925,4.3305,4.305,4.3013,4.279,4.2389,4.1629,4.0382,3.9931,3.9067,3.8133,3.7792,3.7757,3.7667,3.7667,3.7667,3.7649,3.7649,3.7594,3.754,3.754,3.7429,3.7241,3.7203,3.7164,3.7164,3.7182,3.7143,3.7087,3.7027,3.6987,3.6891,3.6908,3.6908,3.6829,3.6806,3.6766,3.6766,3.6725,3.6702,3.6643,3.6643,3.6602,3.6544,3.6502,3.6502,3.6461,3.6402,3.6343,3.6301,3.6301,3.6259,3.6276,3.6216,3.6191,3.6122,3.6122,3.6062,3.5975,3.5888,3.5888,3.5905,3.5861,3.5756,3.5667,3.5487,3.5228,3.5138,3.4891,3.4147,3.3238,3.2623,3.211,3.1973,3.1885,3.2039,3.2253,3.2548,3.3274,4.0209,4.1247,4.1231,4.1185,4.1222,4.1409,4.1502,4.1595,4.2352,4.2799,4.322,4.393,4.4659,4.5069,4.5207,4.5599,4.6346,4.6396,4.6564,4.6638,4.6663,4.6725,4.6824,4.6717,4.6666,4.6405,4.668,4.6595,4.6839,4.727,4.7605,4.7039,4.6526,4.5865,4.4948,4.4308,4.3833,4.3359,4.3232,4.316,4.3105,4.2995,4.1959,4.0999,4.0239,3.959,3.8274,3.7951,3.7951,3.7916,3.7864,3.7864,3.7846,3.7828,3.781,3.7721,3.7739,3.7667,3.7484,3.741,3.7352,3.7297,3.7297,3.7259,3.7164,3.7087,3.7048,3.6992,3.7009,3.7009,3.6987,3.6908,3.6869,3.6869,3.6829,3.6766,3.6742,3.6725,3.6684,3.6661,3.6602,3.6661,3.6602,3.6502,3.6444,3.6343,3.6343,3.6284,3.6284,3.6301,3.6259,3.6191,3.6191,3.6174,3.6148,3.6062,3.6062,3.6019,3.6019,3.5993,3.5861,3.58,3.5654,3.5677,3.5639,3.5256,3.4452,3.3849,3.3265,3.2884,3.2669,3.3094,3.3412,3.362,3.3775,3.9746,3.9811,3.9664,3.9661,3.9735,4.0363,4.068,4.0782,4.1567,4.2333,4.2987,4.3847,4.4288,4.4408,4.4568,4.4931,4.5574,4.5574,4.5941,4.6358,4.6676,4.6452,4.6396,4.6346,4.6458,4.6445,4.6246,4.6283,4.6538,4.6382,4.6535,4.6242,4.578,4.5247,4.4715,4.4202,4.3842,4.3497,4.341,4.3286,4.3251,4.3069,4.2358,4.1174,4.063,4.0011,3.8401,3.8171,3.8086,3.8018,3.802,3.7969,3.8003,3.8003,3.7951,3.7916,3.7881,3.7846,3.7739,3.7594,3.7392,3.7334,3.7297,3.7297,3.7241,3.7259,3.7203,3.7108,3.7126,3.7087,3.7048,3.697,3.697,3.697,3.6948,3.6886,3.6846,3.6846,3.6806,3.6742,3.6742,3.6783,3.6742,3.6667,3.6544,3.6485,3.6402,3.6343,3.6343,3.6343,3.6284,3.6259,3.6259,3.6241,3.6259,3.6216,3.6191,3.6148,3.6105,3.6062,3.5975,3.5975,3.5975,3.5932,3.5861,3.5749,3.5603,3.4861,3.4172,3.3587,3.3472,3.3951,3.4239,3.4316,3.4407,3.9758,3.9689,3.9599,3.9594,3.9607,3.9902,4.0034,4.0184,4.0917,4.1743,4.2551,4.3359,4.3818,4.3904,4.4327,4.4618,4.4918,4.488,4.5161,4.5236,4.5367,4.5338,4.5308,4.5383,4.526,4.5305,4.5256,4.5219,4.5163,4.5398,4.5207,4.4978,4.5069,4.4781,4.4397,4.4073,4.3826,4.3719,4.3634,4.3566,4.3532,4.3336,4.2606,4.1159,4.086,3.9969,3.8627,3.8354,3.8285,3.8252,3.8204,3.8204,3.8189,3.8171,3.8138,3.8122,3.8088,3.8002,3.7933,3.7792,3.7667,3.754,3.7429,3.7354,3.7392,3.7334,3.7279,3.7241,3.7203,3.7203,3.7164,3.7126,3.7069,3.7048,3.7048,3.6987,3.6948,3.6948,3.6908,3.6886,3.6886,3.6908,3.6886,3.6806,3.6708,3.6626,3.6502,3.6402,3.6402,3.6343,3.6343,3.6284,3.6284,3.6284,3.6284,3.6259,3.6233,3.6233,3.6191,3.6148,3.6105,3.6122,3.6122,3.6079,3.6019,3.5941,3.5786,3.5545,3.5091,3.4587,3.46,3.4897,3.504,3.4998,3.4941,3.9908,3.9804,3.9807,3.9762,3.9712,3.9708,3.9708,3.9802,4.033,4.1089,4.1895,4.2706,4.3127,4.3328,4.3905,4.4237,4.4342,4.4465,4.4551,4.4664,4.4701,4.4542,4.4496,4.4571,4.474,4.4411,4.4411,4.4524,4.4627,4.4449,4.4533,4.4691,4.4722,4.455,4.4309,4.4011,4.3934,4.3902,4.3851,4.3818,4.3771,4.3284,4.2643,4.1232,4.0785,3.9946,3.8957,3.8559,3.8528,3.8496,3.8446,3.8396,3.8415,3.8415,3.8368,3.8303,3.8238,3.8168,3.8086,3.7967,3.7846,3.7721,3.7649,3.7577,3.754,3.7466,3.7429,3.741,3.7372,3.7334,3.7334,3.7203,3.7164,3.7164,3.7182,3.7143,3.7105,3.7066,3.7048,3.7009,3.7009,3.6987,3.6948,3.6908,3.6806,3.6725,3.6643,3.6544,3.6544,3.6485,3.6385,3.6343,3.6343,3.6301,3.6284,3.6301,3.6259,3.6259,3.6259,3.6276,3.6233,3.6251,3.6208,3.6191,3.6148,3.6105,3.5968,3.5839,3.5759,3.5644,3.5588,3.5431,3.5345,3.527,3.5224,4.0095,4.0096,4.0095,3.993,3.9735,3.9689,3.9712,3.9735,3.9849,4.0321,4.1113,4.1906,4.224,4.2448,4.3171,4.3511,4.3655,4.4165,4.4384,4.429,4.4357,4.4553,4.461,4.4565,4.4632,4.4685,4.4659,4.4632,4.4659,4.4632,4.4605,4.4578,4.4618,4.4514,4.4285,4.4285,4.4195,4.4036,4.4005,4.3947,4.3754,4.3135,4.2234,4.1422,4.0603,3.9761,3.9061,3.8762,3.8713,3.8713,3.8603,3.8572,3.8541,3.8528,3.8465,3.8465,3.8433,3.8382,3.835,3.8088,3.7951,3.7881,3.7846,3.781,3.7828,3.7775,3.7649,3.7594,3.7503,3.741,3.7372,3.7314,3.7297,3.7297,3.7259,3.722,3.7182,3.7164,3.7126,3.7126,3.7066,3.7027,3.7027,3.6987,3.6886,3.6823,3.6742,3.6702,3.6684,3.6602,3.6485,3.6485,3.6444,3.6402,3.6385,3.6343,3.6301,3.6284,3.6284,3.6301,3.6301,3.6259,3.6259,3.6259,3.6216,3.6174,3.6191,3.6148,3.6036,3.5905,3.5817,3.5711,3.5628,3.5492,3.5475,4.0196,4.0177,4.0158,4.0118,4.0017,3.9994,3.9973,3.9954,3.9973,4.0125,4.0523,4.1244,4.1604,4.1848,4.2393,4.2825,4.2896,4.2843,4.3101,4.3234,4.3662,4.3844,4.3995,4.4322,4.4624,4.4693,4.4693,4.4624,4.4685,4.4643,4.4674,4.464,4.4613,4.4496,4.4373,4.4285,4.4237,4.4226,4.4195,4.4147,4.4023,4.3237,4.234,4.1553,4.0667,3.9756,3.9071,3.8939,3.8892,3.8892,3.8803,3.8755,3.8773,3.8713,3.8713,3.8713,3.8683,3.8572,3.8478,3.8285,3.8171,3.8104,3.8002,3.7985,3.7899,3.7864,3.7828,3.7775,3.7739,3.7667,3.7613,3.7521,3.7484,3.7372,3.7334,3.7297,3.7259,3.7241,3.7241,3.7241,3.722,3.7126,3.7087,3.7105,3.7027,3.6926,3.6886,3.6806,3.6748,3.6684,3.6661,3.6643,3.6602,3.6544,3.6461,3.6444,3.6402,3.6343,3.6343,3.6284,3.6284,3.6284,3.6284,3.6284,3.6301,3.6301,3.6259,3.6233,3.6191,3.6105,3.6036,3.5949,3.5817,3.5745,3.5684,4.0309,4.0252,4.0269,4.027,4.0253,4.0157,4.0096,4.0096,4.0096,4.0096,4.0229,4.0667,4.0876,4.1123,4.1673,4.2085,4.2104,4.236,4.2431,4.2465,4.2915,4.3161,4.3407,4.3686,4.3729,4.3988,4.4026,4.4013,4.4316,4.4372,4.4537,4.472,4.4726,4.464,4.4524,4.4468,4.444,4.4411,4.4383,4.4344,4.3949,4.3247,4.2238,4.1501,4.0626,3.9621,3.9287,3.911,3.9036,3.9054,3.9026,3.9007,3.8979,3.895,3.8939,3.891,3.8833,3.8743,3.8664,3.8603,3.8496,3.8368,3.8219,3.8138,3.8054,3.8036,3.7967,3.7933,3.7916,3.7846,3.7775,3.7703,3.7667,3.7558,3.7521,3.7484,3.7429,3.7429,3.7354,3.7372,3.7334,3.7241,3.7203,3.7164,3.7126,3.7066,3.6987,3.693,3.6851,3.6806,3.6742,3.6725,3.6725,3.6643,3.6602,3.6585,3.6502,3.6461,3.6402,3.6385,3.6343,3.636,3.6343,3.6284,3.6301,3.6301,3.6284,3.6241,3.6259,3.6216,3.6191,3.6105,3.6019,3.5949,3.5861,4.0319,4.0356,4.0342,4.0326,4.0321,4.0177,4.0118,4.0117,4.0117,4.0137,4.0156,4.0175,4.0309,4.0346,4.0954,4.1279,4.1374,4.2001,4.2153,4.2322,4.2395,4.2493,4.2585,4.2756,4.3019,4.2832,4.2851,4.3339,4.371,4.3703,4.4079,4.4664,4.4605,4.4669,4.4676,4.4719,4.464,4.4578,4.4524,4.4402,4.3952,4.2782,4.2052,4.1295,4.0371,3.9634,3.9354,3.9328,3.9328,3.932,3.9275,3.9202,3.9101,3.9017,3.8979,3.8968,3.8921,3.8921,3.8892,3.8862,3.8792,3.864,3.8528,3.8446,3.8318,3.8186,3.8153,3.8086,3.807,3.7985,3.7899,3.7899,3.7899,3.7864,3.7828,3.7793,3.7685,3.7649,3.754,3.7503,3.741,3.7354,3.7279,3.7279,3.7279,3.722,3.7143,3.7087,3.7009,3.6891,3.6829,3.6846,3.6806,3.6742,3.6684,3.6684,3.6643,3.6544,3.6544,3.6502,3.6461,3.6461,3.6402,3.6385,3.6343,3.6301,3.6284,3.6284,3.6284,3.6259,3.6259,3.6233,3.6148,3.6062,3.5975,3.8747,3.8821,3.9374,3.961,3.97,4.0159,4.036,4.0308,4.0308,4.0308,4.0308,4.0308,4.029,4.0346,4.0557,4.0672,4.0768,4.0826,4.0864,4.1132,4.1628,4.176,4.1988,4.2274,4.254,4.2576,4.2593,4.2593,4.2895,4.2971,4.3409,4.3992,4.4102,4.4387,4.4687,4.4953,4.4732,4.4606,4.4497,4.4256,4.371,4.2603,4.1882,4.1073,4.0196,3.9614,3.9471,3.9439,3.9432,3.9399,3.9373,3.9328,3.932,3.9293,3.9266,3.9266,3.9193,3.9101,3.9045,3.9007,3.8939,3.8881,3.8792,3.8621,3.8478,3.8382,3.8318,3.8303,3.8238,3.8171,3.807,3.807,3.8036,3.7985,3.8003,3.7951,3.7863,3.7828,3.7721,3.7667,3.7594,3.7521,3.7429,3.7392,3.7392,3.7334,3.7259,3.7203,3.7164,3.7009,3.693,3.693,3.6908,3.6886,3.6806,3.6788,3.6725,3.6684,3.6643,3.6643,3.6602,3.6585,3.6544,3.6485,3.6444,3.6343,3.6284,3.6284,3.6343,3.6284,3.6284,3.6259,3.6233,3.6148,3.6122,3.8122,3.8189,3.8621,3.8826,3.8965,3.9702,4.0042,4.0053,4.031,4.0447,4.0427,4.0427,4.0427,4.0447,4.0466,4.0468,4.0435,4.0475,4.0496,4.0632,4.0862,4.0997,4.1323,4.1552,4.1609,4.1781,4.1857,4.18,4.218,4.2658,4.3097,4.3384,4.342,4.3704,4.3952,4.3967,4.3958,4.3976,4.3994,4.395,4.334,4.2427,4.1566,4.0962,4.0085,3.9717,3.9575,3.9526,3.9539,3.9533,3.9533,3.9508,3.9483,3.9432,3.9406,3.938,3.9328,3.9275,3.9221,3.9175,3.911,3.9054,3.9007,3.8862,3.8713,3.859,3.8528,3.8515,3.8433,3.835,3.8267,3.8201,3.8153,3.8104,3.8104,3.8088,3.8054,3.8002,3.7951,3.7881,3.781,3.7739,3.7667,3.7577,3.7503,3.7503,3.7429,3.7317,3.7279,3.722,3.7087,3.7048,3.7009,3.7027,3.6948,3.6908,3.6869,3.6829,3.6748,3.6748,3.6725,3.6684,3.6643,3.6585,3.6527,3.6444,3.6385,3.6385,3.6385,3.6343,3.6326,3.6301,3.6259,3.6276,3.6251,3.7932,3.7861,3.799,3.8102,3.8247,3.9,3.9309,3.9372,3.9928,4.0385,4.0466,4.0504,4.0523,4.0504,4.0504,4.0489,4.0473,4.0457,4.0441,4.0432,4.0526,4.0622,4.0603,4.049,4.0875,4.0607,4.0607,4.1146,4.1662,4.2027,4.2334,4.2793,4.2737,4.291,4.3139,4.3158,4.3174,4.3207,4.3276,4.3228,4.2913,4.2052,4.1071,4.0844,4.0272,3.9754,3.9735,3.9712,3.9712,3.9712,3.9689,3.9665,3.9594,3.9521,3.9471,3.9446,3.9439,3.9406,3.938,3.9335,3.9301,3.9229,3.9156,3.9092,3.8997,3.8792,3.8701,3.867,3.8621,3.8559,3.8478,3.8415,3.8368,3.8285,3.8252,3.8238,3.8171,3.8119,3.8104,3.8036,3.7933,3.7863,3.7775,3.7703,3.7685,3.7649,3.7613,3.7503,3.7429,3.7354,3.7279,3.7203,3.7126,3.7126,3.7105,3.7066,3.7009,3.6987,3.6908,3.6811,3.6829,3.6806,3.6702,3.6684,3.6626,3.6585,3.6544,3.6502,3.6502,3.6444,3.6385,3.6343,3.6301,3.6335,3.6276,3.6299,3.6357,3.6987,3.7635,3.8244,3.8476,3.8573,3.8554,3.8736,3.9509,4.0414,4.0535,4.0535,4.0477,4.0574,4.0579,4.0559,4.0564,4.0564,4.0549,4.0549,4.0534,4.0549,4.0539,4.0543,4.0527,4.055,4.0611,4.0938,4.1207,4.1459,4.1944,4.1967,4.2139,4.2601,4.2603,4.2603,4.2508,4.2317,4.218,4.1848,4.1616,4.1041,4.0566,3.9994,3.9973,3.9933,3.9911,3.9848,3.9804,3.9781,3.9735,3.9647,3.9623,3.9642,3.9618,3.9594,3.9564,3.9514,3.9471,3.9439,3.9399,3.9328,3.932,3.9239,3.8997,3.8851,3.8851,3.8792,3.8743,3.8683,3.8621,3.859,3.8528,3.8446,3.8382,3.8318,3.8285,3.8219,3.8153,3.8068,3.7984,3.7951,3.7881,3.7846,3.7846,3.781,3.7775,3.7649,3.7577,3.7484,3.7392,3.7279,3.7241,3.722,3.7182,3.7143,3.7126,3.7048,3.7009,3.697,3.6908,3.6886,3.6806,3.6725,3.6725,3.6684,3.6643,3.6602,3.6544,3.6502,3.6444,3.6454,3.6488,3.6377,3.5782,3.5812,3.626,3.6745,3.7211,3.7599,3.7754,3.7832,3.8123,3.8771,3.9576,3.9939,4.014,4.0275,4.0507,4.063,4.063,4.0694,4.0662,4.0662,4.0642,4.0642,4.0648,4.0635,4.0646,4.0631,4.0583,4.0569,4.0549,4.0626,4.0958,4.1216,4.1293,4.1489,4.1937,4.1918,4.1956,4.1805,4.1385,4.1126,4.0941,4.0826,4.0692,4.0215,4.0138,4.0118,4.0077,4.0057,3.9996,3.9954,3.9954,3.9933,3.9889,3.9848,3.9804,3.9781,3.9735,3.9712,3.9642,3.9594,3.957,3.9533,3.9458,3.9439,3.9413,3.9183,3.9064,3.9054,3.8939,3.8892,3.8833,3.8773,3.8743,3.8713,3.8683,3.8634,3.851,3.8433,3.835,3.8285,3.8252,3.8219,3.8119,3.8018,3.7984,3.7967,3.7967,3.7881,3.7828,3.7774,3.7685,3.7558,3.7466,3.7317,3.7259,3.7259,3.7259,3.722,3.7203,3.7164,3.7126,3.7105,3.7027,3.6948,3.6908,3.6829,3.6846,3.6806,3.6742,3.6643,3.6602,3.6602,3.6648,3.678,3.697,3.5748,3.5791,3.5826,3.5826,3.5924,3.6623,3.6953,3.705,3.7664,3.7935,3.8101,3.886,3.9266,3.9712,4.01,4.0427,4.0571,4.0394,4.0479,4.0718,4.0725,4.0706,4.0706,4.0706,4.07,4.0707,4.0662,4.0629,4.0629,4.0648,4.0648,4.0635,4.0635,4.064,4.0621,4.0646,4.0829,4.0915,4.0731,4.0585,4.0444,4.0358,4.0308,4.0253,4.0215,4.0196,4.0157,4.0157,4.0157,4.0118,4.0098,4.0057,4.0036,3.9996,3.9973,3.9933,3.9889,3.9826,3.9758,3.9735,3.9712,3.9689,3.9575,3.9526,3.9502,3.9446,3.9335,3.9229,3.912,3.9054,3.8979,3.8921,3.8921,3.8892,3.8862,3.8833,3.8683,3.8559,3.8528,3.8465,3.8433,3.8415,3.8318,3.8201,3.8168,3.8119,3.8052,3.7967,3.7916,3.7898,3.7845,3.7757,3.7667,3.7521,3.741,3.7372,3.741,3.7372,3.7372,3.7334,3.7259,3.722,3.7182,3.7126,3.7087,3.7027,3.6987,3.6948,3.6846,3.6766,3.6725,3.6737,3.7154,3.738,3.7773,3.5263,3.5878,3.5872,3.5872,3.5891,3.6086,3.6144,3.6163,3.6319,3.6358,3.6708,3.7257,3.7875,3.8539,3.8656,3.9073,3.982,3.983,4.0363,4.0759,4.0613,4.0679,4.0757,4.0699,4.0757,4.0784,4.0773,4.0754,4.073,4.0742,4.0761,4.0745,4.0745,4.072,4.07,4.0668,4.0668,4.064,4.0607,4.0559,4.0534,4.0457,4.0377,4.0362,4.0381,4.0363,4.0326,4.0326,4.0308,4.0272,4.0234,4.0176,4.0157,4.0118,4.0098,4.0077,4.0017,3.9996,3.9933,3.9889,3.9867,3.9823,3.9735,3.9689,3.9665,3.9642,3.9521,3.9446,3.9343,3.9301,3.9248,3.912,3.9064,3.9017,3.896,3.8921,3.8803,3.8773,3.8743,3.8652,3.8609,3.8559,3.8446,3.8382,3.835,3.8318,3.8285,3.8204,3.8104,3.8052,3.8018,3.7933,3.7846,3.7828,3.7793,3.7613,3.7613,3.7558,3.7484,3.7484,3.741,3.7297,3.7241,3.7279,3.7279,3.722,3.7182,3.7066,3.7048,3.6987,3.6869,3.6928,3.74,3.7958,3.8388]},{"header":{"parameterUnit":"m.s-1","parameterCategory":1,"la1":31.0,"la2":29.5877,"lo1":-88.7671,"lo2":-86.6584,"dy":0.0162,"dx":0.0185,"nx":115,"ny":88,"refTime":"2023-08-23T18:00:00:Z","depth":0,"parameterNumber":3,"parameterNumberName":"V-component_of_WINDS"},"data":[0.0,0.0,0.0,0.0,0.0,0.0,0.0,0.0,0.0,0.0,0.0,0.0,0.0,0.0,0.0,0.0,0.0,0.0,0.0,0.0,0.0,0.0,0.0,0.0,0.0,0.0,0.0,0.0,0.0,0.0,0.0,0.0,0.0,0.0,0.0,0.0,0.0,0.0,0.0,0.0,0.0,0.0,0.0,0.0,0.0,0.0,0.0,0.0,0.0,0.0,0.0,0.0,0.0,0.0,0.0,0.0,0.0,0.0,0.0,0.0,0.0,0.0,0.0,0.0,0.0,0.0,0.0,0.0,0.0,0.0,0.0,0.0,0.0,0.0,0.0,0.0,0.0,0.0,0.0,0.0,0.0,0.0,0.0,0.0,0.0,0.0,0.0,0.0,0.0,0.0,0.0,0.0,0.0,0.0,0.0,0.0,0.0,0.0,0.0,0.0,0.0,0.0,0.0,0.0,0.0,0.0,0.0,0.0,0.0,0.0,0.0,0.0,0.0,0.0,0.0,0.0,0.0,0.0,0.0,0.0,0.0,0.0,0.0,0.0,0.0,0.0,0.0,0.0,0.0,0.0,0.0,0.0,0.0,0.0,0.0,0.0,0.0,0.0,0.0,0.0,0.0,0.0,0.0,0.0,0.0,0.0,0.0,0.0,0.0,0.0,0.0,0.0,0.0,0.0,0.0,0.0,0.0,0.0,0.0,0.0,0.0,0.0,0.0,0.0,0.0,0.0,0.0,0.0,0.0,0.0,0.0,0.0,0.0,0.0,0.0,0.0,0.0,0.0,0.0,0.0,0.0,0.0,0.0,0.0,0.0,0.0,0.0,0.0,0.0,0.0,0.0,0.0,0.0,0.0,0.0,0.0,0.0,0.0,0.0,0.0,0.0,0.0,0.0,0.0,0.0,0.0,0.0,0.0,0.0,0.0,0.0,0.0,0.0,0.0,0.0,0.0,0.0,0.0,0.0,0.0,0.0,0.0,0.0,0.0,0.0,0.0,0.0,0.0,0.0,0.0,0.0,0.0,0.0,0.0,0.0,0.0,0.0,0.0,0.0,0.0,0.0,0.0,0.0,0.0,0.0,0.0,0.0,0.0,0.0,0.0,0.0,0.0,0.0,0.0,0.0,0.0,0.0,0.0,0.0,0.0,0.0,0.0,0.0,0.0,0.0,0.0,0.0,0.0,0.0,0.0,0.0,0.0,0.0,0.0,0.0,0.0,0.0,0.0,0.0,0.0,0.0,0.0,0.0,0.0,0.0,0.0,0.0,0.0,0.0,0.0,0.0,0.0,0.0,0.0,0.0,0.0,0.0,0.0,0.0,0.0,0.0,0.0,0.0,0.0,0.0,0.0,0.0,0.0,0.0,0.0,0.0,0.0,0.0,0.0,0.0,0.0,0.0,0.0,0.0,0.0,0.0,0.0,0.0,0.0,0.0,0.0,0.0,0.0,0.0,0.0,0.0,0.0,0.0,0.0,0.0,0.0,0.0,0.0,0.0,0.0,0.0,0.0,0.0,0.0,0.0,0.0,0.0,0.0,0.0,0.0,0.0,0.0,0.0,0.0,0.0,0.0,0.0,0.0,0.0,0.0,0.0,0.0,0.0,0.0,0.0,0.0,0.0,0.0,0.0,0.0,0.0,0.0,0.0,0.0,0.0,0.0,0.0,0.0,0.0,0.0,0.0,0.0,0.0,0.0,0.0,0.0,0.0,0.0,0.0,0.0,0.0,0.0,0.0,0.0,0.0,0.0,0.0,0.0,0.0,0.0,0.0,0.0,0.0,0.0,0.0,0.0,0.0,0.0,0.0,0.0,0.0,0.0,0.0,0.0,0.0,0.0,0.0,0.0,0.0,0.0,0.0,0.0,0.0,0.0,0.0,0.0,0.0,0.0,0.0,0.0,0.0,0.0,0.0,0.0,0.0,0.0,0.0,0.0,0.0,0.0,0.0,0.0,0.0,0.0,0.0,0.0,0.0,0.0,0.0,0.0,0.0,0.0,0.0,0.0,0.0,0.0,0.0,0.0,0.0,0.0,0.0,0.0,0.0,0.0,0.0,0.0,0.0,0.0,0.0,0.0,0.0,0.0,0.0,0.0,0.0,0.0,0.0,0.0,0.0,0.0,0.0,0.0,0.0,0.0,0.0,0.0,0.0,0.0,0.0,0.0,0.0,0.0,0.0,0.0,0.0,0.0,0.0,0.0,0.0,0.0,0.0,0.0,0.0,0.0,0.0,0.0,0.0,0.0,0.0,0.0,0.0,0.0,0.0,0.0,0.0,0.0,0.0,0.0,0.0,0.0,0.0,0.0,0.0,0.0,0.0,0.0,0.0,0.0,0.0,0.0,0.0,0.0,0.0,0.0,0.0,0.0,0.0,0.0,0.0,0.0,0.0,0.0,0.0,0.0,0.0,0.0,0.0,0.0,0.0,0.0,0.0,0.0,0.0,0.0,0.0,0.0,0.0,0.0,0.0,0.0,0.0,0.0,0.0,0.0,0.0,0.0,0.0,0.0,0.0,0.0,0.0,0.0,0.0,0.0,0.0,0.0,0.0,0.0,0.0,0.0,0.0,0.0,0.0,0.0,0.0,0.0,0.0,0.0,0.0,0.0,0.0,0.0,0.0,0.0,0.0,0.0,0.0,0.0,0.0,0.0,0.0,0.0,0.0,0.0,0.0,0.0,0.0,0.0,0.0,0.0,0.0,0.0,0.0,0.0,0.0,0.0,0.0,0.0,0.0,0.0,0.0,0.0,0.0,0.0,0.0,0.0,0.0,0.0,0.0,0.0,0.0,0.0,0.0,0.0,0.0,0.0,0.0,0.0,0.0,0.0,0.0,0.0,0.0,0.0,0.0,0.0,0.0,0.0,0.0,0.0,0.0,0.0,0.0,0.0,0.0,0.0,0.0,0.0,0.0,0.0,0.0,0.0,0.0,0.0,0.0,0.0,0.0,0.0,0.0,0.0,0.0,0.0,0.0,0.0,0.0,0.0,0.0,0.0,0.0,0.0,0.0,0.0,0.0,0.0,0.0,0.0,0.0,0.0,0.0,0.0,0.0,0.0,0.0,0.0,0.0,0.0,0.0,0.0,0.0,0.0,0.0,0.0,0.0,0.0,0.0,0.0,0.0,0.0,0.0,0.0,0.0,0.0,0.0,0.0,0.0,0.0,0.0,0.0,0.0,0.0,0.0,0.0,0.0,0.0,0.0,0.0,0.0,0.0,0.0,0.0,0.0,0.0,0.0,0.0,0.0,0.0,0.0,0.0,0.0,0.0,0.0,0.0,0.0,0.0,0.0,0.0,0.0,0.0,0.0,0.0,0.0,0.0,0.0,0.0,0.0,0.0,0.0,0.0,0.0,0.0,0.0,0.0,0.0,0.0,0.0,0.0,0.0,0.0,0.0,0.0,0.0,0.0,0.0,0.0,0.0,0.0,0.0,0.0,0.0,0.0,0.0,0.0,0.0,0.0,0.0,0.0,0.0,0.0,0.0,0.0,0.0,0.0,0.0,0.0,0.0,0.0,0.0,0.0,0.0,0.0,0.0,0.0,0.0,0.0,0.0,0.0,0.0,0.0,0.0,0.0,0.0,0.0,0.0,0.0,0.0,0.0,0.0,0.0,0.0,0.0,0.0,0.0,0.0,0.0,0.0,0.0,0.0,0.0,0.0,0.0,0.0,0.0,0.0,0.0,0.0,0.0,0.0,0.0,0.0,0.0,0.0,0.0,0.0,0.0,0.0,0.0,0.0,0.0,0.0,0.0,0.0,0.0,0.0,0.0,0.0,0.0,0.0,0.0,0.0,0.0,0.0,0.0,0.0,0.0,0.0,0.0,0.0,0.0,0.0,0.0,0.0,0.0,0.0,0.0,0.0,0.0,0.0,0.0,0.0,0.0,0.0,0.0,0.0,0.0,0.0,0.0,0.0,0.0,0.0,0.0,0.0,0.0,0.0,0.0,0.0,0.0,0.0,0.0,0.0,0.0,0.0,0.0,0.0,0.0,0.0,0.0,0.0,0.0,0.0,0.0,0.0,0.0,0.0,0.0,0.0,0.0,0.0,0.0,0.0,0.0,0.0,0.0,0.0,0.0,0.0,0.0,0.0,0.0,0.0,0.0,0.0,0.0,0.0,0.0,0.0,0.0,0.0,0.0,0.0,0.0,0.0,0.0,0.0,0.0,0.0,0.0,0.0,0.0,0.0,0.0,0.0,0.0,0.0,0.0,0.0,0.0,0.0,0.0,0.0,0.0,0.0,0.0,0.0,0.0,0.0,0.0,-1.5996,0.0,0.0,0.0,0.0,0.0,0.0,0.0,0.0,0.0,0.0,0.0,0.0,0.0,0.0,0.0,0.0,0.0,0.0,0.0,0.0,0.0,0.0,0.0,0.0,0.0,0.0,0.0,0.0,0.0,0.0,0.0,0.0,0.0,0.0,0.0,0.0,0.0,0.0,0.0,0.0,0.0,0.0,0.0,0.0,0.0,0.0,0.0,0.0,0.0,0.0,0.0,0.0,0.0,0.0,0.0,0.0,0.0,0.0,0.0,0.0,0.0,0.0,0.0,0.0,0.0,0.0,0.0,0.0,0.0,0.0,0.0,0.0,0.0,0.0,0.0,0.0,0.0,0.0,0.0,0.0,0.0,0.0,0.0,0.0,0.0,0.0,0.0,0.0,0.0,0.0,0.0,0.0,0.0,0.0,0.0,0.0,0.0,0.0,0.0,0.0,0.0,0.0,0.0,0.0,0.0,0.0,0.0,0.0,0.0,0.0,-1.5983,-1.5942,-1.5913,-1.587,-1.5784,0.0,0.0,0.0,0.0,0.0,0.0,0.0,0.0,0.0,0.0,0.0,0.0,0.0,0.0,0.0,0.0,0.0,0.0,0.0,0.0,0.0,0.0,0.0,0.0,0.0,0.0,0.0,0.0,0.0,0.0,0.0,0.0,0.0,0.0,0.0,0.0,0.0,0.0,0.0,0.0,0.0,0.0,0.0,0.0,0.0,0.0,0.0,0.0,0.0,0.0,0.0,0.0,0.0,0.0,0.0,0.0,0.0,0.0,0.0,0.0,0.0,0.0,0.0,0.0,0.0,0.0,0.0,0.0,0.0,0.0,0.0,0.0,0.0,0.0,0.0,0.0,0.0,0.0,0.0,0.0,0.0,0.0,0.0,0.0,0.0,0.0,0.0,0.0,0.0,0.0,0.0,0.0,0.0,0.0,0.0,0.0,0.0,0.0,0.0,0.0,0.0,0.0,0.0,0.0,0.0,0.0,0.0,0.0,0.0,0.0,0.0,0.0,-1.577,-1.5683,-1.5536,0.0,0.0,0.0,0.0,0.0,0.0,0.0,0.0,0.0,0.0,0.0,0.0,0.0,0.0,0.0,0.0,0.0,0.0,0.0,0.0,0.0,0.0,0.0,0.0,0.0,0.0,0.0,0.0,0.0,0.0,0.0,0.0,0.0,0.0,0.0,0.0,0.0,0.0,0.0,0.0,0.0,0.0,0.0,0.0,0.0,0.0,0.0,0.0,0.0,0.0,0.0,0.0,0.0,0.0,0.0,0.0,0.0,0.0,0.0,0.0,0.0,0.0,0.0,0.0,0.0,0.0,0.0,0.0,0.0,0.0,0.0,0.0,0.0,0.0,0.0,0.0,0.0,0.0,0.0,0.0,0.0,0.0,0.0,0.0,0.0,0.0,0.0,0.0,0.0,0.0,0.0,0.0,0.0,0.0,0.0,0.0,0.0,0.0,0.0,0.0,0.0,0.0,0.0,0.0,0.0,0.0,0.0,0.0,0.0,0.0,-1.5639,-1.5639,-1.5551,0.0,-1.5418,0.0,0.0,0.0,0.0,0.0,0.0,0.0,0.0,0.0,0.0,0.0,0.0,0.0,0.0,0.0,0.0,0.0,0.0,0.0,0.0,0.0,0.0,0.0,0.0,0.0,0.0,0.0,0.0,0.0,0.0,0.0,0.0,0.0,0.0,0.0,0.0,0.0,0.0,0.0,0.0,0.0,0.0,0.0,0.0,0.0,0.0,0.0,0.0,0.0,0.0,0.0,0.0,0.0,0.0,0.0,0.0,0.0,0.0,0.0,0.0,0.0,0.0,0.0,0.0,0.0,0.0,0.0,0.0,0.0,0.0,0.0,0.0,0.0,0.0,0.0,0.0,0.0,0.0,0.0,0.0,0.0,0.0,0.0,0.0,0.0,0.0,0.0,0.0,0.0,0.0,0.0,0.0,0.0,0.0,0.0,0.0,0.0,0.0,0.0,0.0,0.0,0.0,0.0,0.0,0.0,0.0,0.0,0.0,0.0,0.0,-1.5551,-1.5536,-1.5433,-1.5314,0.0,0.0,0.0,0.0,0.0,0.0,0.0,0.0,0.0,0.0,0.0,0.0,0.0,0.0,0.0,0.0,0.0,0.0,0.0,0.0,0.0,0.0,0.0,0.0,0.0,0.0,0.0,0.0,0.0,0.0,0.0,0.0,0.0,0.0,0.0,0.0,0.0,0.0,0.0,0.0,0.0,0.0,0.0,0.0,0.0,0.0,0.0,0.0,0.0,0.0,0.0,0.0,0.0,0.0,0.0,0.0,0.0,0.0,0.0,0.0,0.0,0.0,0.0,0.0,0.0,0.0,0.0,0.0,0.0,0.0,0.0,0.0,0.0,0.0,0.0,0.0,0.0,0.0,0.0,0.0,0.0,0.0,0.0,0.0,0.0,0.0,0.0,0.0,0.0,0.0,0.0,0.0,0.0,0.0,0.0,0.0,0.0,0.0,0.0,0.0,0.0,0.0,0.0,0.0,0.0,0.0,0.0,0.0,0.0,0.0,-1.5463,-1.5433,-1.5374,-1.5238,-1.5117,-1.4951,0.0,0.0,0.0,0.0,0.0,0.0,0.0,0.0,0.0,0.0,0.0,0.0,0.0,0.0,0.0,0.0,0.0,0.0,0.0,0.0,0.0,0.0,0.0,0.0,0.0,0.0,0.0,0.0,0.0,0.0,0.0,0.0,0.0,0.0,0.0,0.0,0.0,0.0,0.0,0.0,0.0,0.0,0.0,0.0,0.0,0.0,0.0,0.0,0.0,0.0,0.0,0.0,0.0,0.0,0.0,0.0,0.0,0.0,0.0,0.0,0.0,0.0,0.0,0.0,0.0,0.0,0.0,0.0,0.0,0.0,0.0,0.0,0.0,0.0,0.0,0.0,0.0,0.0,0.0,0.0,0.0,0.0,0.0,0.0,0.0,0.0,0.0,0.0,0.0,0.0,0.0,0.0,0.0,0.0,0.0,0.0,0.0,0.0,0.0,0.0,0.0,0.0,0.0,0.0,0.0,0.0,0.0,0.0,-1.5389,-1.5314,-1.5208,-1.5043,-1.4935,-1.4871,0.0,0.0,0.0,0.0,0.0,0.0,0.0,0.0,0.0,0.0,0.0,0.0,0.0,0.0,0.0,0.0,0.0,0.0,0.0,0.0,0.0,0.0,0.0,0.0,0.0,0.0,0.0,0.0,0.0,0.0,0.0,0.0,0.0,0.0,0.0,0.0,0.0,0.0,0.0,0.0,0.0,0.0,0.0,0.0,0.0,0.0,0.0,0.0,0.0,0.0,0.0,0.0,0.0,0.0,0.0,0.0,0.0,0.0,0.0,0.0,0.0,0.0,0.0,0.0,0.0,0.0,0.0,0.0,0.0,0.0,0.0,0.0,0.0,0.0,0.0,0.0,0.0,0.0,0.0,0.0,0.0,0.0,0.0,0.0,0.0,0.0,0.0,0.0,0.0,0.0,0.0,0.0,0.0,0.0,0.0,0.0,0.0,0.0,0.0,0.0,0.0,0.0,0.0,0.0,0.0,0.0,0.0,0.0,0.0,-1.5134,-1.5072,-1.4994,-1.4825,-1.4808,-1.4714,0.0,0.0,0.0,0.0,0.0,0.0,0.0,0.0,0.0,0.0,0.0,0.0,0.0,0.0,0.0,0.0,0.0,0.0,0.0,0.0,0.0,0.0,0.0,0.0,0.0,0.0,0.0,0.0,0.0,0.0,0.0,0.0,0.0,0.0,0.0,0.0,0.0,0.0,0.0,0.0,0.0,0.0,0.0,0.0,0.0,0.0,0.0,0.0,0.0,0.0,0.0,0.0,0.0,0.0,0.0,0.0,0.0,0.0,0.0,0.0,0.0,0.0,0.0,0.0,0.0,0.0,0.0,0.0,0.0,0.0,0.0,0.0,0.0,0.0,0.0,0.0,0.0,0.0,0.0,0.0,0.0,0.0,0.0,0.0,0.0,0.0,0.0,0.0,0.0,0.0,0.0,0.0,0.0,0.0,0.0,0.0,0.0,0.0,0.0,0.0,0.0,0.0,0.0,0.0,0.0,0.0,0.0,0.0,0.0,-1.4859,0.0,-1.4683,-1.4588,-1.4556,-1.4479,0.0,0.0,0.0,0.0,0.0,0.0,0.0,0.0,0.0,0.0,0.0,0.0,0.0,0.0,0.0,0.0,0.0,0.0,0.0,0.0,0.0,0.0,0.0,0.0,0.0,0.0,0.0,0.0,0.0,0.0,0.0,0.0,0.0,0.0,0.0,0.0,0.0,0.0,0.0,0.0,0.0,0.0,0.0,0.0,0.0,0.0,0.0,0.0,0.0,0.0,0.0,0.0,0.0,0.0,0.0,0.0,0.0,0.0,0.0,0.0,0.0,0.0,0.0,0.0,0.0,0.0,0.0,0.0,0.0,0.0,0.0,0.0,0.0,0.0,0.0,0.0,0.0,0.0,0.0,0.0,0.0,0.0,0.0,0.0,0.0,0.0,0.0,0.0,0.0,0.0,0.0,0.0,0.0,0.0,0.0,0.0,0.0,0.0,0.0,0.0,0.0,0.0,0.0,0.0,0.0,0.0,0.0,0.0,-1.4777,-1.4515,-1.4461,-1.4406,-1.4314,-1.4262,-1.4216,0.0,0.0,0.0,0.0,0.0,0.0,0.0,0.0,0.0,0.0,0.0,0.0,0.0,0.0,0.0,0.0,0.0,0.0,0.0,0.0,0.0,0.0,0.0,0.0,0.0,0.0,0.0,0.0,0.0,0.0,0.0,0.0,0.0,0.0,0.0,0.0,0.0,0.0,0.0,0.0,0.0,0.0,0.0,0.0,0.0,0.0,0.0,0.0,0.0,0.0,0.0,0.0,0.0,0.0,0.0,0.0,0.0,0.0,0.0,0.0,0.0,0.0,0.0,0.0,0.0,0.0,0.0,0.0,0.0,0.0,0.0,0.0,0.0,0.0,0.0,0.0,0.0,0.0,0.0,0.0,0.0,0.0,0.0,0.0,0.0,0.0,0.0,0.0,0.0,0.0,0.0,0.0,0.0,0.0,0.0,0.0,0.0,0.0,0.0,0.0,0.0,0.0,0.0,0.0,0.0,0.0,0.0,0.0,0.0,-1.4722,-1.4715,-1.4673,-1.4515,-1.4467,-1.4248,0.0,0.0,0.0,0.0,0.0,0.0,0.0,0.0,0.0,0.0,0.0,0.0,0.0,0.0,0.0,0.0,0.0,0.0,0.0,0.0,0.0,0.0,0.0,0.0,0.0,0.0,0.0,0.0,0.0,0.0,0.0,0.0,0.0,0.0,0.0,0.0,0.0,0.0,0.0,0.0,0.0,0.0,0.0,0.0,0.0,0.0,0.0,0.0,0.0,0.0,0.0,0.0,0.0,0.0,0.0,0.0,0.0,0.0,0.0,0.0,0.0,0.0,0.0,0.0,0.0,0.0,0.0,0.0,0.0,0.0,0.0,0.0,0.0,0.0,0.0,0.0,0.0,0.0,0.0,0.0,0.0,0.0,0.0,0.0,0.0,0.0,0.0,0.0,0.0,0.0,0.0,0.0,0.0,0.0,0.0,0.0,0.0,0.0,0.0,0.0,0.0,0.0,0.0,0.0,0.0,0.0,0.0,0.0,0.0,-1.5175,-1.5092,-1.5,-1.4818,-1.4611,-1.4278,-1.3882,0.0,0.0,0.0,0.0,0.0,0.0,0.0,0.0,0.0,0.0,0.0,0.0,0.0,0.0,0.0,0.0,0.0,0.0,0.0,0.0,0.0,0.0,0.0,0.0,0.0,0.0,0.0,0.0,0.0,0.0,0.0,0.0,0.0,0.0,0.0,0.0,0.0,0.0,0.0,0.0,0.0,0.0,0.0,0.0,0.0,0.0,0.0,0.0,0.0,0.0,0.0,0.0,0.0,0.0,0.0,0.0,0.0,0.0,0.0,0.0,0.0,0.0,0.0,0.0,0.0,0.0,0.0,0.0,0.0,0.0,0.0,0.0,0.0,0.0,0.0,0.0,0.0,0.0,0.0,0.0,0.0,0.0,0.0,0.0,0.0,0.0,0.0,0.0,0.0,0.0,0.0,0.0,0.0,0.0,0.0,0.0,0.0,0.0,0.0,0.0,0.0,0.0,0.0,0.0,0.0,0.0,0.0,0.0,-1.5802,-1.5504,-1.5325,-1.521,-1.4686,-1.4317,0.0,0.0,0.0,0.0,0.0,0.0,0.0,0.0,0.0,0.0,0.0,0.0,0.0,0.0,0.0,0.0,0.0,0.0,0.0,0.0,0.0,0.0,0.0,0.0,0.0,0.0,0.0,0.0,0.0,0.0,0.0,0.0,0.0,0.0,0.0,0.0,0.0,0.0,0.0,0.0,0.0,0.0,0.0,0.0,0.0,0.0,0.0,0.0,0.0,0.0,0.0,0.0,0.0,0.0,0.0,0.0,0.0,0.0,0.0,0.0,0.0,0.0,0.0,0.0,0.0,0.0,0.0,0.0,0.0,0.0,0.0,0.0,0.0,0.0,0.0,0.0,0.0,0.0,0.0,0.0,0.0,0.0,0.0,0.0,0.0,0.0,0.0,0.0,0.0,0.0,0.0,0.0,0.0,0.0,0.0,0.0,0.0,0.0,0.0,0.0,0.0,0.0,0.0,0.0,0.0,0.0,0.0,0.0,0.0,-1.5709,-1.5998,-1.5906,-1.5436,-1.5262,-1.4773,0.0,0.0,0.0,0.0,0.0,0.0,0.0,0.0,0.0,0.0,0.0,0.0,0.0,0.0,0.0,0.0,0.0,0.0,0.0,0.0,0.0,0.0,0.0,0.0,0.0,0.0,0.0,0.0,0.0,0.0,0.0,0.0,0.0,0.0,0.0,0.0,0.0,0.0,0.0,0.0,0.0,0.0,0.0,0.0,0.0,0.0,0.0,0.0,0.0,0.0,0.0,0.0,0.0,0.0,0.0,0.0,0.0,0.0,0.0,0.0,0.0,0.0,0.0,0.0,0.0,0.0,0.0,0.0,0.0,0.0,0.0,0.0,0.0,0.0,0.0,0.0,0.0,0.0,0.0,0.0,0.0,0.0,0.0,0.0,0.0,0.0,0.0,0.0,0.0,0.0,0.0,0.0,0.0,0.0,0.0,0.0,0.0,0.0,0.0,0.0,0.0,0.0,0.0,0.0,0.0,0.0,0.0,0.0,-1.5492,-1.5919,-1.62,-1.6127,-1.5721,-1.5541,-1.5122,0.0,0.0,0.0,0.0,0.0,0.0,0.0,0.0,0.0,0.0,0.0,0.0,0.0,0.0,0.0,0.0,0.0,0.0,0.0,0.0,0.0,0.0,0.0,0.0,0.0,0.0,0.0,0.0,0.0,0.0,0.0,0.0,0.0,0.0,0.0,0.0,0.0,0.0,0.0,0.0,0.0,0.0,0.0,0.0,0.0,0.0,0.0,0.0,0.0,0.0,0.0,0.0,0.0,0.0,0.0,0.0,0.0,0.0,0.0,0.0,0.0,0.0,0.0,0.0,0.0,0.0,0.0,0.0,0.0,0.0,0.0,0.0,0.0,0.0,0.0,0.0,0.0,0.0,0.0,0.0,0.0,0.0,0.0,0.0,0.0,0.0,0.0,0.0,0.0,0.0,0.0,0.0,0.0,0.0,0.0,0.0,0.0,0.0,0.0,0.0,0.0,0.0,0.0,0.0,0.0,0.0,0.0,0.0,-1.5844,-1.6188,-1.6156,-1.61,-1.5988,-1.5636,-1.545,0.0,0.0,0.0,0.0,0.0,0.0,0.0,0.0,0.0,0.0,0.0,0.0,0.0,0.0,0.0,0.0,0.0,0.0,0.0,0.0,0.0,0.0,0.0,0.0,0.0,0.0,0.0,0.0,0.0,0.0,0.0,0.0,0.0,0.0,0.0,0.0,0.0,0.0,0.0,0.0,0.0,0.0,0.0,0.0,0.0,0.0,0.0,0.0,0.0,0.0,0.0,0.0,0.0,0.0,0.0,0.0,0.0,0.0,0.0,0.0,0.0,0.0,0.0,0.0,0.0,0.0,0.0,0.0,0.0,0.0,0.0,0.0,0.0,0.0,0.0,0.0,0.0,0.0,0.0,0.0,0.0,0.0,0.0,0.0,0.0,0.0,0.0,0.0,0.0,0.0,0.0,0.0,0.0,0.0,0.0,0.0,0.0,0.0,0.0,0.0,0.0,0.0,0.0,0.0,0.0,0.0,0.0,0.0,-1.5647,-1.602,-1.6044,-1.5957,-1.5836,-1.5847,-1.5636,0.0,0.0,0.0,0.0,0.0,0.0,0.0,0.0,0.0,0.0,0.0,0.0,0.0,0.0,0.0,0.0,0.0,0.0,0.0,0.0,0.0,0.0,0.0,0.0,0.0,0.0,0.0,0.0,0.0,0.0,0.0,0.0,0.0,0.0,0.0,0.0,0.0,0.0,0.0,0.0,0.0,0.0,0.0,0.0,0.0,0.0,0.0,0.0,-1.6089,0.0,0.0,0.0,0.0,0.0,0.0,0.0,0.0,0.0,0.0,0.0,0.0,0.0,0.0,0.0,0.0,0.0,0.0,0.0,0.0,0.0,0.0,0.0,0.0,0.0,0.0,0.0,0.0,0.0,0.0,0.0,0.0,0.0,0.0,0.0,0.0,0.0,0.0,0.0,0.0,0.0,0.0,0.0,0.0,0.0,0.0,0.0,0.0,0.0,0.0,0.0,0.0,0.0,0.0,0.0,0.0,0.0,0.0,0.0,-1.5764,-1.5901,-1.5913,-1.5881,-1.5792,-1.5881,-1.5748,0.0,0.0,0.0,0.0,0.0,0.0,0.0,0.0,0.0,0.0,0.0,0.0,0.0,0.0,0.0,0.0,0.0,0.0,0.0,0.0,0.0,0.0,0.0,0.0,0.0,0.0,0.0,0.0,0.0,0.0,0.0,0.0,0.0,0.0,0.0,0.0,0.0,0.0,0.0,0.0,0.0,0.0,0.0,0.0,0.0,0.0,0.0,0.0,0.0,0.0,0.0,0.0,0.0,0.0,0.0,0.0,0.0,0.0,0.0,0.0,0.0,0.0,0.0,0.0,0.0,0.0,0.0,0.0,0.0,0.0,0.0,0.0,0.0,0.0,0.0,0.0,0.0,0.0,0.0,0.0,0.0,0.0,0.0,0.0,0.0,0.0,0.0,0.0,0.0,0.0,0.0,0.0,0.0,0.0,0.0,0.0,0.0,0.0,0.0,0.0,0.0,0.0,0.0,0.0,0.0,0.0,0.0,-1.5678,-1.5913,-1.5792,-1.5792,-1.5792,-1.5792,-1.5792,-1.5792,-1.578,0.0,0.0,0.0,0.0,0.0,0.0,0.0,0.0,0.0,0.0,0.0,0.0,0.0,0.0,0.0,0.0,0.0,0.0,0.0,0.0,0.0,0.0,0.0,0.0,0.0,0.0,0.0,0.0,0.0,0.0,0.0,0.0,0.0,0.0,0.0,0.0,0.0,0.0,-1.4532,-1.5257,0.0,0.0,0.0,0.0,0.0,0.0,0.0,0.0,-1.7468,0.0,0.0,0.0,0.0,0.0,0.0,0.0,0.0,0.0,0.0,0.0,0.0,0.0,0.0,0.0,0.0,0.0,0.0,0.0,0.0,0.0,0.0,0.0,0.0,0.0,0.0,0.0,0.0,0.0,0.0,0.0,0.0,0.0,0.0,0.0,0.0,0.0,0.0,0.0,0.0,0.0,0.0,0.0,0.0,0.0,0.0,0.0,0.0,0.0,0.0,0.0,0.0,0.0,0.0,0.0,0.0,-1.5043,-1.556,-1.5824,-1.5792,-1.5792,-1.5792,-1.5792,-1.5792,-1.5792,-1.5668,0.0,0.0,0.0,0.0,0.0,0.0,0.0,0.0,0.0,0.0,0.0,0.0,0.0,0.0,0.0,0.0,0.0,0.0,0.0,0.0,0.0,0.0,0.0,0.0,0.0,0.0,0.0,0.0,0.0,0.0,0.0,0.0,0.0,0.0,0.0,0.0,0.0,0.0,0.0,-1.5857,-1.6077,0.0,0.0,0.0,0.0,0.0,0.0,0.0,0.0,-1.7255,0.0,0.0,0.0,0.0,0.0,0.0,0.0,0.0,0.0,0.0,0.0,0.0,0.0,0.0,0.0,0.0,0.0,0.0,0.0,0.0,0.0,0.0,0.0,0.0,0.0,0.0,0.0,0.0,0.0,0.0,0.0,0.0,0.0,0.0,0.0,0.0,0.0,0.0,0.0,0.0,0.0,0.0,0.0,0.0,0.0,0.0,0.0,0.0,0.0,0.0,0.0,0.0,0.0,0.0,0.0,-1.5384,-1.566,-1.5792,-1.5792,-1.5792,-1.5792,-1.5792,-1.5792,-1.5703,0.0,0.0,0.0,0.0,0.0,0.0,0.0,0.0,0.0,0.0,0.0,0.0,0.0,0.0,0.0,0.0,0.0,0.0,0.0,0.0,0.0,0.0,0.0,0.0,0.0,0.0,0.0,0.0,0.0,0.0,0.0,0.0,0.0,0.0,0.0,0.0,0.0,0.0,0.0,0.0,-1.6059,-1.6088,-1.5988,0.0,0.0,0.0,0.0,0.0,0.0,-1.8061,-1.7965,0.0,0.0,0.0,0.0,0.0,0.0,0.0,0.0,0.0,0.0,0.0,0.0,0.0,0.0,0.0,0.0,0.0,0.0,0.0,0.0,0.0,0.0,0.0,0.0,0.0,0.0,0.0,0.0,0.0,0.0,0.0,0.0,0.0,0.0,0.0,0.0,0.0,0.0,0.0,0.0,0.0,0.0,0.0,0.0,0.0,0.0,0.0,0.0,0.0,0.0,0.0,0.0,0.0,0.0,0.0,-1.5724,-1.5748,-1.5792,-1.5792,-1.5792,-1.5792,-1.5792,-1.5703,-1.5614,0.0,0.0,0.0,0.0,0.0,0.0,0.0,0.0,0.0,0.0,0.0,0.0,0.0,0.0,0.0,0.0,0.0,0.0,0.0,0.0,0.0,0.0,0.0,0.0,0.0,0.0,0.0,0.0,0.0,0.0,0.0,0.0,0.0,0.0,0.0,0.0,0.0,0.0,0.0,0.0,0.0,-1.6114,-1.6114,-1.6484,0.0,0.0,0.0,0.0,-1.835,-1.871,0.0,0.0,0.0,0.0,0.0,0.0,0.0,0.0,0.0,0.0,0.0,0.0,0.0,0.0,0.0,0.0,0.0,0.0,0.0,0.0,0.0,0.0,0.0,0.0,0.0,0.0,0.0,0.0,0.0,0.0,0.0,0.0,0.0,0.0,0.0,0.0,0.0,0.0,0.0,0.0,0.0,0.0,0.0,0.0,0.0,0.0,0.0,0.0,0.0,0.0,0.0,0.0,0.0,0.0,0.0,0.0,-1.5534,-1.5659,-1.5715,-1.5715,-1.5715,-1.5715,-1.5715,-1.5603,-1.548,0.0,0.0,0.0,0.0,0.0,0.0,0.0,0.0,0.0,0.0,0.0,0.0,0.0,0.0,0.0,0.0,0.0,0.0,0.0,0.0,0.0,0.0,0.0,0.0,0.0,0.0,0.0,0.0,0.0,0.0,0.0,0.0,0.0,0.0,0.0,0.0,0.0,0.0,0.0,0.0,0.0,-1.6534,-1.6534,-1.6979,-1.7496,0.0,0.0,-1.8362,-1.8831,-1.8951,0.0,0.0,0.0,0.0,0.0,0.0,0.0,0.0,0.0,0.0,0.0,0.0,0.0,0.0,0.0,0.0,0.0,0.0,0.0,0.0,0.0,0.0,0.0,0.0,0.0,0.0,0.0,0.0,0.0,0.0,0.0,0.0,0.0,0.0,0.0,0.0,0.0,0.0,0.0,0.0,0.0,0.0,0.0,0.0,0.0,0.0,0.0,0.0,0.0,0.0,0.0,0.0,0.0,0.0,0.0,-1.5213,-1.5501,-1.557,-1.5614,-1.557,-1.5614,-1.5558,-1.5614,-1.548,-1.5345,0.0,0.0,0.0,0.0,0.0,0.0,0.0,0.0,0.0,0.0,0.0,0.0,0.0,0.0,0.0,0.0,0.0,0.0,0.0,0.0,0.0,0.0,0.0,0.0,0.0,0.0,0.0,0.0,0.0,0.0,0.0,0.0,0.0,0.0,0.0,0.0,0.0,0.0,0.0,0.0,0.0,0.0,-1.7027,-1.752,0.0,0.0,0.0,-1.8722,-1.8963,0.0,0.0,0.0,0.0,0.0,0.0,0.0,0.0,0.0,0.0,0.0,0.0,0.0,0.0,0.0,0.0,0.0,0.0,0.0,0.0,0.0,0.0,0.0,0.0,0.0,0.0,0.0,0.0,0.0,0.0,0.0,0.0,0.0,0.0,0.0,0.0,0.0,0.0,0.0,0.0,0.0,0.0,0.0,0.0,0.0,0.0,0.0,0.0,0.0,0.0,0.0,0.0,0.0,0.0,0.0,0.0,0.0,-1.5379,-1.5424,-1.5468,-1.5424,-1.5435,-1.5424,-1.5435,-1.53,0.0,0.0,0.0,0.0,0.0,0.0,0.0,0.0,0.0,0.0,0.0,0.0,0.0,0.0,0.0,0.0,0.0,0.0,0.0,0.0,0.0,0.0,0.0,0.0,0.0,0.0,0.0,-1.3564,0.0,0.0,0.0,0.0,0.0,0.0,0.0,0.0,0.0,0.0,0.0,0.0,0.0,0.0,-1.7171,-1.7556,-1.8061,-1.8398,0.0,0.0,-1.8987,-1.8987,-1.8987,-1.8867,0.0,0.0,0.0,0.0,0.0,0.0,0.0,0.0,0.0,0.0,0.0,0.0,0.0,0.0,0.0,0.0,0.0,0.0,0.0,0.0,0.0,0.0,0.0,0.0,0.0,0.0,0.0,0.0,0.0,0.0,0.0,0.0,0.0,0.0,0.0,0.0,0.0,0.0,0.0,0.0,0.0,0.0,0.0,0.0,0.0,0.0,0.0,0.0,0.0,0.0,0.0,0.0,0.0,0.0,-1.5006,-1.5108,-1.5255,-1.53,-1.5312,-1.53,-1.5312,-1.53,-1.5153,-1.5062,0.0,0.0,0.0,0.0,0.0,0.0,0.0,0.0,0.0,0.0,0.0,0.0,0.0,0.0,0.0,0.0,0.0,0.0,0.0,0.0,0.0,0.0,0.0,0.0,0.0,0.0,0.0,0.0,0.0,0.0,0.0,0.0,0.0,0.0,0.0,0.0,0.0,0.0,0.0,0.0,0.0,-1.8109,-1.8145,-1.8602,-1.8939,0.0,-1.8963,-1.8987,-1.8987,-1.8987,-1.8975,-1.8939,0.0,0.0,0.0,0.0,0.0,0.0,0.0,0.0,0.0,0.0,0.0,0.0,0.0,0.0,0.0,0.0,0.0,0.0,0.0,0.0,0.0,0.0,0.0,0.0,0.0,0.0,0.0,0.0,0.0,0.0,0.0,0.0,0.0,0.0,0.0,0.0,0.0,0.0,0.0,0.0,0.0,0.0,0.0,0.0,0.0,0.0,0.0,0.0,0.0,0.0,0.0,0.0,0.0,-1.4891,-1.4949,-1.5006,-1.5108,-1.5153,-1.5165,-1.5108,-1.5062,-1.5006,-1.4926,0.0,0.0,0.0,0.0,0.0,0.0,0.0,0.0,0.0,0.0,0.0,0.0,0.0,0.0,0.0,0.0,0.0,0.0,0.0,0.0,0.0,0.0,0.0,0.0,0.0,0.0,0.0,0.0,-1.5258,-1.5564,-1.5736,0.0,0.0,0.0,0.0,0.0,0.0,0.0,0.0,0.0,0.0,-1.8326,-1.8638,-1.8867,0.0,0.0,-1.8987,-1.8987,-1.8987,-1.8987,-1.8987,-1.8987,-1.8672,0.0,0.0,0.0,0.0,0.0,0.0,0.0,0.0,0.0,0.0,0.0,0.0,0.0,0.0,0.0,0.0,0.0,0.0,0.0,0.0,0.0,0.0,0.0,0.0,0.0,0.0,0.0,0.0,0.0,0.0,0.0,0.0,0.0,0.0,0.0,0.0,0.0,0.0,0.0,0.0,0.0,0.0,0.0,0.0,0.0,0.0,0.0,0.0,0.0,0.0,0.0,0.0,-1.4754,-1.488,-1.488,-1.4926,-1.504,-1.5028,-1.4983,-1.488,-1.4869,-1.4846,0.0,0.0,0.0,0.0,0.0,0.0,0.0,0.0,0.0,0.0,0.0,0.0,0.0,0.0,0.0,0.0,0.0,0.0,0.0,0.0,0.0,0.0,0.0,0.0,0.0,0.0,0.0,0.0,-1.5477,-1.5703,-1.5593,0.0,0.0,0.0,0.0,0.0,0.0,0.0,0.0,0.0,0.0,-1.8566,-1.8939,-1.9119,-1.9227,-1.9227,-1.936,-1.9468,-1.9468,-1.948,-1.948,-1.9468,0.0,0.0,0.0,0.0,0.0,0.0,0.0,0.0,0.0,0.0,0.0,0.0,0.0,0.0,0.0,0.0,0.0,0.0,0.0,0.0,0.0,0.0,0.0,0.0,0.0,0.0,0.0,-1.0873,0.0,0.0,-1.0962,0.0,0.0,0.0,0.0,0.0,0.0,0.0,0.0,0.0,0.0,0.0,0.0,0.0,0.0,0.0,0.0,0.0,0.0,0.0,0.0,0.0,0.0,-1.4523,-1.4776,-1.4776,-1.4787,-1.4822,-1.4822,-1.4822,-1.4822,-1.4776,-1.473,-1.4627,0.0,0.0,0.0,0.0,0.0,0.0,0.0,0.0,0.0,0.0,0.0,0.0,0.0,0.0,0.0,0.0,0.0,0.0,0.0,0.0,0.0,0.0,0.0,0.0,0.0,0.0,-1.5431,-1.5614,-1.5582,0.0,0.0,0.0,0.0,0.0,0.0,0.0,0.0,0.0,-1.7882,-1.8586,-1.8975,-1.8987,-1.942,-1.9732,-1.9744,-2.0189,-2.0526,-2.055,-2.0562,-2.0586,0.0,0.0,0.0,0.0,0.0,0.0,0.0,0.0,0.0,0.0,0.0,0.0,0.0,0.0,0.0,0.0,0.0,0.0,0.0,0.0,0.0,0.0,0.0,0.0,0.0,0.0,0.0,-1.0892,-1.0892,0.0,0.0,0.0,0.0,0.0,0.0,0.0,0.0,0.0,0.0,0.0,-1.2464,-1.256,0.0,0.0,0.0,0.0,0.0,0.0,0.0,0.0,0.0,0.0,0.0,0.0,-1.4244,-1.4523,-1.4534,-1.4638,-1.4776,-1.4822,-1.4776,-1.4684,-1.4684,-1.4581,-1.4316,0.0,0.0,0.0,0.0,0.0,0.0,0.0,0.0,0.0,0.0,0.0,0.0,0.0,0.0,0.0,0.0,0.0,0.0,0.0,0.0,0.0,0.0,0.0,0.0,0.0,-1.5147,0.0,0.0,0.0,0.0,0.0,0.0,0.0,0.0,0.0,0.0,-1.6959,-1.7647,-1.7954,-1.8598,-1.8987,-1.8987,-1.9444,-1.978,0.0,0.0,0.0,0.0,0.0,0.0,0.0,0.0,0.0,0.0,0.0,0.0,0.0,0.0,-1.8868,-1.7788,-1.7537,-1.76,-1.7537,0.0,0.0,0.0,0.0,0.0,0.0,0.0,0.0,0.0,0.0,0.0,0.0,0.0,0.0,-1.1325,-1.1325,-1.1334,0.0,0.0,0.0,0.0,0.0,0.0,0.0,0.0,-1.2702,-1.2804,-1.2966,-1.3017,-1.3118,-1.326,-1.326,-1.3351,0.0,0.0,0.0,0.0,0.0,0.0,0.0,0.0,-1.401,-1.4244,-1.4244,-1.4337,-1.4499,-1.4545,-1.4488,-1.4406,-1.4395,-1.4291,-1.4129,-1.3905,-1.3674,0.0,0.0,0.0,0.0,0.0,0.0,0.0,0.0,0.0,0.0,0.0,0.0,0.0,0.0,0.0,0.0,0.0,0.0,0.0,0.0,0.0,0.0,0.0,-1.5312,0.0,0.0,0.0,0.0,0.0,0.0,0.0,0.0,0.0,-1.6699,-1.7373,-1.7997,-1.8279,-1.8718,-1.9059,-1.9239,0.0,0.0,0.0,0.0,0.0,0.0,0.0,-2.1163,-2.1163,-2.1163,-2.1104,-2.1033,-2.0831,-2.0653,-2.0699,0.0,0.0,-1.9,-1.881,-1.8822,-1.8863,-1.9447,-1.9981,-1.9993,-2.0244,-2.0541,0.0,0.0,0.0,0.0,-1.2678,0.0,0.0,0.0,-1.2113,-1.2113,0.0,-1.2113,0.0,0.0,0.0,0.0,-1.2724,-1.2724,0.0,0.0,-1.3386,-1.3513,-1.3504,-1.3603,-1.3774,-1.3863,-1.3897,-1.3951,-1.4019,-1.3421,0.0,0.0,0.0,0.0,0.0,0.0,-1.3757,-1.4037,-1.4047,-1.4026,-1.4052,-1.4052,-1.4041,-1.402,-1.402,-1.3962,-1.3973,-1.3868,-1.3763,-1.3763,-1.3658,0.0,0.0,0.0,0.0,0.0,0.0,0.0,0.0,0.0,0.0,0.0,0.0,0.0,0.0,0.0,0.0,0.0,0.0,0.0,0.0,-1.5108,0.0,0.0,0.0,0.0,0.0,0.0,0.0,0.0,0.0,-1.7641,-1.7796,-1.7962,-1.8295,-1.8915,0.0,0.0,0.0,0.0,-2.0779,-2.1308,-2.1837,-2.2173,-2.2173,-2.2173,-2.2173,-2.2173,0.0,0.0,-2.2185,-2.1765,-2.1428,-2.1428,-2.1148,-2.0807,-2.0668,-2.064,-2.0742,-2.0754,-2.0905,-2.1092,-2.1104,-2.1109,-2.1203,-1.3738,0.0,0.0,0.0,0.0,-1.2993,-1.2947,-1.2947,-1.2947,-1.2938,-1.2938,-1.2947,0.0,0.0,0.0,0.0,0.0,0.0,-1.3176,-1.3296,-1.335,-1.3405,-1.3513,-1.3568,-1.3622,-1.372,-1.3784,-1.3784,-1.3819,-1.3599,-1.3685,-1.3977,0.0,0.0,0.0,0.0,-1.4399,-1.4706,-1.4706,-1.465,-1.4531,-1.452,-1.4371,-1.4031,-1.3915,-1.3868,-1.3868,-1.3716,-1.3621,-1.3515,-1.3467,0.0,0.0,0.0,0.0,0.0,0.0,0.0,0.0,0.0,0.0,0.0,0.0,0.0,0.0,0.0,0.0,0.0,0.0,0.0,-1.4983,-1.5441,-1.5694,0.0,0.0,0.0,0.0,0.0,0.0,0.0,0.0,0.0,-1.846,-1.8507,-1.8672,0.0,0.0,-1.96,-1.9756,-2.0562,-2.1223,-2.138,-2.1861,0.0,-2.2197,-2.2197,-2.2197,-2.2197,-2.2197,-2.2197,-2.2197,-2.2077,-2.1957,-2.1981,-2.1971,-2.1898,-2.1862,-2.1384,-2.106,-2.1023,-2.1375,-2.1633,-2.1657,-2.194,-2.2211,-1.4592,-1.4203,-1.3661,-1.346,-1.3506,-1.336,-1.3296,-1.3296,-1.3296,-1.3296,-1.3296,-1.3296,-1.3296,-1.3296,-1.3296,0.0,0.0,0.0,-1.3616,-1.3772,-1.3782,-1.3838,-1.3894,-1.3894,-1.3942,-1.4101,-1.411,-1.411,-1.4222,-1.4222,-1.4334,-1.4518,0.0,-1.4194,-1.4354,-1.4407,-1.4513,-1.4787,-1.4787,-1.4769,-1.4644,-1.4644,-1.4426,-1.399,-1.3862,-1.3769,-1.3573,-1.3467,-1.342,-1.3314,-1.3314,-1.3238,0.0,0.0,0.0,0.0,0.0,0.0,0.0,0.0,0.0,0.0,0.0,-1.3227,-1.3847,0.0,0.0,0.0,-1.4793,-1.515,-1.5372,-1.5877,0.0,0.0,0.0,0.0,0.0,0.0,0.0,-1.8118,-1.8246,-1.8417,-1.8857,-1.9084,-1.9258,-1.9312,-1.9576,-1.9937,-2.0358,0.0,-2.1476,-2.168,-2.1993,-2.2197,-2.2197,-2.2197,-2.2258,-2.2474,-2.269,-2.2811,-2.2823,-2.2823,-2.2823,-2.2886,-2.3001,-2.3191,-2.3116,-2.2837,-2.2365,-2.1922,-2.2142,-2.2352,-2.2365,-2.2625,-2.2848,-1.5522,-1.5643,-1.4455,-1.399,-1.3983,-1.3635,-1.3488,-1.3488,-1.3488,-1.3488,-1.3479,-1.3479,-1.3479,-1.3488,-1.3488,0.0,-1.402,-1.4029,-1.424,-1.4607,-1.4607,-1.4598,-1.4607,-1.4607,-1.4657,-1.4809,-1.4749,-1.4877,-1.5065,-1.5075,-1.5075,-1.5056,-1.4401,-1.409,-1.4194,-1.4302,-1.4409,-1.458,-1.459,-1.456,-1.4573,-1.448,-1.4333,-1.3942,-1.3892,-1.3671,-1.3298,-1.3238,-1.316,-1.316,-1.316,-1.3142,-1.3075,0.0,0.0,0.0,0.0,0.0,0.0,0.0,0.0,0.0,0.0,0.0,0.0,0.0,0.0,-1.423,-1.5056,0.0,-1.5909,-1.6344,0.0,0.0,0.0,-1.7502,-1.767,-1.813,-1.853,-1.8798,0.0,0.0,-1.8999,-1.9456,-1.9793,-1.9841,-1.9877,-2.0273,-2.1272,-2.1428,-2.1644,-2.2101,-2.2185,-2.2197,-2.2306,-2.2366,-2.2558,-2.2979,-2.3448,-2.3688,-2.3701,-2.3779,-2.3815,-2.3701,-2.4079,-2.4263,-2.4275,-2.4437,-2.4442,-2.3207,-2.3167,-2.3228,-2.3253,-2.329,-2.3315,-1.6364,-1.6147,-1.6123,-1.5807,-1.5258,-1.5157,-1.512,-1.512,-1.512,-1.5111,-1.512,-1.512,-1.512,-1.512,-1.512,-1.5166,-1.5258,-1.5258,-1.5313,-1.5404,-1.5404,-1.5404,-1.5414,-1.5414,-1.5404,-1.5458,-1.5458,-1.5468,-1.554,-1.5531,-1.5531,-1.5522,-1.5461,-1.5242,-1.4811,-1.4898,-1.5012,-1.5174,-1.5355,-1.5319,-1.5044,-1.4693,-1.4473,-1.4373,-1.4052,-1.3831,-1.3711,-1.3409,-1.318,-1.3113,-1.3113,-1.3065,-1.2939,-1.2929,0.0,0.0,0.0,0.0,0.0,0.0,0.0,0.0,0.0,-1.3362,-1.3763,0.0,-1.4493,0.0,-1.5406,-1.5992,-1.6241,-1.6758,0.0,0.0,-1.7656,-1.8063,-1.833,-1.8489,-1.8667,-1.8934,-1.8934,-1.8946,-1.8999,-1.9444,-1.9937,-2.0378,-2.0742,-2.1103,-2.1392,-2.1765,-2.2041,-2.2161,-2.2209,-2.2342,-2.2727,-2.3147,-2.3424,-2.3568,-2.3701,-2.3827,-2.3839,-2.3839,-2.3839,-2.3839,-2.4091,-2.4288,-2.4325,-2.4549,-2.4693,-2.4417,-2.4355,-2.4418,-2.4418,-2.4406,-2.4406,-1.6964,-1.7128,-1.7324,-1.7167,-1.6716,-1.6001,-1.5689,-1.5689,-1.5689,-1.5689,-1.5689,-1.5689,-1.5689,-1.5689,-1.5689,-1.5689,-1.5689,-1.5689,-1.5689,-1.5689,-1.5689,-1.5689,-1.5689,-1.5689,-1.5689,-1.5689,-1.5689,-1.5689,-1.5689,-1.5689,-1.5689,-1.5689,-1.5753,-1.5659,-1.5355,-1.5529,-1.5616,-1.5475,-1.541,-1.5322,-1.5088,-1.491,-1.4739,-1.4543,-1.437,-1.4116,-1.3739,-1.3462,-1.3253,-1.3046,-1.3036,-1.3067,-1.3154,-1.3154,-1.3242,0.0,0.0,0.0,0.0,0.0,0.0,0.0,0.0,0.0,0.0,0.0,-1.493,-1.5271,-1.5961,-1.6391,-1.6627,-1.7142,-1.7554,-1.7607,-1.7912,-1.8193,-1.8464,-1.856,-1.8667,-1.8893,-1.8946,-1.9083,-1.9324,-1.9817,-2.0358,-2.0875,-2.1416,-2.1753,-2.1777,-2.2029,-2.2197,-2.2197,-2.239,-2.2727,-2.3244,-2.3773,-2.4109,-2.4121,-2.4302,-2.4458,-2.4458,-2.4458,-2.4446,-2.4458,-2.473,-2.4933,-2.5013,-2.5227,-2.5428,-2.5561,-2.5548,-2.5372,-2.4933,-2.4833,-2.4833,-1.7463,-1.8119,-1.8221,-1.8221,-1.8009,-1.6606,-1.6001,-1.6001,-1.6001,-1.6001,-1.6001,-1.6001,-1.6001,-1.6001,-1.5991,-1.6001,-1.6001,-1.6001,-1.5973,-1.5927,-1.5918,-1.589,-1.5835,-1.5845,-1.5845,-1.5845,-1.5854,-1.5835,-1.5845,-1.5845,-1.5835,-1.5845,-1.5845,-1.5845,-1.5845,-1.6123,-1.6081,-1.5671,-1.5264,-1.5105,-1.5046,-1.5126,-1.5032,-1.4667,-1.4702,-1.4379,-1.3659,-1.3562,-1.3418,-1.3066,-1.3047,-1.3203,-1.3564,-1.3594,-1.375,0.0,-1.4087,0.0,0.0,0.0,0.0,0.0,0.0,0.0,0.0,-1.5164,-1.5478,-1.5908,-1.6457,-1.6848,-1.6986,-1.7528,-1.7909,-1.7897,-1.8018,-1.8205,-1.8367,-1.8518,-1.8679,-1.8798,-1.8952,-1.9263,-1.9708,-2.0322,-2.0911,-2.132,-2.1813,-2.2125,-2.2185,-2.2185,-2.2221,-2.227,-2.2799,-2.34,-2.3809,-2.429,-2.4626,-2.4675,-2.4939,-2.53,-2.5252,-2.5264,-2.5288,-2.5288,-2.538,-2.5639,-2.5828,-2.6025,-2.6245,-2.6321,-2.6364,-2.6101,-2.536,-2.5134,-2.5034,-1.7942,-1.8128,-1.8797,-1.8704,-1.81,-1.7798,-1.766,-1.766,-1.766,-1.766,-1.7669,-1.766,-1.7669,-1.766,-1.7669,-1.766,-1.766,-1.7669,-1.7477,-1.7156,-1.7147,-1.6982,-1.6688,-1.6679,-1.6679,-1.6679,-1.6679,-1.6679,-1.6679,-1.6679,-1.6679,-1.6679,-1.6679,-1.6679,-1.667,0.0,0.0,0.0,-1.569,-1.5463,-1.5453,-1.521,-1.5001,-1.4906,-1.4573,0.0,-1.4376,-1.4028,-1.3869,-1.3844,-1.3844,0.0,0.0,0.0,0.0,0.0,0.0,0.0,0.0,0.0,0.0,0.0,-1.5605,-1.5462,-1.509,-1.5489,-1.6018,-1.6565,-1.6849,-1.7048,-1.739,-1.7589,-1.781,-1.7909,-1.8018,-1.8193,-1.8367,-1.8518,-1.8625,-1.881,-1.9263,-1.966,-1.9853,-2.0634,-2.1284,-2.1428,-2.1861,-2.2173,-2.2197,-2.2197,-2.2342,-2.2787,-2.3556,-2.4206,-2.4362,-2.4807,-2.5107,-2.518,-2.5216,-2.5312,-2.5312,-2.5312,-2.5312,-2.5312,-2.5453,-2.5606,-2.5676,-2.598,-2.6213,-2.627,-2.6396,-2.6471,-2.6201,-2.6138,-2.6151,-1.8597,-1.857,-1.9065,-1.9037,0.0,-1.8705,-1.8705,-1.8678,-1.8293,-1.8119,-1.8119,-1.8119,-1.8119,-1.8119,-1.8119,-1.8119,-1.8119,-1.8119,-1.8009,-1.7807,-1.7816,-1.7697,-1.7504,-1.7504,-1.7504,-1.7504,-1.7513,-1.7504,-1.7504,-1.7504,-1.7394,-1.7202,-1.7202,-1.7101,-1.6917,-1.6908,-1.6683,-1.6272,-1.5852,-1.5545,-1.5349,-1.5205,-1.5059,-1.4843,-1.4704,0.0,0.0,0.0,0.0,0.0,0.0,0.0,0.0,-1.4453,0.0,-1.4746,-1.4766,-1.4863,-1.5078,-1.5088,-1.5253,-1.5652,-1.5894,-1.5883,-1.5711,-1.6043,-1.6374,-1.6662,-1.6899,-1.7067,-1.7234,-1.7479,-1.7645,-1.781,-1.792,-1.8084,-1.8259,-1.841,-1.8677,-1.9045,-1.9471,-1.9905,-2.0526,-2.1019,-2.15,-2.1765,-2.2005,-2.2197,-2.2197,-2.2197,-2.245,-2.3232,-2.3749,-2.4338,-2.4819,-2.5107,-2.53,-2.5312,-2.5312,-2.5312,-2.5312,-2.5312,-2.5312,-2.5312,-2.5382,-2.5453,-2.5606,-2.5758,-2.591,-2.6062,-2.6201,-2.6327,-2.6327,-2.6396,-2.6521,-1.9074,-1.9011,-1.9118,-1.9188,-1.9231,-1.9222,-1.9301,-1.9256,-1.8614,0.0,0.0,-1.833,-1.833,-1.833,-1.833,-1.833,-1.833,-1.833,-1.8293,-1.8229,-1.8229,-1.8192,-1.8128,-1.8119,-1.8119,-1.8119,-1.8119,-1.8119,-1.8119,-1.8119,-1.7944,-1.7633,-1.7614,-1.744,-1.7147,-1.7128,-1.6927,-1.6532,-1.6056,-1.5643,-1.5331,-1.5374,-1.5185,-1.4777,-1.4896,-1.4827,-1.4412,-1.4554,-1.4447,-1.4167,-1.4256,-1.4467,-1.4863,-1.4893,-1.5039,-1.5381,-1.542,-1.542,-1.542,-1.542,-1.5478,-1.5682,-1.5894,-1.6124,-1.6306,-1.6477,-1.657,-1.6581,-1.6797,-1.6955,-1.7011,-1.7245,-1.7534,-1.7656,-1.781,-1.7998,-1.821,-1.8398,-1.8783,-1.9406,-1.9719,-2.0222,-2.1164,-2.1416,-2.168,-2.2077,-2.2173,-2.2197,-2.2209,-2.2306,-2.2642,-2.3376,-2.3688,-2.4085,-2.4759,-2.4963,-2.5035,-2.4963,-2.4987,-2.5059,-2.5143,-2.5168,-2.5204,-2.5312,-2.5312,-2.5382,-2.5523,-2.5606,-2.5688,-2.584,-2.598,-2.6131,-2.6131,-2.6258,-2.6396,-1.8789,-1.878,-1.878,-1.8789,-1.8772,-1.9002,-1.9152,-1.9292,-1.9182,-1.9136,-1.9136,-1.9136,-1.9136,-1.9136,-1.9136,-1.9136,-1.9127,-1.9127,-1.8953,-1.8632,-1.8623,-1.8449,-1.8128,-1.8119,-1.8119,-1.8119,-1.8119,-1.8119,-1.8119,-1.8137,-1.8091,-1.8045,-1.8036,-1.7999,-1.7954,-1.7954,-1.7752,-1.7321,-1.6606,-1.6202,-1.6147,-1.5799,-1.5486,-1.5038,-1.5072,-1.4939,-1.465,-1.4681,-1.4779,-1.4974,-1.5032,-1.511,-1.5312,-1.5312,-1.5352,-1.54,-1.542,-1.542,-1.542,-1.542,-1.5478,-1.5682,-1.573,-1.5846,-1.6124,-1.6306,-1.6488,-1.6581,-1.6658,-1.674,-1.6955,-1.7244,-1.7445,-1.7557,-1.7767,-1.8079,-1.8566,-1.8861,-1.9239,-1.9796,-2.0488,-2.0855,-2.1164,-2.1667,-2.2065,-2.2173,-2.2197,-2.2197,-2.2258,-2.2582,-2.2883,-2.3111,-2.3484,-2.3797,-2.4061,-2.4001,-2.4073,-2.3989,-2.4049,-2.423,-2.4578,-2.4626,-2.4783,-2.5216,-2.5252,-2.5276,-2.537,-2.5465,-2.5606,-2.5688,-2.5828,-2.591,-2.598,-2.598,-2.6107,-1.8468,-1.8757,-1.8452,-1.8501,-1.8709,-1.8985,-1.9281,-1.9551,-1.9725,-1.9624,-1.9311,-1.9292,-1.9292,-1.9292,-1.9292,-1.9292,-1.9292,-1.9292,-1.921,-1.9045,-1.9026,-1.8944,-1.877,-1.876,-1.876,-1.876,-1.877,-1.876,-1.876,-1.876,-1.865,-1.844,-1.8238,-1.8119,-1.8119,-1.8119,-1.8036,-1.7834,-1.7257,-1.6752,-1.6331,-1.6138,-1.5835,-1.5432,-1.5221,-1.501,-1.4939,-1.4777,-1.4775,-1.4902,-1.5029,-1.5147,-1.5254,-1.5313,-1.5313,-1.542,-1.542,-1.542,-1.542,-1.5635,-1.5831,-1.59,-1.6247,-1.6437,-1.6548,-1.6624,-1.6677,-1.6784,-1.711,-1.7315,-1.7482,-1.7739,-1.7973,-1.8148,-1.8322,-1.8596,-1.902,-1.9193,-1.9575,-2.0238,-2.0637,-2.1065,-2.1483,-2.1844,-2.2061,-2.2135,-2.2197,-2.2197,-2.2197,-2.239,-2.2654,-2.2931,-2.3195,-2.3525,-2.3755,-2.3839,-2.3839,-2.3839,-2.3839,-2.3869,-2.4085,-2.4109,-2.4326,-2.4759,-2.4891,-2.4999,-2.5216,-2.5382,-2.5453,-2.5465,-2.5606,-2.5676,-2.5758,-2.584,-2.5968,-1.8566,-1.8892,-1.8556,-1.8576,-1.8903,-1.9177,-1.9486,-1.9844,-2.0023,-1.9841,-1.947,-1.9496,-1.9577,-1.9577,-1.9567,-1.9577,-1.9577,-1.9577,-1.9577,-1.9567,-1.9485,-1.9448,-1.943,-1.9356,-1.9292,-1.9292,-1.9292,-1.9292,-1.9292,-1.9292,-1.9155,-1.8843,-1.854,-1.8385,-1.8385,-1.8394,-1.8348,-1.8247,-1.7935,-1.7376,-1.6615,-1.6496,-1.6257,-1.5845,-1.5533,-1.534,-1.5221,-1.4948,-1.4796,-1.4846,-1.489,-1.5029,-1.5147,-1.5156,-1.5205,-1.5303,-1.5362,-1.541,-1.5576,-1.5967,-1.6211,-1.6221,-1.6648,-1.6981,-1.7014,-1.7,-1.6992,-1.7133,-1.7481,-1.7791,-1.7903,-1.8108,-1.8373,-1.8566,-1.8758,-1.9021,-1.9373,-1.9516,-1.989,-2.0603,-2.083,-2.1128,-2.162,-2.1851,-2.1999,-2.2135,-2.2197,-2.2197,-2.2197,-2.2197,-2.239,-2.2654,-2.2811,-2.2931,-2.3352,-2.3376,-2.3364,-2.3424,-2.3376,-2.3412,-2.3508,-2.3592,-2.3797,-2.423,-2.4482,-2.4675,-2.5035,-2.524,-2.53,-2.5312,-2.5453,-2.5535,-2.5535,-2.5618,-2.5758,-1.9264,-1.9213,-1.9307,-1.9375,-1.939,-1.9425,-1.9571,-1.9795,-1.9862,-1.9827,-1.9831,-2.0159,-2.0402,-2.0411,-2.0383,-2.0356,-2.0365,-2.0402,-2.0383,-2.0328,-2.0035,-1.9879,-1.9833,-1.9494,-1.9292,-1.9311,-1.932,-1.932,-1.9292,-1.9292,-1.9283,-1.9246,-1.9201,-1.9155,-1.9173,-1.9173,-1.9017,-1.8669,-1.8623,-1.821,-1.7431,-1.7037,-1.667,-1.6276,-1.6221,-1.6019,-1.5643,-1.5258,-1.5109,-1.5204,-1.4939,-1.4852,-1.4989,-1.5039,-1.5039,-1.5058,-1.5166,-1.5428,-1.5986,-1.6416,-1.667,-1.667,-1.6728,-1.6841,-1.704,-1.7308,-1.751,-1.749,-1.7533,-1.7719,-1.7894,-1.7997,-1.8163,-1.8513,-1.8725,-1.8984,-1.9576,-1.9924,-2.0302,-2.0842,-2.1083,-2.1353,-2.1502,-2.1726,-2.1937,-2.2135,-2.2135,-2.2135,-2.2135,-2.2197,-2.2197,-2.2282,-2.2282,-2.2318,-2.2438,-2.2354,-2.2474,-2.2438,-2.2378,-2.2606,-2.2919,-2.3075,-2.322,-2.3725,-2.4133,-2.4398,-2.4687,-2.4951,-2.5276,-2.5312,-2.5312,-2.5312,-2.53,-2.5382,-2.5453,-1.9806,-1.9513,-1.9504,-1.9513,-1.9583,-1.9591,-1.9799,-2.0095,-2.0272,-2.036,-2.0369,-2.0703,-2.0625,-2.0361,-2.0361,-2.0352,-2.0521,-2.0521,-2.0521,-2.0503,-2.0347,-2.0273,-2.0255,-2.0118,-1.9907,-1.9687,-1.9677,-1.954,-1.9329,-1.9292,-1.9292,-1.9292,-1.9292,-1.9292,-1.9292,-1.9292,-1.9219,-1.9063,-1.8825,-1.855,-1.8192,-1.7578,-1.7064,-1.6697,-1.6441,-1.6248,-1.6037,-1.567,-1.5514,-1.5504,-1.5411,-1.538,-1.5514,-1.5514,-1.5585,-1.5718,-1.578,-1.5918,-1.6143,-1.6674,-1.6896,-1.697,-1.7278,-1.748,-1.7556,-1.778,-1.7846,-1.7981,-1.8137,-1.8332,-1.8431,-1.857,-1.8784,-1.8966,-1.9222,-1.9552,-1.9918,-2.0153,-2.0456,-2.0816,-2.1019,-2.121,-2.14,-2.1612,-2.1812,-2.1874,-2.1937,-2.2061,-2.1999,-2.2123,-2.2197,-2.2197,-2.2197,-2.2197,-2.2197,-2.2197,-2.2197,-2.2197,-2.2197,-2.233,-2.2438,-2.2522,-2.269,-2.3207,-2.3508,-2.3941,-2.447,-2.4638,-2.4891,-2.5119,-2.5312,-2.5312,-2.5312,-2.5312,-2.5382,-2.0138,-1.9906,-1.9792,-1.9792,-1.9889,-1.9898,-2.0043,-2.0275,-2.0473,-2.0564,-2.0564,-2.0736,-2.0607,-2.0399,-2.0431,-2.0508,-2.0594,-2.0671,-2.068,-2.0662,-2.0476,-2.0516,-2.0507,-2.0304,-2.0123,-1.9879,-1.9842,-1.9697,-1.9507,-1.956,-1.956,-1.9551,-1.9531,-1.9476,-1.9467,-1.9375,-1.9292,-1.9274,-1.9008,-1.8815,-1.8641,-1.8137,-1.7587,-1.7101,-1.6798,-1.6597,-1.6477,-1.6074,-1.5863,-1.5863,-1.5753,-1.5753,-1.5817,-1.5817,-1.5955,-1.6111,-1.6215,-1.6336,-1.6336,-1.6901,-1.7207,-1.7235,-1.7649,-1.7872,-1.793,-1.793,-1.7998,-1.8182,-1.8472,-1.8654,-1.8741,-1.9008,-1.9142,-1.9274,-1.9539,-1.9791,-2.0042,-2.0194,-2.0442,-2.0711,-2.0839,-2.1031,-2.1336,-2.1537,-2.1624,-2.1698,-2.1824,-2.1874,-2.1862,-2.1937,-2.2073,-2.2123,-2.2123,-2.2123,-2.2197,-2.2197,-2.2197,-2.2197,-2.2197,-2.2197,-2.2197,-2.2197,-2.2221,-2.2739,-2.2847,-2.3147,-2.3773,-2.4109,-2.4687,-2.5107,-2.5312,-2.5312,-2.5312,-2.5312,-2.5312,-2.0283,-2.0275,-2.0275,-2.0292,-2.0275,-2.0283,-2.0292,-2.0369,-2.0335,-2.0309,-2.0352,-2.0425,-2.0464,-2.0692,-2.0863,-2.0935,-2.1016,-2.0971,-2.0953,-2.0927,-2.0633,-2.0403,-2.0376,-2.0031,-1.9862,-1.9827,-1.9911,-1.9791,-1.9756,-2.0027,-2.0147,-2.0111,-1.9916,-1.9825,-1.977,-1.9531,-1.932,-1.9338,-1.9274,-1.9091,-1.8779,-1.8678,-1.8265,-1.7578,-1.744,-1.722,-1.689,-1.6496,-1.6294,-1.6294,-1.5945,-1.5725,-1.5716,-1.5725,-1.5808,-1.5956,-1.6337,-1.6609,-1.6798,-1.7177,-1.7472,-1.7491,-1.7501,-1.7598,-1.7716,-1.7716,-1.7784,-1.8008,-1.8202,-1.8337,-1.8482,-1.8674,-1.8942,-1.9065,-1.9208,-1.9528,-1.9868,-2.0053,-2.0183,-2.0388,-2.0711,-2.0967,-2.1325,-2.1388,-2.1474,-2.1624,-2.1698,-2.1686,-2.1686,-2.1761,-2.1824,-2.1874,-2.1937,-2.1999,-2.2135,-2.2197,-2.2197,-2.2197,-2.2197,-2.2197,-2.2197,-2.2197,-2.2234,-2.2318,-2.2618,-2.2907,-2.3183,-2.3749,-2.4542,-2.5023,-2.5252,-2.53,-2.5312,-2.5312,-2.5312,-2.1011,-2.1011,-2.1002,-2.1002,-2.1002,-2.1011,-2.1002,-2.1011,-2.1011,-2.1002,-2.1002,-2.1002,-2.1105,-2.1105,-2.119,-2.1191,-2.1024,-2.0997,-2.0997,-2.0979,-2.0846,-2.0784,-2.0775,-2.0633,-2.0447,-2.0243,-2.013,-2.0093,-1.9786,-1.9938,-1.9947,-1.9929,-1.9889,-1.9901,-1.9996,-1.967,-1.9552,-1.9668,-1.9448,-1.9228,-1.91,-1.9091,-1.8815,-1.8293,-1.7752,-1.7431,-1.7293,-1.6908,-1.6688,-1.6697,-1.6541,-1.6468,-1.6468,-1.6468,-1.6468,-1.6545,-1.6683,-1.6825,-1.6912,-1.7161,-1.7314,-1.7314,-1.7392,-1.7529,-1.752,-1.7588,-1.7657,-1.7794,-1.7852,-1.7988,-1.8212,-1.8405,-1.8684,-1.8875,-1.9075,-1.9274,-1.9539,-1.9802,-2.0053,-2.0259,-2.0518,-2.085,-2.1088,-2.1083,-2.1146,-2.136,-2.1486,-2.1486,-2.1537,-2.1612,-2.1698,-2.1761,-2.1749,-2.1761,-2.1812,-2.2073,-2.2197,-2.2197,-2.2197,-2.2197,-2.2197,-2.2197,-2.2221,-2.2221,-2.2486,-2.2714,-2.2979,-2.364,-2.441,-2.4759,-2.4987,-2.5192,-2.5312,-2.5312,-2.5312,-2.1222,-2.1222,-2.1318,-2.1318,-2.1405,-2.1405,-2.1405,-2.1405,-2.1405,-2.1405,-2.1405,-2.1405,-2.1405,-2.1405,-2.1405,-2.1346,-2.1129,-2.1103,-2.1103,-2.1086,-2.1072,-2.0919,-2.0893,-2.0887,-2.0604,-2.0377,-2.035,-2.021,-2.0,-2.0052,-2.0061,-2.0061,-2.0024,-2.0125,-2.0157,-1.9826,-1.9668,-1.9652,-1.9488,-1.9377,-1.9259,-1.9301,-1.9182,-1.8852,-1.8247,-1.7816,-1.7706,-1.7303,-1.7101,-1.7082,-1.6982,-1.6908,-1.6908,-1.6908,-1.6908,-1.6908,-1.6899,-1.6908,-1.6908,-1.7047,-1.7107,-1.7107,-1.7245,-1.7323,-1.7392,-1.7392,-1.7451,-1.7588,-1.7647,-1.7716,-1.7862,-1.8134,-1.8337,-1.8607,-1.8875,-1.9065,-1.9218,-1.9539,-1.9888,-2.0369,-2.0765,-2.1073,-2.1248,-2.1271,-2.1334,-2.1263,-2.1399,-2.1417,-2.1331,-2.1423,-2.1561,-2.1624,-2.1612,-2.1624,-2.1686,-2.1886,-2.1999,-2.2061,-2.2135,-2.2135,-2.2135,-2.2135,-2.2197,-2.2197,-2.2306,-2.251,-2.2943,-2.358,-2.4025,-2.4386,-2.4711,-2.4951,-2.5119,-2.5312,-2.5312,-2.0774,-2.1,-2.1038,-2.1202,-2.142,-2.1428,-2.1448,-2.1499,-2.1482,-2.1533,-2.1567,-2.1482,-2.1542,-2.1473,-2.155,-2.1448,-2.1518,-2.1509,-2.1457,-2.1371,-2.1105,-2.0976,-2.095,-2.0649,-2.0468,-2.0391,-2.0292,-2.0283,-2.0288,-2.0442,-2.0549,-2.0622,-2.0404,-2.0342,-2.0421,-2.0057,-1.9592,-1.9493,-1.9533,-1.9399,-1.9065,-1.9161,-1.9204,-1.9219,-1.8861,-1.8513,-1.8174,-1.7734,-1.7504,-1.7458,-1.7174,-1.6945,-1.6963,-1.6963,-1.6927,-1.6917,-1.6908,-1.6908,-1.6908,-1.6908,-1.6908,-1.6908,-1.6899,-1.7047,-1.7176,-1.7166,-1.7314,-1.7461,-1.7508,-1.7567,-1.7705,-1.7821,-1.8037,-1.8279,-1.8687,-1.889,-1.9111,-1.926,-1.974,-2.066,-2.1166,-2.1574,-2.1954,-2.1889,-2.1778,-2.1565,-2.1597,-2.1493,-2.1194,-2.1232,-2.1279,-2.1336,-2.1336,-2.1411,-2.1561,-2.1698,-2.1749,-2.1862,-2.1999,-2.2073,-2.2061,-2.2061,-2.2061,-2.2123,-2.2197,-2.239,-2.2594,-2.3195,-2.358,-2.3941,-2.4302,-2.4687,-2.4927,-2.5119,-2.5288,-2.1378,-2.1487,-2.1487,-2.1495,-2.1587,-2.1587,-2.1686,-2.1877,-2.1877,-2.1985,-2.2192,-2.2192,-2.2192,-2.2192,-2.2192,-2.2184,-2.2192,-2.2175,-2.1919,-2.1473,-2.1293,-2.1251,-2.1225,-2.1114,-2.0934,-2.0737,-2.0694,-2.0549,-2.0343,-2.0391,-2.0473,-2.0439,-2.0352,-2.0471,-2.0526,-2.0193,-1.9991,-2.0022,-1.9525,-1.927,-1.9128,-1.9128,-1.9073,-1.9054,-1.9104,-1.9045,-1.8907,-1.8293,-1.7944,-1.7926,-1.7816,-1.7614,-1.7376,-1.7312,-1.7183,-1.6945,-1.6908,-1.6908,-1.6908,-1.6917,-1.6917,-1.6908,-1.6908,-1.6908,-1.6968,-1.6978,-1.7125,-1.7301,-1.7567,-1.7755,-1.7995,-1.8233,-1.8447,-1.8666,-1.8775,-1.9043,-1.9464,-1.9846,-2.0289,-2.0834,-2.1075,-2.129,-2.1581,-2.1732,-2.1779,-2.1831,-2.189,-2.1778,-2.1374,-2.1305,-2.1178,-2.1122,-2.1076,-2.1181,-2.1296,-2.1434,-2.1474,-2.16,-2.1812,-2.1949,-2.1937,-2.1937,-2.1999,-2.1999,-2.2123,-2.227,-2.2474,-2.2751,-2.3135,-2.3544,-2.3941,-2.4314,-2.4687,-2.4927,-2.5095,-2.1428,-2.1522,-2.153,-2.1623,-2.1725,-2.1725,-2.1827,-2.192,-2.1928,-2.2021,-2.2232,-2.2232,-2.2241,-2.2232,-2.2232,-2.2241,-2.2241,-2.2232,-2.1987,-2.1556,-2.1573,-2.1627,-2.1593,-2.1465,-2.1302,-2.1122,-2.1071,-2.0883,-2.0523,-2.0506,-2.0446,-2.0317,-2.0292,-2.0374,-2.0546,-2.0338,-2.0156,-2.0105,-1.963,-1.9235,-1.9124,-1.8967,-1.8843,-1.8922,-1.8993,-1.9152,-1.9107,-1.8738,-1.8419,-1.8348,-1.821,-1.799,-1.7752,-1.7715,-1.7614,-1.7431,-1.7348,-1.7312,-1.7165,-1.7147,-1.7046,-1.6954,-1.6908,-1.6991,-1.7073,-1.7128,-1.7226,-1.7518,-1.7731,-1.7961,-1.8216,-1.8385,-1.8699,-1.9005,-1.9027,-1.9219,-1.9755,-2.0236,-2.0679,-2.102,-2.1301,-2.1498,-2.1736,-2.1808,-2.1865,-2.1969,-2.2044,-2.2007,-2.164,-2.1621,-2.1375,-2.1237,-2.1223,-2.1175,-2.1012,-2.1094,-2.1198,-2.1336,-2.1549,-2.1698,-2.1761,-2.1824,-2.1824,-2.1874,-2.1937,-2.1999,-2.2229,-2.2399,-2.2751,-2.3159,-2.3556,-2.3929,-2.4302,-2.4687,-2.4915,-2.1019,-2.1224,-2.1326,-2.1428,-2.1623,-2.1623,-2.1623,-2.1733,-2.1623,-2.1725,-2.1717,-2.1827,-2.1725,-2.1725,-2.1827,-2.1827,-2.1725,-2.1827,-2.1802,-2.1762,-2.1877,-2.1923,-2.188,-2.1544,-2.1366,-2.136,-2.1352,-2.1156,-2.0908,-2.0738,-2.0694,-2.0403,-2.0335,-2.0292,-2.0374,-2.0283,-2.0103,-1.9892,-1.9661,-1.9279,-1.9016,-1.8786,-1.8718,-1.8709,-1.8692,-1.8843,-1.8904,-1.8921,-1.8837,-1.8674,-1.8449,-1.8265,-1.8174,-1.8155,-1.8146,-1.8036,-1.8091,-1.7871,-1.7614,-1.7532,-1.7403,-1.7138,-1.7119,-1.7119,-1.7468,-1.7541,-1.7651,-1.7944,-1.81,-1.823,-1.8369,-1.8555,-1.8779,-1.9165,-1.9322,-1.9527,-1.9843,-2.0414,-2.0828,-2.1154,-2.1668,-2.2069,-2.2189,-2.22,-2.2094,-2.2017,-2.2107,-2.2034,-2.1767,-2.1688,-2.1776,-2.161,-2.1275,-2.1173,-2.1079,-2.0937,-2.0978,-2.1031,-2.1233,-2.1371,-2.1572,-2.1624,-2.1698,-2.1749,-2.1812,-2.1874,-2.1961,-2.2142,-2.2399,-2.2711,-2.3095,-2.3532,-2.3953,-2.4386,-2.4819,-2.0617,-2.0719,-2.0925,-2.1019,-2.1121,-2.1121,-2.1224,-2.1428,-2.142,-2.1522,-2.1623,-2.1725,-2.1623,-2.1725,-2.1725,-2.1725,-2.1623,-2.1623,-2.1725,-2.1717,-2.1744,-2.1795,-2.1787,-2.1687,-2.1487,-2.1295,-2.1343,-2.1168,-2.0982,-2.0762,-2.0662,-2.072,-2.0437,-2.03,-2.0292,-2.0292,-2.0257,-2.0112,-1.9769,-1.9488,-1.9203,-1.8889,-1.8731,-1.846,-1.8612,-1.8692,-1.8772,-1.8772,-1.8895,-1.9094,-1.9063,-1.8852,-1.8595,-1.8559,-1.8458,-1.8238,-1.8155,-1.81,-1.7999,-1.7963,-1.7899,-1.7825,-1.7715,-1.7853,-1.7926,-1.7963,-1.8018,-1.8174,-1.8357,-1.8559,-1.8672,-1.8865,-1.9173,-1.9509,-1.9687,-2.009,-2.0434,-2.0715,-2.0958,-2.1131,-2.1364,-2.1634,-2.1873,-2.1939,-2.1973,-2.2083,-2.2137,-2.2189,-2.1803,-2.1776,-2.1849,-2.152,-2.127,-2.1174,-2.1107,-2.0859,-2.082,-2.0797,-2.0862,-2.1042,-2.1233,-2.1411,-2.1549,-2.1686,-2.1686,-2.1737,-2.1749,-2.1883,-2.2076,-2.2309,-2.2583,-2.2977,-2.3658,-2.4206,-2.4618,-1.9891,-1.9899,-2.0241,-2.0405,-2.0319,-2.0546,-2.0609,-2.0806,-2.0917,-2.1019,-2.1216,-2.1326,-2.1326,-2.1326,-2.1318,-2.1326,-2.1318,-2.1318,-2.1318,-2.1326,-2.131,-2.1514,-2.1615,-2.1717,-2.161,-2.1461,-2.1428,-2.1321,-2.1112,-2.087,-2.0732,-2.05,-2.0365,-2.018,-2.011,-2.011,-2.0201,-2.0223,-1.9932,-1.9624,-1.9401,-1.8955,-1.8694,-1.8499,-1.8475,-1.8451,-1.8531,-1.862,-1.886,-1.9002,-1.9143,-1.9043,-1.8843,-1.8884,-1.8852,-1.8623,-1.8614,-1.8559,-1.8394,-1.8366,-1.8293,-1.8155,-1.8119,-1.8219,-1.832,-1.8375,-1.8394,-1.865,-1.8843,-1.8935,-1.899,-1.9173,-1.9371,-1.9539,-1.9872,-2.0196,-2.0586,-2.0712,-2.0819,-2.1051,-2.1128,-2.1282,-2.1502,-2.1502,-2.1655,-2.1797,-2.1983,-2.1933,-2.1829,-2.184,-2.1828,-2.1575,-2.128,-2.1224,-2.1002,-2.0797,-2.0599,-2.0608,-2.0604,-2.0733,-2.0903,-2.1146,-2.1285,-2.1423,-2.1486,-2.1549,-2.1561,-2.1624,-2.1808,-2.2001,-2.2178,-2.2526,-2.318,-2.3819,-2.4321,-1.8996,-1.9132,-1.943,-1.9559,-1.9598,-1.9849,-2.0051,-2.0128,-2.0318,-2.0467,-2.0506,-2.0712,-2.0814,-2.0822,-2.0814,-2.0822,-2.0806,-2.0806,-2.0814,-2.0814,-2.0806,-2.1011,-2.1318,-2.1522,-2.1505,-2.1473,-2.1607,-2.1443,-2.1188,-2.1106,-2.0858,-2.05,-2.0284,-2.0019,-1.9987,-1.9887,-2.0027,-2.0059,-1.9928,-1.9715,-1.9493,-1.9059,-1.8757,-1.8576,-1.8267,-1.821,-1.8362,-1.8531,-1.8612,-1.862,-1.8843,-1.8913,-1.8975,-1.9134,-1.9195,-1.9149,-1.9016,-1.8906,-1.8775,-1.8693,-1.8583,-1.8412,-1.833,-1.8385,-1.8687,-1.8779,-1.8889,-1.9127,-1.9274,-1.9237,-1.9246,-1.9292,-1.9381,-1.9557,-1.9557,-1.9803,-2.0108,-2.042,-2.0576,-2.0829,-2.0984,-2.1051,-2.1128,-2.1205,-2.1205,-2.1502,-2.1578,-2.1603,-2.1597,-2.1707,-2.1711,-2.1692,-2.1468,-2.1307,-2.1032,-2.073,-2.0541,-2.0368,-2.0423,-2.0464,-2.0646,-2.0828,-2.0967,-2.1094,-2.1233,-2.1285,-2.1348,-2.1411,-2.1561,-2.1647,-2.1851,-2.2086,-2.2492,-2.3171,-2.3715,-1.8595,-1.8792,-1.9072,-1.9208,-1.9224,-1.9285,-1.9468,-1.9704,-1.972,-1.9865,-2.0143,-2.0285,-2.0292,-2.0285,-2.0292,-2.0292,-2.0292,-2.0292,-2.0292,-2.0285,-2.0285,-2.0285,-2.0601,-2.0814,-2.1019,-2.1019,-2.1019,-2.1175,-2.1172,-2.0945,-2.0949,-2.0827,-2.0284,-2.0066,-2.0052,-1.9778,-1.9671,-1.9745,-1.9835,-1.974,-1.947,-1.9229,-1.8896,-1.8605,-1.8237,-1.8049,-1.804,-1.8121,-1.8121,-1.8282,-1.8531,-1.8772,-1.8772,-1.8851,-1.8851,-1.8851,-1.8851,-1.8877,-1.8894,-1.891,-1.8979,-1.8921,-1.8866,-1.9081,-1.9136,-1.9146,-1.9191,-1.9292,-1.9292,-1.9292,-1.9292,-1.9292,-1.9301,-1.9381,-1.939,-1.9469,-1.9715,-1.9951,-2.0186,-2.0342,-2.0498,-2.0576,-2.0896,-2.0906,-2.0984,-2.1128,-2.1205,-2.1282,-2.1359,-2.1502,-2.1532,-2.1582,-2.148,-2.1209,-2.0999,-2.0779,-2.0567,-2.0468,-2.0443,-2.0303,-2.0478,-2.0542,-2.0705,-2.0865,-2.0914,-2.0967,-2.1094,-2.1146,-2.1296,-2.1348,-2.1486,-2.1742,-2.2133,-2.2725,-2.3262,-1.7556,-1.7763,-1.8021,-1.8184,-1.8206,-1.8346,-1.8515,-1.8684,-1.8932,-1.9182,-1.9558,-1.9796,-1.9983,-2.0078,-2.0086,-2.0086,-2.0086,-1.9983,-1.9879,-1.9783,-1.968,-1.968,-1.9776,-2.0094,-2.0403,-2.0506,-2.0506,-2.0601,-2.0649,-2.0624,-2.0466,-2.0576,-2.0144,-1.9892,-1.9886,-1.9576,-1.9496,-1.9587,-1.9671,-1.9654,-1.9527,-1.9272,-1.887,-1.8464,-1.8082,-1.787,-1.7959,-1.8031,-1.8031,-1.804,-1.8201,-1.8451,-1.8531,-1.8612,-1.87,-1.8709,-1.8709,-1.87,-1.8851,-1.8851,-1.8922,-1.8993,-1.9073,-1.9152,-1.9222,-1.9222,-1.9292,-1.9292,-1.9292,-1.9292,-1.9292,-1.9292,-1.9292,-1.9292,-1.9292,-1.9301,-1.9469,-1.9636,-1.9872,-2.002,-2.0098,-2.0186,-2.0352,-2.0586,-2.0586,-2.0654,-2.0974,-2.1061,-2.1128,-2.1205,-2.1359,-2.139,-2.1277,-2.1138,-2.0978,-2.0834,-2.067,-2.0631,-2.0722,-2.05,-2.0363,-2.0466,-2.0567,-2.0631,-2.0658,-2.0797,-2.085,-2.0978,-2.1031,-2.1094,-2.1267,-2.147,-2.1835,-2.2356,-2.2817,-1.6487,-1.6602,-1.6868,-1.698,-1.7022,-1.7344,-1.7478,-1.7584,-1.8003,-1.8405,-1.8665,-1.9155,-1.9442,-1.9693,-1.9761,-1.9768,-1.9768,-1.9569,-1.9264,-1.9168,-1.916,-1.916,-1.9264,-1.9368,-1.9569,-1.9872,-2.0078,-2.0181,-2.0189,-2.0071,-2.0233,-1.9961,-1.9743,-1.961,-1.9542,-1.9293,-1.9184,-1.9328,-1.9396,-1.9479,-1.948,-1.9158,-1.8717,-1.8162,-1.782,-1.7716,-1.7797,-1.7878,-1.787,-1.7951,-1.7959,-1.8121,-1.8282,-1.8451,-1.862,-1.862,-1.854,-1.8531,-1.8612,-1.8692,-1.8692,-1.8692,-1.8851,-1.8922,-1.9002,-1.9073,-1.9143,-1.9152,-1.9231,-1.9222,-1.9292,-1.9292,-1.9292,-1.9292,-1.9292,-1.9292,-1.9292,-1.9469,-1.9636,-1.9794,-1.9872,-1.9951,-2.0029,-2.0186,-2.0186,-2.0264,-2.0586,-2.0829,-2.0906,-2.0906,-2.0974,-2.1138,-2.1094,-2.112,-2.1008,-2.0737,-2.0669,-2.0698,-2.0839,-2.0625,-2.0419,-2.0572,-2.0682,-2.0435,-2.0464,-2.054,-2.0604,-2.0722,-2.0775,-2.0839,-2.0926,-2.1133,-2.1552,-2.2065,-2.25,-1.6103,-1.6292,-1.6543,-1.6658,-1.6672,-1.6728,-1.6917,-1.7211,-1.7204,-1.745,-1.7817,-1.8108,-1.8344,-1.8401,-1.8636,-1.8722,-1.8715,-1.8632,-1.8527,-1.8527,-1.8527,-1.8534,-1.8534,-1.8527,-1.8632,-1.8938,-1.9457,-1.9872,-1.9983,-2.0071,-1.993,-1.9926,-1.9651,-1.9414,-1.9167,-1.8866,-1.8699,-1.8783,-1.8843,-1.902,-1.9115,-1.9003,-1.8625,-1.8036,-1.7722,-1.7523,-1.7473,-1.7554,-1.7546,-1.77,-1.7781,-1.787,-1.804,-1.8121,-1.8121,-1.8201,-1.8201,-1.8282,-1.8442,-1.8442,-1.8531,-1.8692,-1.8692,-1.878,-1.8772,-1.8772,-1.8851,-1.8922,-1.9002,-1.9073,-1.9292,-1.9213,-1.9301,-1.9301,-1.9292,-1.9292,-1.9301,-1.9381,-1.9478,-1.9627,-1.9636,-1.9715,-1.9794,-1.9872,-1.9951,-2.0029,-2.0186,-2.0352,-2.043,-2.0508,-2.0586,-2.0741,-2.0974,-2.1021,-2.1115,-2.0752,-2.0579,-2.0655,-2.0689,-2.0658,-2.0532,-2.0783,-2.0738,-2.0325,-2.0194,-2.026,-2.0368,-2.0475,-2.0582,-2.0582,-2.0658,-2.0733,-2.1291,-2.181,-2.2321,-1.5547,-1.5642,-1.5737,-1.5838,-1.5838,-1.5838,-1.5912,-1.6059,-1.6213,-1.6444,-1.6731,-1.7075,-1.7225,-1.7408,-1.764,-1.7741,-1.7759,-1.7799,-1.7687,-1.7575,-1.7575,-1.7582,-1.7582,-1.7687,-1.7898,-1.8108,-1.8736,-1.9153,-1.9153,-1.9146,-1.9457,-1.9598,-1.9351,-1.913,-1.8996,-1.875,-1.8525,-1.8365,-1.8373,-1.845,-1.8603,-1.8486,-1.8194,-1.8026,-1.7687,-1.7516,-1.7408,-1.7392,-1.7465,-1.7546,-1.7546,-1.7627,-1.7635,-1.7716,-1.7797,-1.7959,-1.7951,-1.8031,-1.8193,-1.8201,-1.8201,-1.8282,-1.8451,-1.8531,-1.8612,-1.8612,-1.87,-1.87,-1.878,-1.8851,-1.9011,-1.9073,-1.9152,-1.9152,-1.9231,-1.9301,-1.9292,-1.9292,-1.9381,-1.946,-1.946,-1.9469,-1.9548,-1.9627,-1.9715,-1.9794,-1.9863,-1.9942,-2.0108,-2.0108,-2.0196,-2.0342,-2.0586,-2.0741,-2.0886,-2.0775,-2.0536,-2.0637,-2.0707,-2.0612,-2.0553,-2.0741,-2.0442,-1.9998,-1.9923,-2.0143,-1.9932,-2.0031,-2.0205,-2.0335,-2.0422,-2.0521,-2.1085,-2.1621,-2.2127,-1.4823,-1.4823,-1.4911,-1.4911,-1.4924,-1.4981,-1.4988,-1.5051,-1.5383,-1.5589,-1.5732,-1.6077,-1.6327,-1.6607,-1.6832,-1.7008,-1.6963,-1.7068,-1.6983,-1.6836,-1.6836,-1.673,-1.6836,-1.6948,-1.7272,-1.7477,-1.7687,-1.801,-1.8527,-1.8527,-1.8736,-1.8858,-1.873,-1.8621,-1.8602,-1.8282,-1.8145,-1.8006,-1.79,-1.7986,-1.8003,-1.7933,-1.7869,-1.7874,-1.7608,-1.7255,-1.7106,-1.7147,-1.7229,-1.7302,-1.7302,-1.7392,-1.7392,-1.7392,-1.7554,-1.7797,-1.7878,-1.7878,-1.7951,-1.7951,-1.7951,-1.804,-1.8201,-1.8282,-1.8362,-1.8451,-1.8531,-1.862,-1.8612,-1.87,-1.878,-1.8851,-1.8931,-1.8922,-1.9073,-1.9143,-1.9222,-1.9222,-1.9222,-1.9301,-1.9292,-1.9301,-1.939,-1.9381,-1.9548,-1.9548,-1.9627,-1.9715,-1.9794,-1.9872,-1.9951,-2.002,-2.0177,-2.0342,-2.0498,-2.0664,-2.0584,-2.0621,-2.0745,-2.0777,-2.0742,-2.0672,-2.032,-2.006,-2.0165,-2.0229,-1.9886,-1.9656,-1.9952,-2.0161,-2.0107,-2.0314,-2.0785,-2.1528,-2.2184,-1.3799,-1.3805,-1.4248,-1.4417,-1.4383,-1.46,-1.4695,-1.4733,-1.4905,-1.5134,-1.514,-1.5407,-1.5547,-1.5735,-1.594,-1.6215,-1.6297,-1.6276,-1.6358,-1.638,-1.6424,-1.6417,-1.6586,-1.6723,-1.6641,-1.6721,-1.6864,-1.7477,-1.7948,-1.815,-1.8304,-1.8331,-1.8196,-1.7994,-1.7732,-1.7678,-1.7273,-1.7384,-1.7419,-1.7613,-1.794,-1.7766,-1.7543,-1.7262,-1.6962,-1.6699,-1.6637,-1.6648,-1.6722,-1.7057,-1.7139,-1.7221,-1.731,-1.7392,-1.7392,-1.7481,-1.7473,-1.7554,-1.77,-1.77,-1.7781,-1.7878,-1.7959,-1.8031,-1.8121,-1.8121,-1.8282,-1.8442,-1.8442,-1.8442,-1.862,-1.87,-1.878,-1.8772,-1.8772,-1.8922,-1.9002,-1.9002,-1.9073,-1.9152,-1.9143,-1.9143,-1.9231,-1.9301,-1.9301,-1.9301,-1.939,-1.9469,-1.9557,-1.9636,-1.9715,-1.9784,-1.9863,-2.002,-2.0186,-2.0342,-2.042,-2.0508,-2.0644,-2.0789,-2.0757,-2.0619,-2.0691,-2.0551,-2.0518,-2.0349,-1.9959,-1.9875,-1.9927,-2.002,-2.0172,-2.0236,-2.0343,-2.122,-2.2188,-1.2612,-1.315,-1.3417,-1.3411,-1.3429,-1.3634,-1.3585,-1.3638,-1.3866,-1.398,-1.4034,-1.4268,-1.446,-1.4696,-1.4742,-1.4915,-1.5113,-1.5264,-1.5209,-1.5427,-1.5457,-1.5451,-1.553,-1.564,-1.5646,-1.5987,-1.6053,-1.633,-1.6955,-1.7297,-1.7417,-1.7542,-1.7503,-1.7392,-1.7021,-1.7127,-1.6971,-1.6949,-1.6958,-1.7052,-1.7397,-1.745,-1.7243,-1.6934,-1.6847,-1.6583,-1.6285,-1.6237,-1.6319,-1.6574,-1.6574,-1.6574,-1.6664,-1.6664,-1.6738,-1.6812,-1.6812,-1.7057,-1.7465,-1.7546,-1.7627,-1.7627,-1.7635,-1.7716,-1.7789,-1.7959,-1.804,-1.8193,-1.8201,-1.8201,-1.8362,-1.8451,-1.8531,-1.8531,-1.8612,-1.87,-1.8772,-1.8772,-1.8851,-1.8922,-1.9002,-1.9002,-1.9082,-1.9152,-1.9222,-1.9301,-1.9301,-1.9381,-1.939,-1.946,-1.9548,-1.9715,-1.9715,-1.9784,-1.9942,-2.0098,-2.0098,-2.0108,-2.0186,-2.0333,-2.0489,-2.0488,-2.0544,-2.0698,-2.0655,-2.0416,-2.007,-1.9992,-1.9968,-2.0076,-2.0216,-2.0411,-2.0547,-2.1137,-2.2024,-1.1625,-1.2316,-1.2507,-1.2591,-1.2603,-1.266,-1.2688,-1.2717,-1.3049,-1.3187,-1.3214,-1.3431,-1.3653,-1.3779,-1.3929,-1.405,-1.428,-1.4185,-1.4236,-1.4259,-1.4378,-1.4508,-1.4651,-1.473,-1.4826,-1.519,-1.5167,-1.5365,-1.5559,-1.5931,-1.616,-1.6542,-1.6704,-1.658,-1.6471,-1.6456,-1.6389,-1.6427,-1.6487,-1.6676,-1.6871,-1.7044,-1.6846,-1.6669,-1.6565,-1.65,-1.5951,-1.5914,-1.5914,-1.5997,-1.617,-1.617,-1.626,-1.6252,-1.6245,-1.6402,-1.6409,-1.6574,-1.6984,-1.7147,-1.7318,-1.7392,-1.7392,-1.7473,-1.7627,-1.7789,-1.787,-1.7942,-1.7951,-1.7951,-1.804,-1.8201,-1.8282,-1.8282,-1.8362,-1.8531,-1.862,-1.8612,-1.8692,-1.878,-1.8851,-1.878,-1.8851,-1.9002,-1.9073,-1.9222,-1.9222,-1.9292,-1.9292,-1.9301,-1.9381,-1.9548,-1.9548,-1.9539,-1.9627,-1.9784,-1.9784,-1.9863,-1.9863,-1.9951,-2.0186,-2.0255,-2.0275,-2.0391,-2.0576,-2.0458,-2.0092,-2.0038,-1.9988,-2.0053,-2.0216,-2.0679,-2.098,-2.1418,-2.1829,-1.0743,-1.0947,-1.1749,-1.2031,-1.2054,-1.234,-1.2437,-1.2371,-1.2609,-1.2842,-1.304,-1.3301,-1.3329,-1.3471,-1.3413,-1.363,-1.3933,-1.3933,-1.3936,-1.4173,-1.427,-1.4202,-1.4185,-1.428,-1.4315,-1.4422,-1.447,-1.4482,-1.4451,-1.4624,-1.5232,-1.5922,-1.5763,-1.569,-1.5615,-1.5544,-1.5741,-1.5832,-1.6015,-1.6292,-1.6494,-1.6532,-1.6366,-1.5908,-1.58,-1.5559,-1.5223,-1.5325,-1.5484,-1.565,-1.5748,-1.5922,-1.5839,-1.5839,-1.5914,-1.5997,-1.6079,-1.6162,-1.6409,-1.6738,-1.7139,-1.731,-1.7392,-1.7392,-1.7465,-1.7473,-1.7546,-1.77,-1.7708,-1.7789,-1.787,-1.8031,-1.8031,-1.8031,-1.8121,-1.829,-1.8371,-1.8371,-1.8451,-1.862,-1.862,-1.854,-1.862,-1.8683,-1.8922,-1.8993,-1.9152,-1.9222,-1.9222,-1.9222,-1.9292,-1.9381,-1.9381,-1.9371,-1.9381,-1.946,-1.9548,-1.9627,-1.9706,-1.9784,-1.9942,-1.9942,-1.9942,-2.002,-2.0186,-2.0226,-2.0246,-2.0127,-2.0029,-1.9982,-2.0212,-2.0703,-2.0982,-2.1339,-2.1709,-1.0467,-1.0727,-1.0982,-1.1073,-1.117,-1.1348,-1.1385,-1.1428,-1.1636,-1.1871,-1.2101,-1.2331,-1.2358,-1.2486,-1.2711,-1.2899,-1.2986,-1.3188,-1.327,-1.3292,-1.3331,-1.343,-1.3529,-1.3551,-1.3622,-1.3743,-1.3836,-1.3825,-1.3808,-1.3771,-1.3929,-1.4398,-1.4752,-1.4875,-1.4855,-1.4961,-1.5198,-1.5267,-1.5452,-1.5642,-1.5737,-1.5988,-1.5824,-1.5286,-1.5582,-1.5343,-1.5021,-1.4915,-1.4985,-1.5068,-1.5242,-1.5242,-1.5333,-1.5325,-1.5409,-1.5499,-1.5582,-1.5741,-1.5906,-1.6237,-1.6574,-1.6812,-1.7057,-1.7221,-1.7139,-1.731,-1.7383,-1.7465,-1.7546,-1.7546,-1.7627,-1.7708,-1.7781,-1.787,-1.787,-1.804,-1.8121,-1.8121,-1.8201,-1.829,-1.829,-1.8201,-1.829,-1.8451,-1.8603,-1.8763,-1.9002,-1.9152,-1.9152,-1.9222,-1.9222,-1.9292,-1.9292,-1.9292,-1.9292,-1.9381,-1.9469,-1.9469,-1.9548,-1.9627,-1.9706,-1.9715,-1.9715,-1.9794,-1.9863,-1.9923,-2.0041,-2.011,-2.0158,-2.0171,-2.0381,-2.0761,-2.1054,-2.1237,-2.1517,-1.0043,-1.0294,-1.0202,-1.0376,-1.0641,-1.0733,-1.0733,-1.0758,-1.0901,-1.101,-1.1324,-1.1543,-1.1556,-1.1711,-1.197,-1.2164,-1.2297,-1.2436,-1.2565,-1.2597,-1.2607,-1.2667,-1.2759,-1.278,-1.2829,-1.305,-1.305,-1.3083,-1.3008,-1.3061,-1.3191,-1.3344,-1.378,-1.394,-1.4183,-1.4406,-1.47,-1.4796,-1.4885,-1.4981,-1.5178,-1.5328,-1.5206,-1.4804,-1.4945,-1.4737,-1.4372,-1.4321,-1.4405,-1.4489,-1.4566,-1.4643,-1.465,-1.465,-1.4824,-1.4992,-1.5159,-1.5228,-1.5484,-1.5824,-1.6162,-1.6402,-1.6566,-1.673,-1.6812,-1.6976,-1.7057,-1.7147,-1.7229,-1.731,-1.731,-1.7546,-1.7627,-1.7627,-1.7635,-1.7716,-1.7797,-1.7878,-1.787,-1.7951,-1.7951,-1.804,-1.8121,-1.8201,-1.8451,-1.8612,-1.8772,-1.8922,-1.8922,-1.8993,-1.9143,-1.9222,-1.9222,-1.9301,-1.9292,-1.9301,-1.9381,-1.9381,-1.9381,-1.939,-1.9469,-1.9478,-1.9557,-1.9548,-1.9627,-1.9706,-1.9835,-1.9866,-2.0129,-2.0372,-2.0547,-2.0663,-2.0924,-2.1088,-2.1165,-0.9441,-0.9349,-0.9441,-0.9956,-1.0554,-1.0727,-1.0641,-1.0554,-1.0584,-1.071,-1.092,-1.1131,-1.1318,-1.1374,-1.1467,-1.1557,-1.1697,-1.1834,-1.1996,-1.1971,-1.2093,-1.2042,-1.2058,-1.215,-1.2273,-1.2078,-1.2175,-1.2273,-1.2175,-1.2273,-1.237,-1.2467,-1.2899,-1.3186,-1.3539,-1.3539,-1.3829,-1.4202,-1.4298,-1.4598,-1.4746,-1.4747,-1.4542,-1.4263,-1.4179,-1.3983,-1.3736,-1.3822,-1.3899,-1.3899,-1.4146,-1.423,-1.4314,-1.4405,-1.4573,-1.4573,-1.4657,-1.4734,-1.4817,-1.5582,-1.5914,-1.6079,-1.6162,-1.6245,-1.6252,-1.6327,-1.6566,-1.6738,-1.6894,-1.7147,-1.7229,-1.74,-1.7392,-1.7392,-1.7473,-1.7554,-1.7635,-1.7627,-1.7708,-1.7708,-1.7878,-1.7959,-1.7959,-1.804,-1.829,-1.846,-1.862,-1.87,-1.8692,-1.8851,-1.8993,-1.8993,-1.9073,-1.9152,-1.9143,-1.9222,-1.9301,-1.9292,-1.9292,-1.9301,-1.9301,-1.9381,-1.9381,-1.9381,-1.946,-1.9539,-1.9548,-1.9627,-1.9872,-2.0108,-2.0264,-2.0411,-2.0673,-2.0906,-2.0896,-0.8911,-0.8815,-0.8903,-0.917,-0.9515,-0.9694,-0.9781,-0.9777,-0.9781,-0.9818,-0.9916,-1.0092,-1.0181,-1.0337,-1.057,-1.0777,-1.0894,-1.118,-1.1348,-1.1382,-1.1597,-1.1748,-1.1788,-1.1773,-1.1853,-1.1975,-1.1975,-1.1853,-1.2078,-1.1858,-1.197,-1.217,-1.2268,-1.2759,-1.3249,-1.3539,-1.363,-1.3732,-1.3829,-1.3919,-1.3986,-1.3944,-1.3859,-1.3501,-1.3508,-1.3399,-1.3168,-1.3313,-1.3392,-1.3392,-1.3646,-1.3724,-1.373,-1.3899,-1.3899,-1.3899,-1.3984,-1.423,-1.4482,-1.4985,-1.5325,-1.5492,-1.5741,-1.5831,-1.6087,-1.617,-1.6252,-1.6327,-1.6409,-1.6574,-1.6648,-1.6902,-1.6984,-1.7229,-1.731,-1.7392,-1.7473,-1.7465,-1.7465,-1.7465,-1.7554,-1.7708,-1.7789,-1.7797,-1.7959,-1.821,-1.829,-1.8451,-1.8523,-1.8692,-1.878,-1.8772,-1.8851,-1.8922,-1.9082,-1.9073,-1.9152,-1.9222,-1.9222,-1.9292,-1.9292,-1.9292,-1.9292,-1.9292,-1.9301,-1.9301,-1.9381,-1.9469,-1.9548,-1.9706,-1.9872,-2.0029,-2.0264,-2.043,-2.0498,-0.8384,-0.8372,-0.8193,-0.8285,-0.8648,-0.9087,-0.9349,-0.9349,-0.9349,-0.9349,-0.938,-0.9482,-0.9531,-0.9589,-0.9813,-1.0104,-1.0108,-1.0463,-1.0579,-1.0686,-1.0899,-1.0961,-1.1024,-1.1196,-1.1106,-1.1274,-1.1284,-1.1178,-1.1255,-1.1269,-1.1414,-1.1565,-1.1775,-1.217,-1.2662,-1.2856,-1.2953,-1.305,-1.3147,-1.3346,-1.3437,-1.3325,-1.3216,-1.3085,-1.3004,-1.2874,-1.2765,-1.2802,-1.2966,-1.2973,-1.3058,-1.3052,-1.3137,-1.3222,-1.3313,-1.3398,-1.3561,-1.3815,-1.3977,-1.4146,-1.4489,-1.4824,-1.5151,-1.5409,-1.5665,-1.5658,-1.5824,-1.5906,-1.5997,-1.6162,-1.6327,-1.6492,-1.6574,-1.682,-1.6902,-1.6984,-1.7057,-1.7057,-1.7221,-1.7229,-1.731,-1.7465,-1.7546,-1.7627,-1.7708,-1.7878,-1.804,-1.8112,-1.8273,-1.8451,-1.862,-1.8612,-1.8612,-1.8772,-1.8851,-1.8843,-1.9002,-1.9082,-1.9152,-1.9143,-1.9222,-1.9231,-1.9222,-1.9292,-1.9301,-1.9301,-1.9292,-1.9371,-1.9381,-1.946,-1.9548,-1.9706,-1.9863,-2.0029,-2.0186,-0.7837,-0.7753,-0.7295,-0.7383,-0.7929,-0.8723,-0.917,-0.9262,-0.9262,-0.9174,-0.9178,-0.9183,-0.9121,-0.9222,-0.9455,-0.9435,-0.9457,-0.9697,-0.9732,-0.9868,-0.9983,-0.9908,-1.0027,-1.0068,-1.0229,-1.0086,-1.009,-1.0405,-1.0192,-1.0391,-1.0583,-1.0826,-1.1225,-1.1448,-1.1658,-1.1878,-1.217,-1.2467,-1.2662,-1.2732,-1.2811,-1.2774,-1.2556,-1.2428,-1.2246,-1.2117,-1.2032,-1.2118,-1.2118,-1.2209,-1.2289,-1.2454,-1.2705,-1.296,-1.3137,-1.3228,-1.3307,-1.3307,-1.3392,-1.3476,-1.3737,-1.4159,-1.4405,-1.4566,-1.4901,-1.5235,-1.5318,-1.5484,-1.5575,-1.5831,-1.6087,-1.6087,-1.6087,-1.617,-1.6252,-1.6335,-1.6484,-1.6566,-1.6812,-1.6894,-1.7147,-1.7221,-1.7383,-1.7383,-1.7383,-1.7554,-1.7716,-1.7789,-1.7951,-1.8193,-1.8362,-1.8371,-1.8451,-1.862,-1.8692,-1.8692,-1.8772,-1.8922,-1.8922,-1.9002,-1.9082,-1.9082,-1.9152,-1.9143,-1.9222,-1.9301,-1.9292,-1.9292,-1.9292,-1.9381,-1.9381,-1.9469,-1.9627,-1.9784,-1.9942,-0.7007,-0.6583,-0.6589,-0.6717,-0.7,-0.7534,-0.7937,-0.8292,-0.8292,-0.8292,-0.8292,-0.8292,-0.838,-0.83,-0.8344,-0.8367,-0.848,-0.8585,-0.8686,-0.8837,-0.9038,-0.9163,-0.9309,-0.9372,-0.9528,-0.9634,-0.9736,-0.9736,-0.9903,-0.9921,-1.0022,-1.0359,-1.0486,-1.0554,-1.0728,-1.0792,-1.1361,-1.1848,-1.2027,-1.2169,-1.2019,-1.1915,-1.1812,-1.1584,-1.1526,-1.1359,-1.1505,-1.1682,-1.1774,-1.1952,-1.2037,-1.2118,-1.2209,-1.2295,-1.2381,-1.2381,-1.2546,-1.2705,-1.2875,-1.3052,-1.3313,-1.3483,-1.3737,-1.4153,-1.4482,-1.4734,-1.4901,-1.4992,-1.5159,-1.5325,-1.5575,-1.5575,-1.5658,-1.5831,-1.5839,-1.5914,-1.6072,-1.6154,-1.6402,-1.6574,-1.6738,-1.6902,-1.7057,-1.7139,-1.7139,-1.731,-1.7473,-1.7546,-1.7627,-1.7951,-1.8112,-1.8112,-1.8201,-1.829,-1.8451,-1.8442,-1.8612,-1.8692,-1.8772,-1.8772,-1.8851,-1.8843,-1.8922,-1.8993,-1.9073,-1.9222,-1.9292,-1.9292,-1.9222,-1.9292,-1.9292,-1.9381,-1.9469,-1.9627,-1.9715,-0.6379,-0.5963,-0.5858,-0.6063,-0.6433,-0.6644,-0.697,-0.7243,-0.7471,-0.7588,-0.7584,-0.7584,-0.7584,-0.7588,-0.7591,-0.7683,-0.786,-0.7959,-0.8055,-0.8267,-0.8313,-0.8434,-0.8595,-0.8737,-0.875,-0.8976,-0.8993,-0.898,-0.9255,-0.9262,-0.9357,-0.942,-0.9527,-0.9689,-0.9744,-0.9949,-1.0249,-1.0761,-1.1173,-1.1264,-1.1208,-1.1071,-1.1041,-1.088,-1.0835,-1.0921,-1.1068,-1.1241,-1.1338,-1.1429,-1.1429,-1.1516,-1.1602,-1.1774,-1.186,-1.1946,-1.2118,-1.2289,-1.246,-1.254,-1.2802,-1.2973,-1.3052,-1.3476,-1.3899,-1.4237,-1.4405,-1.4496,-1.4657,-1.4817,-1.4977,-1.5144,-1.5318,-1.5492,-1.5492,-1.5582,-1.5665,-1.5741,-1.5914,-1.6079,-1.6245,-1.6409,-1.6574,-1.673,-1.6894,-1.6894,-1.7057,-1.7302,-1.7383,-1.7554,-1.7789,-1.787,-1.7951,-1.7959,-1.8121,-1.8201,-1.8282,-1.8362,-1.8523,-1.8523,-1.8612,-1.8692,-1.8772,-1.8843,-1.8913,-1.9073,-1.9143,-1.9143,-1.9143,-1.9222,-1.9213,-1.9301,-1.9381,-1.939,-1.9478,-0.5838,-0.5658,-0.517,-0.5355,-0.5972,-0.609,-0.6138,-0.6236,-0.6592,-0.6939,-0.7044,-0.7051,-0.7054,-0.7051,-0.7051,-0.7139,-0.7228,-0.7316,-0.7404,-0.7768,-0.7694,-0.7712,-0.7709,-0.7779,-0.7945,-0.7893,-0.7893,-0.8091,-0.8098,-0.8264,-0.8325,-0.8318,-0.8598,-0.8828,-0.8973,-0.9075,-0.9374,-0.9678,-0.9991,-1.0279,-1.0501,-1.0485,-1.0622,-1.0563,-1.0509,-1.0559,-1.0554,-1.0641,-1.0641,-1.0641,-1.0727,-1.0814,-1.1073,-1.1332,-1.1505,-1.1591,-1.1682,-1.186,-1.1946,-1.2026,-1.2203,-1.2369,-1.2534,-1.2796,-1.3143,-1.3737,-1.399,-1.4075,-1.4153,-1.4321,-1.4482,-1.465,-1.4824,-1.4985,-1.5068,-1.5159,-1.5325,-1.5401,-1.5492,-1.5658,-1.5906,-1.6072,-1.6327,-1.6492,-1.6484,-1.6566,-1.6648,-1.6894,-1.7057,-1.7221,-1.7383,-1.7546,-1.7708,-1.7708,-1.7797,-1.7878,-1.7951,-1.804,-1.8201,-1.8353,-1.8362,-1.8451,-1.87,-1.8692,-1.8763,-1.8843,-1.8922,-1.9002,-1.9002,-1.9073,-1.9143,-1.9222,-1.9301,-1.932,-1.939,-0.4698,-0.4706,-0.4705,-0.4871,-0.5035,-0.5066,-0.5078,-0.5076,-0.5186,-0.5728,-0.6401,-0.6511,-0.6511,-0.6502,-0.6517,-0.6609,-0.6605,-0.6697,-0.6697,-0.6786,-0.6786,-0.6874,-0.6786,-0.6966,-0.7058,-0.7146,-0.7241,-0.7344,-0.7403,-0.7451,-0.759,-0.7869,-0.8063,-0.8096,-0.8281,-0.8474,-0.8474,-0.8648,-0.8706,-0.9255,-0.9661,-0.9799,-0.9853,-0.9739,-0.9694,-0.9781,-0.9864,-0.9951,-1.012,-1.0294,-1.0381,-1.0554,-1.0809,-1.0895,-1.0901,-1.0987,-1.1073,-1.1251,-1.1424,-1.1505,-1.1682,-1.1952,-1.2118,-1.2209,-1.2466,-1.3143,-1.3568,-1.3568,-1.3737,-1.3815,-1.3984,-1.4153,-1.4237,-1.4405,-1.4566,-1.4734,-1.4901,-1.4985,-1.5151,-1.5318,-1.5477,-1.5733,-1.5914,-1.6079,-1.6162,-1.6162,-1.6245,-1.6327,-1.6566,-1.673,-1.6984,-1.7139,-1.7383,-1.7465,-1.7554,-1.7635,-1.7716,-1.7708,-1.787,-1.7951,-1.8031,-1.8201,-1.829,-1.8451,-1.8612,-1.8612,-1.8692,-1.8772,-1.8851,-1.8922,-1.9002,-1.9073,-1.9179,-1.9197,-1.924,-0.3919,-0.4001,-0.4211,-0.4268,-0.4322,-0.4367,-0.4385,-0.4394,-0.4428,-0.4761,-0.5386,-0.5613,-0.5731,-0.575,-0.5783,-0.5891,-0.5891,-0.5991,-0.6077,-0.6077,-0.6074,-0.6074,-0.6166,-0.6254,-0.6438,-0.6526,-0.67,-0.6789,-0.6786,-0.6799,-0.6946,-0.7175,-0.7188,-0.7316,-0.7583,-0.758,-0.7587,-0.7654,-0.767,-0.8087,-0.8702,-0.8864,-0.9021,-0.8915,-0.9082,-0.917,-0.9345,-0.9432,-0.9602,-0.9777,-0.9777,-0.9864,-1.0038,-1.012,-1.0294,-1.0381,-1.0554,-1.0641,-1.0901,-1.1073,-1.116,-1.1429,-1.1688,-1.1682,-1.1768,-1.2448,-1.2881,-1.2973,-1.3313,-1.3392,-1.3561,-1.373,-1.3815,-1.3899,-1.3984,-1.4062,-1.4398,-1.4657,-1.4817,-1.4985,-1.5068,-1.5151,-1.5401,-1.565,-1.5733,-1.5824,-1.5824,-1.6079,-1.6154,-1.6229,-1.6484,-1.682,-1.6976,-1.7302,-1.7473,-1.7473,-1.7473,-1.7554,-1.7546,-1.7627,-1.7708,-1.7797,-1.7959,-1.8121,-1.8201,-1.8362,-1.8371,-1.8451,-1.862,-1.8772,-1.8851,-1.8851,-1.8976,-1.9146,-1.9245,-0.3285,-0.3446,-0.3686,-0.3686,-0.3696,-0.3768,-0.3802,-0.3812,-0.3959,-0.3987,-0.4089,-0.4513,-0.4734,-0.4788,-0.4835,-0.5053,-0.5161,-0.5318,-0.5419,-0.5542,-0.5633,-0.563,-0.563,-0.563,-0.5811,-0.5902,-0.6077,-0.6163,-0.6163,-0.6166,-0.6166,-0.6254,-0.6254,-0.6346,-0.6343,-0.6438,-0.6649,-0.6847,-0.6999,-0.7156,-0.7496,-0.7845,-0.8292,-0.8556,-0.864,-0.8911,-0.9087,-0.9087,-0.9087,-0.917,-0.9257,-0.9432,-0.9519,-0.9602,-0.9781,-0.9864,-1.0038,-1.0207,-1.0467,-1.0554,-1.0641,-1.0727,-1.1068,-1.1241,-1.1327,-1.1591,-1.2026,-1.2369,-1.2711,-1.2973,-1.3137,-1.3307,-1.3307,-1.3392,-1.3476,-1.3561,-1.3984,-1.4321,-1.4405,-1.4573,-1.4657,-1.465,-1.4901,-1.5144,-1.5228,-1.5401,-1.5567,-1.5824,-1.5997,-1.5989,-1.6064,-1.6319,-1.6574,-1.6902,-1.7147,-1.7229,-1.7147,-1.7229,-1.7229,-1.731,-1.7473,-1.7554,-1.7635,-1.7708,-1.7789,-1.7959,-1.804,-1.8121,-1.8371,-1.8531,-1.8612,-1.8718,-1.8931,-1.9046,-1.935,-0.3008,-0.3139,-0.3217,-0.3217,-0.3219,-0.3236,-0.3242,-0.3243,-0.3257,-0.3261,-0.3292,-0.3505,-0.3814,-0.4221,-0.4233,-0.4365,-0.4537,-0.4626,-0.4777,-0.4914,-0.4987,-0.5085,-0.5095,-0.5087,-0.5095,-0.5188,-0.5277,-0.5275,-0.5453,-0.5364,-0.5366,-0.5636,-0.5636,-0.5813,-0.6083,-0.6169,-0.6169,-0.6346,-0.6432,-0.6605,-0.6874,-0.7316,-0.7848,-0.8028,-0.8032,-0.812,-0.8204,-0.8204,-0.8292,-0.8468,-0.8736,-0.8999,-0.9087,-0.917,-0.9257,-0.9345,-0.9515,-0.9602,-0.9864,-1.0038,-1.0125,-1.0299,-1.0554,-1.0727,-1.0814,-1.0901,-1.1332,-1.1591,-1.1935,-1.2203,-1.2375,-1.2711,-1.2881,-1.296,-1.313,-1.3307,-1.3646,-1.373,-1.3815,-1.4068,-1.4243,-1.4321,-1.4566,-1.4734,-1.4817,-1.4901,-1.4985,-1.5242,-1.5492,-1.5567,-1.565,-1.5906,-1.6162,-1.6252,-1.6335,-1.6648,-1.6648,-1.682,-1.6984,-1.6984,-1.7147,-1.7392,-1.7465,-1.7383,-1.7383,-1.7554,-1.7635,-1.7878,-1.787,-1.804,-1.8282,-1.8512,-1.8749,-1.9029,-1.9349]}]]